[[{"header":{"parameterUnit":"m.s-1","parameterCategory":1,"la1":30.6,"la2":28.766,"lo1":-90.7593,"lo2":-88.6598,"dy":0.0162,"dx":0.0183,"nx":116,"ny":114,"refTime":"2023-11-22T18:00:00:Z","depth":0,"parameterNumber":2,"parameterNumberName":"U-component_of_WINDS"},"data":[0.0,0.0,0.0,0.0,0.0,0.0,0.0,0.0,0.0,0.0,0.0,0.0,0.0,0.0,0.0,0.0,0.0,0.0,0.0,0.0,0.0,0.0,0.0,0.0,0.0,0.0,0.0,0.0,0.0,0.0,0.0,0.0,0.0,0.0,0.0,0.0,0.0,0.0,0.0,0.0,0.0,0.0,0.0,0.0,0.0,0.0,0.0,0.0,0.0,0.0,0.0,0.0,0.0,0.0,0.0,0.0,0.0,0.0,0.0,0.0,0.0,0.0,0.0,0.0,0.0,0.0,0.0,0.0,0.0,0.0,0.0,0.0,0.0,0.0,0.0,0.0,0.0,0.0,0.0,0.0,0.0,0.0,0.0,0.0,0.0,0.0,0.0,0.0,0.0,0.0,0.0,0.0,0.0,0.0,0.0,0.0,0.0,0.0,0.0,0.0,0.0,0.0,0.0,0.0,0.0,0.0,0.0,0.0,0.0,0.0,0.0,0.0,0.0,0.0,0.0,0.0,0.0,0.0,0.0,0.0,0.0,0.0,0.0,0.0,0.0,0.0,0.0,0.0,0.0,0.0,0.0,0.0,0.0,0.0,0.0,0.0,0.0,0.0,0.0,0.0,0.0,0.0,0.0,0.0,0.0,0.0,0.0,0.0,0.0,0.0,0.0,0.0,0.0,0.0,0.0,0.0,0.0,0.0,0.0,0.0,0.0,0.0,0.0,0.0,0.0,0.0,0.0,0.0,0.0,0.0,0.0,0.0,0.0,0.0,0.0,0.0,0.0,0.0,0.0,0.0,0.0,0.0,0.0,0.0,0.0,0.0,0.0,0.0,0.0,0.0,0.0,0.0,0.0,0.0,0.0,0.0,0.0,0.0,0.0,0.0,0.0,0.0,0.0,0.0,0.0,0.0,0.0,0.0,0.0,0.0,0.0,0.0,0.0,0.0,0.0,0.0,0.0,0.0,0.0,0.0,0.0,0.0,0.0,0.0,0.0,0.0,0.0,0.0,0.0,0.0,0.0,0.0,0.0,0.0,0.0,0.0,0.0,0.0,0.0,0.0,0.0,0.0,0.0,0.0,0.0,0.0,0.0,0.0,0.0,0.0,0.0,0.0,0.0,0.0,0.0,0.0,0.0,0.0,0.0,0.0,0.0,0.0,0.0,0.0,0.0,0.0,0.0,0.0,0.0,0.0,0.0,0.0,0.0,0.0,0.0,0.0,0.0,0.0,0.0,0.0,0.0,0.0,0.0,0.0,0.0,0.0,0.0,0.0,0.0,0.0,0.0,0.0,0.0,0.0,0.0,0.0,0.0,0.0,0.0,0.0,0.0,0.0,0.0,0.0,0.0,0.0,0.0,0.0,0.0,0.0,0.0,0.0,0.0,0.0,0.0,0.0,0.0,0.0,0.0,0.0,0.0,0.0,0.0,0.0,0.0,0.0,0.0,0.0,0.0,0.0,0.0,0.0,0.0,0.0,0.0,0.0,0.0,0.0,0.0,0.0,0.0,0.0,0.0,0.0,0.0,0.0,0.0,0.0,0.0,0.0,0.0,0.0,0.0,0.0,0.0,0.0,0.0,0.0,0.0,0.0,0.0,0.0,0.0,0.0,0.0,0.0,0.0,0.0,0.0,0.0,0.0,0.0,0.0,0.0,0.0,0.0,0.0,0.0,0.0,0.0,0.0,0.0,0.0,0.0,0.0,0.0,0.0,0.0,0.0,0.0,0.0,0.0,0.0,0.0,0.0,0.0,0.0,0.0,0.0,0.0,0.0,0.0,0.0,0.0,0.0,0.0,0.0,0.0,0.0,0.0,0.0,0.0,0.0,0.0,0.0,0.0,0.0,0.0,0.0,0.0,0.0,0.0,0.0,0.0,0.0,0.0,0.0,0.0,0.0,0.0,0.0,0.0,0.0,0.0,0.0,0.0,0.0,0.0,0.0,0.0,0.0,0.0,0.0,0.0,0.0,0.0,0.0,0.0,0.0,0.0,0.0,0.0,0.0,0.0,0.0,0.0,0.0,0.0,0.0,0.0,0.0,0.0,0.0,0.0,0.0,0.0,0.0,0.0,0.0,0.0,0.0,0.0,0.0,0.0,0.0,0.0,0.0,0.0,0.0,0.0,0.0,0.0,0.0,0.0,0.0,0.0,0.0,0.0,0.0,0.0,0.0,0.0,0.0,0.0,0.0,0.0,0.0,0.0,0.0,0.0,0.0,0.0,0.0,0.0,0.0,0.0,0.0,0.0,0.0,0.0,0.0,0.0,0.0,0.0,0.0,0.0,0.0,0.0,0.0,0.0,0.0,0.0,0.0,0.0,0.0,0.0,0.0,0.0,0.0,0.0,0.0,0.0,0.0,0.0,0.0,0.0,0.0,0.0,0.0,0.0,0.0,0.0,0.0,0.0,0.0,0.0,0.0,0.0,0.0,0.0,0.0,0.0,0.0,0.0,0.0,0.0,0.0,0.0,0.0,0.0,0.0,0.0,0.0,0.0,0.0,0.0,0.0,0.0,0.0,0.0,0.0,0.0,0.0,0.0,0.0,0.0,0.0,0.0,0.0,0.0,0.0,0.0,0.0,0.0,0.0,0.0,0.0,0.0,0.0,0.0,0.0,0.0,0.0,0.0,0.0,0.0,0.0,0.0,0.0,0.0,0.0,0.0,0.0,0.0,0.0,0.0,0.0,0.0,0.0,0.0,0.0,0.0,0.0,0.0,0.0,0.0,0.0,0.0,0.0,0.0,0.0,0.0,0.0,0.0,0.0,0.0,0.0,0.0,0.0,0.0,0.0,0.0,0.0,0.0,0.0,0.0,0.0,0.0,0.0,0.0,0.0,0.0,0.0,0.0,0.0,0.0,0.0,0.0,0.0,0.0,0.0,0.0,0.0,0.0,0.0,0.0,0.0,0.0,0.0,0.0,0.0,0.0,0.0,0.0,0.0,0.0,0.0,0.0,0.0,0.0,0.0,0.0,0.0,0.0,0.0,0.0,0.0,0.0,0.0,0.0,0.0,0.0,0.0,0.0,0.0,0.0,0.0,0.0,0.0,0.0,0.0,0.0,0.0,0.0,0.0,0.0,0.0,0.0,0.0,0.0,0.0,0.0,0.0,0.0,0.0,0.0,0.0,0.0,0.0,0.0,0.0,0.0,0.0,0.0,0.0,0.0,0.0,0.0,0.0,0.0,0.0,0.0,0.0,0.0,0.0,0.0,0.0,0.0,0.0,0.0,0.0,0.0,0.0,0.0,0.0,0.0,0.0,0.0,0.0,0.0,0.0,0.0,0.0,0.0,0.0,0.0,0.0,0.0,0.0,0.0,0.0,0.0,0.0,0.0,0.0,0.0,0.0,0.0,0.0,0.0,0.0,0.0,0.0,0.0,0.0,0.0,0.0,0.0,0.0,0.0,0.0,0.0,0.0,0.0,0.0,0.0,0.0,0.0,0.0,0.0,0.0,0.0,0.0,0.0,0.0,0.0,0.0,0.0,0.0,0.0,0.0,0.0,0.0,0.0,0.0,0.0,0.0,0.0,0.0,0.0,0.0,0.0,0.0,0.0,0.0,0.0,0.0,0.0,0.0,0.0,0.0,0.0,0.0,0.0,0.0,0.0,0.0,0.0,0.0,0.0,0.0,0.0,0.0,0.0,0.0,0.0,0.0,0.0,0.0,0.0,0.0,0.0,0.0,0.0,0.0,0.0,0.0,0.0,0.0,0.0,0.0,0.0,0.0,0.0,0.0,0.0,0.0,0.0,0.0,0.0,0.0,0.0,0.0,0.0,0.0,0.0,0.0,0.0,0.0,0.0,0.0,0.0,0.0,0.0,0.0,0.0,0.0,0.0,0.0,0.0,0.0,0.0,0.0,0.0,0.0,0.0,0.0,0.0,0.0,0.0,0.0,0.0,0.0,0.0,0.0,0.0,0.0,0.0,0.0,0.0,0.0,0.0,0.0,0.0,0.0,0.0,0.0,0.0,0.0,0.0,0.0,0.0,0.0,0.0,0.0,0.0,0.0,0.0,0.0,0.0,0.0,0.0,0.0,0.0,0.0,0.0,0.0,0.0,0.0,0.0,0.0,0.0,0.0,0.0,0.0,0.0,0.0,0.0,0.0,0.0,0.0,0.0,0.0,0.0,0.0,0.0,0.0,0.0,0.0,0.0,0.0,0.0,0.0,0.0,0.0,0.0,0.0,0.0,0.0,0.0,0.0,0.0,0.0,0.0,0.0,0.0,0.0,0.0,0.0,0.0,0.0,0.0,0.0,0.0,0.0,0.0,0.0,0.0,0.0,0.0,0.0,0.0,0.0,0.0,0.0,0.0,0.0,0.0,0.0,0.0,0.0,0.0,0.0,0.0,0.0,0.0,0.0,0.0,0.0,0.0,0.0,0.0,0.0,0.0,0.0,0.0,0.0,0.0,0.0,0.0,0.0,0.0,0.0,0.0,0.0,0.0,0.0,0.0,0.0,0.0,0.0,0.0,0.0,0.0,0.0,0.0,0.0,0.0,0.0,0.0,0.0,0.0,0.0,0.0,0.0,0.0,0.0,0.0,0.0,0.0,0.0,0.0,0.0,0.0,0.0,0.0,0.0,0.0,0.0,0.0,0.0,0.0,0.0,0.0,0.0,0.0,0.0,0.0,0.0,0.0,0.0,0.0,0.0,0.0,0.0,0.0,0.0,0.0,0.0,0.0,0.0,0.0,0.0,0.0,0.0,0.0,0.0,0.0,0.0,0.0,0.0,0.0,0.0,0.0,0.0,0.0,0.0,0.0,0.0,0.0,0.0,0.0,0.0,0.0,0.0,0.0,0.0,0.0,0.0,0.0,0.0,0.0,0.0,0.0,0.0,0.0,0.0,0.0,0.0,0.0,0.0,0.0,0.0,0.0,0.0,0.0,0.0,0.0,0.0,0.0,0.0,0.0,0.0,0.0,0.0,0.0,0.0,0.0,0.0,0.0,0.0,0.0,0.0,0.0,0.0,0.0,0.0,0.0,0.0,0.0,0.0,0.0,0.0,0.0,0.0,0.0,0.0,0.0,0.0,0.0,0.0,0.0,0.0,0.0,0.0,0.0,0.0,0.0,0.0,0.0,0.0,0.0,0.0,0.0,0.0,0.0,0.0,0.0,0.0,0.0,0.0,0.0,0.0,0.0,0.0,0.0,0.0,0.0,0.0,0.0,0.0,0.0,0.0,0.0,0.0,0.0,0.0,0.0,0.0,0.0,0.0,0.0,0.0,0.0,0.0,0.0,0.0,0.0,0.0,0.0,0.0,0.0,0.0,0.0,0.0,0.0,0.0,0.0,0.0,0.0,0.0,0.0,0.0,0.0,0.0,0.0,0.0,0.0,0.0,0.0,0.0,0.0,0.0,0.0,0.0,0.0,0.0,0.0,0.0,0.0,0.0,0.0,0.0,0.0,0.0,0.0,0.0,0.0,0.0,0.0,0.0,0.0,0.0,0.0,0.0,0.0,0.0,0.0,0.0,0.0,0.0,0.0,0.0,0.0,0.0,0.0,0.0,0.0,0.0,0.0,0.0,0.0,0.0,0.0,0.0,0.0,0.0,0.0,0.0,0.0,0.0,0.0,0.0,0.0,0.0,0.0,0.0,0.0,0.0,0.0,0.0,0.0,0.0,0.0,0.0,0.0,0.0,0.0,0.0,0.0,0.0,0.0,0.0,0.0,0.0,0.0,0.0,0.0,0.0,0.0,0.0,0.0,0.0,0.0,0.0,0.0,0.0,0.0,0.0,0.0,0.0,0.0,0.0,0.0,0.0,0.0,0.0,0.0,0.0,0.0,0.0,0.0,0.0,0.0,0.0,0.0,0.0,0.0,0.0,0.0,0.0,0.0,0.0,0.0,0.0,0.0,0.0,0.0,0.0,0.0,0.0,0.0,0.0,0.0,0.0,0.0,0.0,0.0,0.0,0.0,0.0,0.0,0.0,0.0,0.0,0.0,0.0,0.0,0.0,0.0,0.0,0.0,0.0,0.0,0.0,0.0,0.0,0.0,0.0,0.0,0.0,0.0,0.0,0.0,0.0,0.0,0.0,0.0,0.0,0.0,0.0,0.0,0.0,0.0,0.0,0.0,0.0,0.0,0.0,0.0,5.3927,0.0,0.0,0.0,0.0,0.0,0.0,0.0,0.0,0.0,0.0,0.0,0.0,0.0,0.0,0.0,0.0,0.0,0.0,0.0,0.0,0.0,0.0,0.0,0.0,0.0,0.0,0.0,0.0,0.0,0.0,0.0,0.0,0.0,0.0,0.0,0.0,0.0,0.0,0.0,4.5009,4.4906,4.4588,4.4829,4.4973,4.5075,0.0,0.0,0.0,0.0,0.0,0.0,0.0,0.0,0.0,0.0,0.0,0.0,0.0,0.0,0.0,0.0,0.0,0.0,0.0,0.0,0.0,0.0,0.0,0.0,0.0,0.0,0.0,0.0,0.0,0.0,0.0,0.0,0.0,0.0,0.0,0.0,0.0,0.0,0.0,0.0,0.0,0.0,0.0,0.0,0.0,0.0,0.0,0.0,0.0,0.0,0.0,0.0,0.0,0.0,0.0,0.0,0.0,0.0,0.0,0.0,0.0,0.0,0.0,0.0,0.0,0.0,0.0,0.0,0.0,0.0,0.0,5.5212,0.0,0.0,0.0,0.0,0.0,0.0,0.0,0.0,0.0,0.0,0.0,0.0,0.0,0.0,0.0,0.0,0.0,0.0,0.0,0.0,0.0,0.0,0.0,4.0756,4.0798,4.0909,4.1018,4.1388,0.0,0.0,0.0,0.0,0.0,0.0,4.4365,4.4511,4.4831,4.5346,4.4831,4.4608,4.4608,4.4608,4.4608,4.4608,4.4608,0.0,0.0,0.0,0.0,0.0,0.0,0.0,0.0,0.0,0.0,0.0,0.0,0.0,0.0,0.0,0.0,0.0,0.0,0.0,0.0,0.0,0.0,0.0,0.0,0.0,0.0,0.0,0.0,0.0,0.0,0.0,0.0,0.0,0.0,0.0,0.0,0.0,0.0,0.0,0.0,0.0,0.0,0.0,0.0,0.0,0.0,0.0,0.0,0.0,0.0,0.0,0.0,0.0,0.0,0.0,0.0,0.0,0.0,0.0,0.0,0.0,0.0,0.0,0.0,0.0,5.6025,5.6167,5.6602,5.7183,5.6644,5.6282,5.6025,0.0,0.0,0.0,0.0,0.0,0.0,0.0,0.0,0.0,0.0,0.0,0.0,0.0,0.0,0.0,0.0,0.0,0.0,0.0,0.0,0.0,0.0,4.0204,4.0392,4.0874,4.1526,4.1999,4.2097,4.2714,4.3181,4.3469,4.3498,4.3864,4.4564,4.4589,4.4623,4.4713,4.4623,4.4608,4.4608,4.4608,4.4608,4.4608,4.4608,4.4608,4.4608,0.0,0.0,0.0,0.0,0.0,0.0,0.0,0.0,0.0,0.0,0.0,0.0,0.0,0.0,0.0,0.0,0.0,0.0,0.0,0.0,0.0,0.0,0.0,0.0,0.0,0.0,0.0,0.0,0.0,0.0,0.0,0.0,0.0,0.0,0.0,0.0,0.0,0.0,0.0,0.0,0.0,5.0508,5.0618,0.0,0.0,0.0,0.0,0.0,0.0,0.0,0.0,0.0,0.0,0.0,0.0,0.0,0.0,5.5585,5.6308,5.6633,5.6633,5.7336,5.7672,5.7709,5.8394,5.8787,5.8939,5.9496,0.0,5.7672,5.7672,0.0,0.0,0.0,0.0,0.0,0.0,0.0,0.0,0.0,0.0,0.0,0.0,0.0,0.0,0.0,0.0,0.0,0.0,0.0,0.0,0.0,4.0113,4.0355,4.0998,4.1399,4.1933,4.2774,4.3116,4.3537,4.4059,4.4079,4.4222,4.4608,4.4608,4.4608,4.4608,4.4608,4.4608,4.4608,4.4608,4.4608,4.4608,4.4608,4.4608,4.4608,4.4608,0.0,0.0,0.0,0.0,0.0,0.0,0.0,0.0,0.0,0.0,0.0,0.0,0.0,0.0,0.0,0.0,0.0,0.0,0.0,0.0,0.0,0.0,0.0,0.0,0.0,0.0,0.0,0.0,0.0,0.0,0.0,0.0,0.0,0.0,0.0,0.0,0.0,0.0,0.0,5.0582,5.098,5.1426,5.1861,5.2449,0.0,0.0,0.0,0.0,0.0,0.0,0.0,0.0,0.0,5.6271,5.6717,5.7152,5.7629,5.7985,5.8389,5.8835,5.9165,5.9355,5.9355,5.9716,5.9857,5.9893,6.0266,6.0009,5.9355,5.9355,5.9355,5.9355,0.0,0.0,0.0,0.0,0.0,0.0,0.0,0.0,0.0,0.0,0.0,0.0,0.0,0.0,0.0,0.0,0.0,0.0,4.0113,4.0276,4.0601,4.1163,4.1536,4.2239,4.3315,4.3592,4.3978,4.4574,4.4608,4.4608,4.4608,4.4608,4.4608,4.4608,4.4608,4.4608,4.4608,4.4608,4.4608,4.4608,4.4608,4.4608,4.4608,4.4608,4.4608,4.4608,0.0,0.0,0.0,0.0,0.0,0.0,0.0,0.0,0.0,0.0,0.0,0.0,0.0,0.0,0.0,0.0,0.0,0.0,0.0,0.0,0.0,0.0,0.0,0.0,0.0,0.0,0.0,0.0,0.0,0.0,0.0,0.0,0.0,0.0,0.0,0.0,0.0,5.1458,5.194,5.2532,5.3335,5.4069,0.0,0.0,0.0,0.0,0.0,0.0,5.6497,5.7073,5.7508,5.7697,5.8284,5.8908,5.949,5.9526,5.982,6.0413,6.0413,6.0413,6.0413,6.0597,6.0713,6.0707,6.0927,6.1,6.0964,6.056,6.0413,6.0413,6.0413,6.0413,0.0,6.0413,6.0413,6.0413,0.0,0.0,0.0,0.0,0.0,0.0,0.0,0.0,0.0,0.0,0.0,4.0113,4.0113,4.0737,4.117,4.1197,4.2476,4.3321,4.3382,4.412,4.4574,4.4608,4.4608,4.4608,4.4608,4.4608,4.4608,4.4608,4.4608,4.4608,4.4608,4.4608,4.4608,4.4608,4.4608,4.4608,4.4608,4.4608,4.4608,4.4608,4.4608,0.0,0.0,0.0,0.0,0.0,0.0,0.0,0.0,0.0,0.0,0.0,0.0,0.0,0.0,0.0,0.0,0.0,0.0,0.0,0.0,0.0,0.0,0.0,0.0,0.0,0.0,0.0,0.0,0.0,0.0,0.0,0.0,0.0,0.0,0.0,0.0,0.0,0.0,5.4252,5.4992,0.0,0.0,0.0,0.0,5.6669,5.6743,5.7404,5.8933,5.9043,5.9416,6.0193,6.0266,6.0303,6.034,6.034,6.0376,6.0413,6.0413,6.0413,6.0413,6.1196,6.1526,6.16,6.2358,6.2683,6.2572,6.1037,6.0413,6.0413,6.0413,6.0413,6.0413,6.0413,6.0413,6.0413,0.0,0.0,0.0,0.0,0.0,0.0,0.0,0.0,4.0113,4.0113,4.0113,4.0269,4.077,4.1035,4.1563,4.2544,4.3118,4.3626,4.4154,4.4432,4.4608,4.4608,4.4608,4.4608,4.4608,4.4608,4.4608,4.4608,4.4608,4.4608,4.4608,4.4608,4.4608,4.4608,4.4608,4.4608,4.4608,4.4608,4.4608,4.4608,4.4608,4.4608,0.0,0.0,0.0,0.0,0.0,0.0,0.0,0.0,0.0,0.0,0.0,0.0,0.0,0.0,0.0,0.0,0.0,0.0,0.0,0.0,0.0,0.0,0.0,0.0,0.0,0.0,0.0,0.0,0.0,0.0,0.0,0.0,0.0,0.0,0.0,0.0,0.0,5.5176,5.5873,0.0,0.0,5.6822,5.7483,5.8279,5.8346,5.8829,5.9893,5.9967,5.9883,5.9632,6.0121,6.0389,6.0412,6.0895,6.1441,6.1949,6.1949,6.1949,6.1949,6.2248,6.2358,6.2395,6.2683,6.2793,6.2756,6.2169,6.1949,6.1949,6.1949,6.1949,6.1949,6.1949,6.1949,6.1949,0.0,0.0,0.0,0.0,0.0,0.0,0.0,0.0,4.0113,4.0113,4.0309,4.0675,4.1163,4.1637,4.2341,4.3315,4.3666,4.4045,4.4574,4.4608,4.4608,4.4608,4.4608,4.4608,4.4608,4.4608,4.4608,4.4608,4.4608,4.4608,4.4608,4.4608,4.4608,4.4608,4.4608,4.4736,4.4966,4.4966,4.4845,4.4608,4.4608,4.4608,4.4608,0.0,0.0,0.0,0.0,0.0,0.0,0.0,0.0,0.0,0.0,0.0,0.0,0.0,0.0,0.0,0.0,0.0,0.0,0.0,0.0,0.0,0.0,0.0,0.0,0.0,0.0,0.0,0.0,0.0,0.0,0.0,0.0,0.0,0.0,0.0,5.5983,5.5983,5.6732,5.7301,5.7595,5.7832,5.845,5.9527,5.9095,5.9265,6.0349,6.0146,5.9871,5.9629,6.0409,6.0683,6.0411,6.1191,6.1878,6.2419,6.2419,6.2541,6.2793,6.2793,6.2793,6.2793,6.2793,6.2793,6.2793,6.2793,6.2793,6.2793,6.2793,6.2793,6.2793,6.2793,6.2793,6.2793,0.0,0.0,0.0,0.0,0.0,0.0,0.0,4.0113,4.0106,4.014,4.077,4.1231,4.1265,4.2544,4.3416,4.345,4.4154,4.4608,4.4608,4.4608,4.4608,4.4608,4.4608,4.4608,4.4608,4.4608,4.4608,4.4608,4.4608,4.4642,4.4642,4.4642,4.4675,4.4675,4.4675,4.5074,4.573,4.573,4.5331,4.4675,4.4675,4.4675,4.4675,0.0,0.0,0.0,0.0,0.0,0.0,0.0,0.0,0.0,0.0,0.0,0.0,0.0,0.0,0.0,0.0,0.0,0.0,0.0,0.0,0.0,0.0,0.0,0.0,0.0,0.0,0.0,0.0,0.0,0.0,0.0,0.0,0.0,5.5643,5.6345,5.6884,5.6884,5.7569,5.836,5.9162,5.8492,5.8659,6.028,5.8925,5.8714,6.031,5.965,5.958,6.0343,6.1135,6.1171,6.0358,6.1149,6.1583,6.1611,6.1583,6.1989,6.2761,6.2761,6.2761,6.2761,6.2786,6.2793,6.2793,6.2793,6.2793,6.2793,6.2793,6.2793,6.2793,6.2793,6.2793,6.2793,0.0,0.0,0.0,0.0,0.0,0.0,4.0113,4.0113,4.0276,4.0838,4.1062,4.1603,4.2679,4.3145,4.3626,4.4222,4.4465,4.4608,4.4608,4.4608,4.4608,4.4608,4.4608,4.4608,4.4608,4.4608,4.4608,4.4608,4.5135,4.5399,4.5399,4.5947,4.6191,4.6191,4.6191,4.6327,4.6481,4.6481,4.6387,4.6191,4.6191,4.6191,4.6191,0.0,0.0,0.0,0.0,0.0,0.0,0.0,0.0,0.0,0.0,0.0,0.0,0.0,0.0,0.0,0.0,0.0,0.0,0.0,0.0,0.0,0.0,0.0,0.0,0.0,0.0,0.0,0.0,0.0,0.0,0.0,0.0,5.7226,5.6548,5.7655,5.8535,5.8535,5.8744,5.9183,5.998,5.8823,5.8687,6.029,5.9438,5.9317,6.0337,6.0177,5.989,5.9484,6.0297,6.0327,5.9468,6.0312,6.1011,6.1604,6.1004,6.1135,6.1942,6.1942,6.1942,6.1969,6.2547,6.2793,6.2793,6.2793,6.2793,6.2793,6.2793,6.2793,6.2793,6.2793,6.2793,6.2793,0.0,0.0,0.0,0.0,0.0,0.0,4.0113,4.0113,4.0371,4.1096,4.1474,4.2111,4.3288,4.37,4.4079,4.4574,4.4608,4.4608,4.4608,4.4608,4.4608,4.4608,4.4608,4.4608,4.4608,4.4905,4.5074,4.5074,4.5805,4.6143,4.6177,4.659,4.6793,4.6793,4.6793,4.6955,4.7259,4.7259,4.7428,4.7706,4.7706,4.7361,4.6793,4.6793,4.6793,4.6793,4.6793,4.6793,4.6793,4.6793,0.0,0.0,0.0,0.0,0.0,0.0,0.0,0.0,0.0,0.0,0.0,0.0,0.0,0.0,0.0,0.0,0.0,0.0,0.0,0.0,0.0,0.0,0.0,0.0,5.7246,5.749,5.7345,5.8404,5.9217,5.9217,5.8882,5.9123,6.0293,5.8914,5.862,6.0267,5.9323,5.9014,5.9805,5.956,5.912,5.8616,5.941,5.9609,5.9079,5.9906,6.0763,6.1508,6.1048,6.1227,6.2029,6.2407,6.2343,0.0,6.3312,6.3404,6.2726,6.3128,6.303,0.0,0.0,0.0,0.0,0.0,6.2793,6.2793,0.0,0.0,0.0,0.0,0.0,0.0,4.0113,4.0113,4.0377,4.1204,4.188,4.2625,4.3423,4.4188,4.4608,4.4608,4.4608,4.4608,4.4608,4.4608,4.4608,4.4608,4.4608,4.4608,4.4608,4.5331,4.5696,4.5696,4.6515,4.6928,4.6928,4.6996,4.7064,4.7064,4.7064,4.7428,4.8015,4.8015,4.8402,4.9011,4.9011,4.8206,4.7064,4.7064,4.7064,4.7064,4.7064,4.7064,4.7064,4.7064,0.0,0.0,0.0,0.0,0.0,0.0,0.0,0.0,0.0,0.0,0.0,0.0,0.0,0.0,0.0,0.0,0.0,0.0,0.0,0.0,0.0,0.0,0.0,0.0,5.6982,5.7171,5.7907,5.8674,5.9194,5.9204,5.8518,5.8673,6.0266,5.8887,5.8563,6.0125,5.8789,5.8192,5.8934,0.0,0.0,0.0,0.0,5.9199,5.9124,5.9886,6.0653,6.1414,6.1309,6.1666,6.2497,6.3268,6.3199,6.257,6.4251,6.4065,6.2647,6.3434,6.3252,6.242,6.1894,6.2155,6.2771,6.2771,6.2859,0.0,0.0,0.0,0.0,0.0,0.0,0.0,4.0113,4.0113,4.058,4.1921,4.2191,4.2841,4.4228,4.4506,4.4608,4.4608,4.4608,4.4608,4.4608,4.4608,4.4608,4.4608,4.4608,4.4608,4.4608,4.5331,4.5696,4.5696,4.7041,4.7684,4.7684,4.83,4.8578,4.8578,4.8578,4.8638,4.8774,4.8774,4.8875,4.9011,4.9011,4.8849,4.8578,4.8578,4.8578,4.8578,4.8578,4.8578,4.8578,4.8578,4.8578,4.8578,4.8578,4.8578,0.0,0.0,0.0,0.0,0.0,0.0,0.0,0.0,0.0,0.0,0.0,0.0,0.0,0.0,0.0,0.0,0.0,0.0,0.0,5.7698,5.7778,5.7784,5.7925,5.8615,5.9139,5.9199,5.9012,5.9256,6.0306,5.8882,5.829,5.9278,5.8467,5.7972,5.8119,5.8558,0.0,5.8786,5.9513,5.9895,5.9877,6.0065,6.0545,6.1397,0.0,0.0,6.164,6.1794,6.1777,6.17,6.2682,6.2927,6.2599,6.2766,6.2367,6.1691,6.2184,6.2504,6.2643,6.2643,6.3065,6.3694,0.0,0.0,0.0,0.0,0.0,0.0,4.0113,4.0405,4.1041,4.2158,4.2625,4.3308,4.4472,4.4608,4.4608,4.4608,4.4608,4.4608,4.4608,4.4608,4.4608,4.4608,4.4608,4.477,4.5135,4.5872,4.644,4.6805,4.7921,4.8462,4.8469,4.9221,4.956,4.9567,4.9924,4.989,4.956,4.956,4.9323,4.9011,4.9011,4.9011,4.9011,4.9011,4.9011,4.9011,4.9011,4.9011,4.9011,4.9011,4.9011,4.9044,4.9424,4.956,4.9627,0.0,0.0,0.0,0.0,0.0,0.0,0.0,0.0,0.0,0.0,0.0,0.0,0.0,0.0,5.731,0.0,0.0,5.7366,5.7374,5.7723,5.7929,5.7894,5.8262,5.8651,5.9106,5.876,5.8815,5.9671,5.8616,5.8056,5.8459,5.8459,5.8457,5.8457,5.9167,5.9564,5.9564,5.9902,6.0283,6.0689,6.0689,6.13,6.2435,6.1994,6.2217,6.3011,6.3462,6.3425,6.3068,6.4366,6.4435,6.3585,6.3585,6.3344,6.3039,6.3436,6.2944,6.2064,6.2465,6.2896,6.326,0.0,0.0,0.0,0.0,0.0,0.0,0.0,4.0838,4.1502,4.2394,4.3017,4.37,4.4499,4.4608,4.4608,4.4608,4.4608,4.4608,4.4608,4.4608,4.4608,4.4608,4.4608,4.4939,4.5696,4.6421,4.7158,4.7913,4.8638,4.9011,4.9018,4.9737,5.0109,5.0143,5.0871,5.0803,5.0109,5.0109,4.9661,4.9011,4.9011,4.9086,4.9221,4.9221,4.9112,4.9018,4.9154,4.9221,4.9255,4.9383,4.9416,4.9518,5.0143,5.0304,5.0439,5.104,5.1302,0.0,0.0,0.0,0.0,0.0,0.0,0.0,0.0,5.6688,5.7561,5.6808,5.7245,5.7553,5.6922,5.7394,5.7707,5.7118,5.7518,5.7891,5.7891,5.7891,5.8146,5.8789,5.829,5.8155,5.8798,5.84,5.8118,5.8118,5.8786,5.9216,5.9216,5.9945,6.0317,6.0317,6.0622,6.1052,6.1728,6.1873,6.254,6.3714,6.3714,6.4028,6.46,6.5324,6.5246,6.4671,6.613,6.5959,6.4613,6.4613,6.4613,6.4613,6.4613,6.3528,6.2084,6.2577,6.2879,6.3001,0.0,0.0,0.0,0.0,0.0,0.0,0.0,0.0,4.1705,4.3085,4.3348,4.37,4.4499,4.4608,4.4608,4.4608,4.4608,4.4608,4.4608,4.4608,4.4608,4.4608,4.4608,4.4939,4.5696,4.6421,4.7158,4.7913,4.8638,4.9011,4.9018,4.9737,5.0109,5.0143,5.0871,5.0803,5.0109,5.0109,4.9661,4.9011,4.9011,4.939,4.9973,4.9973,4.9567,4.9086,4.9737,4.9973,5.0075,5.0736,5.0964,5.0964,5.1066,5.1066,5.11,5.1167,5.1649,5.2181,5.2279,5.2804,5.3561,5.439,5.5139,5.5523,0.0,5.588,5.6747,5.5979,5.6412,5.6895,5.6832,5.7391,5.7873,5.7773,5.7857,5.7891,5.7891,5.7891,5.7936,5.8002,5.7954,5.7936,5.8045,5.8555,5.8887,5.8887,5.9564,5.9979,5.9979,6.0723,6.1163,6.1163,6.2439,6.3139,6.325,6.3893,6.4309,6.4478,6.4478,6.4512,6.4613,6.4701,6.4691,6.4624,6.4822,6.4802,6.4613,6.4613,6.4613,6.4613,6.4613,6.4437,6.4175,6.3605,6.3882,6.4461,0.0,0.0,0.0,0.0,0.0,0.0,0.0,0.0,0.0,4.3247,4.3809,4.4228,4.4574,4.4608,4.4608,4.4608,4.4608,4.4608,4.4608,4.4608,4.4608,4.4608,4.4608,4.5142,4.6312,4.6624,4.7368,4.8537,4.8841,4.9011,4.9018,4.9737,5.0109,5.0143,5.0871,5.0803,5.0109,5.0109,4.9906,4.9635,4.9635,5.0067,5.0736,5.0736,5.0533,5.0322,5.0634,5.0736,0.0,5.1108,5.1201,5.1269,5.1708,5.1852,5.1919,5.2393,5.2765,5.3002,5.3002,5.3551,5.422,5.4529,5.5468,5.6142,5.5408,5.6388,5.723,5.6502,5.6934,5.7451,5.7451,5.7688,5.7891,0.0,5.7891,5.7891,5.7891,5.7891,5.7891,5.7891,5.8287,5.8549,5.8549,5.8819,5.9182,5.9597,6.0341,6.0791,6.0791,6.1931,6.2574,6.2574,6.3589,6.413,6.413,6.4444,6.4816,6.5233,6.5233,6.5459,6.5889,6.5889,6.5889,6.5889,6.5889,6.5889,6.5889,6.5889,6.5889,6.5889,6.5889,6.5889,6.5719,6.4569,6.4377,6.4649,0.0,0.0,0.0,0.0,0.0,0.0,0.0,0.0,0.0,0.0,4.4222,4.4608,4.4608,4.4608,4.4608,4.4608,4.4608,4.4608,4.4608,4.4608,4.4608,4.4608,4.4608,4.5277,4.6759,4.6793,4.753,4.9011,4.9011,4.9011,4.9018,4.9737,5.0109,5.0143,5.0871,5.0803,5.0109,5.0312,5.0278,5.0109,5.0312,5.0845,5.1505,5.1505,5.1641,5.1818,5.1573,5.1505,5.1539,5.175,5.1844,5.1919,5.2461,5.2638,5.2739,5.334,5.3644,5.3856,5.405,5.4499,5.4905,5.4905,5.586,5.6669,5.6128,5.6977,5.7758,5.7195,5.7518,5.7891,5.7891,5.7891,5.7891,5.7891,5.7891,5.7891,5.7891,5.7891,5.7992,5.8186,5.8684,5.9158,5.9588,5.9622,5.9868,6.0385,6.1366,6.1897,6.1897,6.3115,6.3781,6.3781,6.4512,6.4884,6.4884,6.5121,6.5459,6.6011,6.6011,6.6271,6.6802,6.6802,6.6802,6.6802,6.6802,6.6802,6.6802,6.6802,6.6802,6.6802,6.6802,6.6802,6.6667,6.5584,6.5087,6.4884,0.0,0.0,0.0,0.0,0.0,0.0,0.0,0.0,0.0,0.0,0.0,0.0,0.0,4.4608,4.4608,4.4608,4.4608,4.4608,4.4608,4.4608,4.4608,4.4608,4.4608,4.5277,4.6759,4.6793,4.753,4.9011,4.9011,4.9011,4.9018,4.9737,5.0109,5.0143,5.0871,5.0803,5.0143,5.0871,5.0736,5.0143,5.0871,5.1615,5.2266,5.2266,5.2739,5.334,5.2562,5.2266,5.2401,5.3171,5.3441,5.3441,5.345,5.3441,5.3484,5.3475,5.4025,5.471,5.5428,5.5665,5.5665,5.5665,5.6233,5.6792,5.6765,5.7358,5.7893,5.7866,5.7891,5.7891,5.7891,5.7891,5.7891,5.7891,5.7891,5.7891,5.7891,5.7891,5.8161,5.8887,5.8989,5.9597,0.0,6.1231,6.1221,6.1255,6.2608,6.3443,6.3443,6.4164,6.458,6.458,6.5266,6.5672,6.5672,6.6373,6.6724,6.6768,6.6768,6.6768,6.6802,6.6802,6.6802,6.6802,6.6802,6.6802,6.6802,6.6802,6.6802,6.6802,6.6802,6.6802,6.6791,6.6768,6.6271,6.5571,0.0,0.0,0.0,0.0,0.0,0.0,0.0,0.0,0.0,0.0,0.0,0.0,0.0,0.0,0.0,0.0,4.4608,4.4608,4.4608,4.4608,4.4608,4.4608,4.4608,4.5277,4.6759,4.6793,4.753,4.9011,4.9011,4.9011,4.9018,4.9255,4.9357,4.939,4.9619,4.9586,4.9424,5.0168,5.0608,5.0905,5.1615,5.2393,5.3112,5.3112,5.3272,5.3441,0.0,5.3112,5.3145,5.3408,5.3509,5.3509,5.3509,5.3822,5.4329,5.4828,5.5133,5.5369,5.5631,5.6046,5.6418,5.6418,5.6968,5.7518,5.7518,5.7721,5.7891,5.7891,5.7891,5.7891,5.7891,5.7891,5.7891,5.7891,5.7891,5.7891,5.7891,5.8321,5.8718,5.8979,5.9902,0.0,0.0,0.0,0.0,6.2675,6.3217,6.3714,6.4197,6.4918,6.5334,6.5334,6.6034,6.644,6.644,6.6667,6.7039,6.7557,6.8064,6.8335,6.8335,6.8335,6.8335,6.8335,6.8335,6.8335,6.8335,6.8335,6.8335,6.8335,6.8335,6.8335,6.8335,6.8335,6.8166,6.776,0.0,0.0,0.0,0.0,0.0,0.0,0.0,0.0,0.0,0.0,0.0,0.0,0.0,0.0,0.0,0.0,0.0,4.4608,4.4608,4.4608,4.4608,4.4608,4.4838,4.5541,4.6759,4.7064,4.78,4.9011,4.9011,4.9011,4.9011,4.9011,4.9011,4.9011,4.9011,4.9011,4.9078,5.0067,5.0777,5.1302,5.2325,5.3044,5.3509,5.3509,5.3509,0.0,5.3509,5.3509,5.3509,5.3509,5.3509,5.3543,5.3822,5.4397,5.5141,5.5877,5.608,5.6139,5.6418,5.6833,5.7171,5.7171,5.7552,5.7891,5.7891,5.7891,5.7891,5.7891,5.7891,5.7891,5.7891,5.7891,5.7891,5.7891,5.8127,5.8287,5.8287,5.893,5.9496,5.98,6.0714,6.1501,0.0,0.0,0.0,6.3443,6.3994,6.4478,6.4952,6.5696,6.6102,6.6102,6.6531,6.6937,6.7174,6.7174,6.758,6.8335,6.8842,6.9113,6.9113,6.9113,6.9113,6.9113,6.9113,6.9113,6.9113,6.9113,6.9113,6.9113,6.9113,6.9113,6.9113,6.9113,6.9113,6.8977,0.0,0.0,0.0,0.0,0.0,0.0,0.0,0.0,0.0,0.0,0.0,0.0,0.0,0.0,0.0,0.0,0.0,0.0,4.4608,4.4608,4.4608,4.4608,4.5263,4.6007,4.6793,4.7488,4.8225,4.9011,4.9011,4.9011,4.9011,4.9011,4.9011,4.9011,4.9011,4.9018,4.9146,5.0592,5.1235,5.1404,5.29,5.3509,5.3509,5.3509,5.3509,5.3509,5.3509,5.3509,5.3509,5.3509,5.3518,5.3687,5.4431,5.5166,5.5902,5.663,5.6867,5.7002,5.7721,5.7891,5.7891,5.7891,5.7891,5.7891,5.7891,5.7891,5.7891,5.7891,5.7891,5.7891,5.7891,5.7891,5.7891,5.7891,5.8524,5.9013,5.9013,5.9665,6.0452,0.0,0.0,0.0,0.0,0.0,0.0,6.3612,0.0,6.5706,6.574,6.643,6.6836,6.6869,6.6869,6.7208,6.7963,6.7996,6.8402,6.9147,6.9169,6.9214,6.9214,6.9214,6.9214,6.9214,6.9214,6.9214,6.9214,6.9214,6.9214,6.9214,6.9214,6.9214,6.9214,6.9214,6.9214,6.9214,0.0,0.0,0.0,0.0,0.0,0.0,0.0,0.0,0.0,0.0,0.0,0.0,0.0,0.0,0.0,0.0,0.0,0.0,4.4608,4.4608,4.4608,4.4608,4.4777,4.5481,4.6759,4.6989,4.7699,4.9011,4.9011,4.9011,4.9011,4.9011,4.9011,4.9011,4.9011,4.9323,4.9872,5.0803,5.1514,5.2122,5.3103,5.3509,5.3509,5.3509,5.3509,5.3509,5.3509,5.3509,5.3509,5.3509,5.3856,5.4431,5.52,5.5944,5.6655,5.7408,5.762,5.7654,5.7857,5.7891,5.7891,5.7891,5.7891,5.7891,5.7891,5.7891,5.7891,5.7891,5.7891,5.7891,5.7891,5.7891,5.7891,5.7891,5.8524,5.9013,5.9013,6.0139,0.0,6.1298,0.0,6.3071,6.3443,6.4478,0.0,0.0,6.5503,6.5943,6.6508,6.67,6.7039,6.759,6.7624,6.7996,6.8808,6.936,6.9733,6.9936,7.05,7.0725,7.0725,7.0725,7.0725,7.0725,7.0725,7.0725,7.0725,7.0725,7.0725,7.0725,7.0725,7.0725,7.0725,7.0725,7.0725,7.0725,0.0,0.0,0.0,0.0,0.0,0.0,0.0,0.0,0.0,0.0,0.0,0.0,0.0,0.0,0.0,0.0,0.0,0.0,0.0,4.4608,4.4608,4.4608,4.4905,4.5609,4.6759,4.7124,4.7868,4.9011,4.9011,4.9011,4.9011,4.9011,4.9011,4.9011,4.9011,4.9221,4.9695,5.0761,5.1438,0.0,0.0,5.3509,5.3509,5.3509,5.3509,5.3509,5.3509,5.3509,5.3543,5.3856,5.4465,5.5175,5.5564,5.6418,5.734,5.7789,5.7891,5.7891,5.7891,5.7891,5.7891,5.7891,5.7891,5.7891,5.7891,5.7891,5.7891,5.7891,5.7891,5.7891,5.7891,5.7891,5.7891,5.7891,5.8795,5.9462,5.9462,6.0825,6.1772,6.1772,6.2811,0.0,6.3961,6.5019,6.5842,0.0,6.617,6.6373,6.6768,6.7106,6.7478,6.7895,6.8233,6.8808,6.9586,7.0297,7.0669,7.0703,7.1097,7.13,7.13,7.13,7.13,7.13,0.0,7.13,7.13,7.13,7.13,7.13,7.13,7.13,7.13,7.13,7.13,7.13,0.0,0.0,0.0,0.0,0.0,0.0,0.0,0.0,0.0,0.0,0.0,0.0,0.0,0.0,0.0,0.0,0.0,0.0,0.0,0.0,4.4608,4.4608,4.5203,4.5906,4.6624,4.7387,4.8124,4.8841,4.8951,4.9011,4.9011,4.9011,4.9011,4.9011,4.9011,4.9044,4.9221,5.0491,5.1175,5.1472,5.2799,5.3416,5.3509,0.0,5.3509,5.3509,5.3509,5.3509,5.3619,5.4338,5.5108,5.5733,5.58,5.679,5.7891,5.7891,5.7891,5.7891,5.7891,5.7891,5.7891,5.7891,5.7891,5.7891,5.7891,5.7891,5.7891,5.7891,5.7891,5.7891,5.7891,5.7891,5.7924,5.8026,5.9201,6.0148,6.025,6.1511,6.2424,6.2526,6.3193,6.3927,6.4681,6.5402,6.6102,6.6768,6.6903,6.6937,6.6937,6.7658,6.8098,6.8199,6.8977,6.9688,7.0342,7.0962,7.13,7.13,7.13,7.13,7.13,7.13,7.13,7.13,0.0,0.0,7.13,7.13,7.13,7.13,7.13,7.13,7.13,7.13,7.13,7.13,0.0,0.0,0.0,0.0,0.0,0.0,0.0,0.0,0.0,0.0,4.4608,0.0,0.0,0.0,0.0,0.0,0.0,0.0,0.0,0.0,0.0,4.4608,4.4702,4.5135,4.5872,4.6616,4.7353,4.809,4.8706,4.9011,4.9011,4.9011,4.9011,4.9011,4.9011,4.9323,4.994,5.0176,5.098,5.2122,5.2401,5.2909,5.3509,5.3509,0.0,0.0,5.3509,5.3509,5.3619,5.4338,5.5108,5.58,5.6418,5.7205,5.7891,5.7891,5.7891,5.7891,5.7891,5.7891,5.7891,5.7891,5.7891,5.7891,5.7891,5.7891,5.7891,5.7891,5.7891,5.7891,5.7891,5.7891,5.8094,5.8718,5.9539,6.0317,6.0994,6.1839,6.2627,6.325,6.3961,6.4681,6.5436,6.617,0.0,0.0,0.0,0.0,6.7726,6.847,6.918,6.9766,7.0534,7.0996,7.1097,7.1233,7.13,7.13,7.13,7.13,7.13,7.13,7.13,7.13,0.0,0.0,7.13,7.13,7.13,7.13,7.13,7.13,7.13,7.13,7.13,7.13,0.0,0.0,0.0,0.0,0.0,0.0,0.0,0.0,0.0,0.0,4.4608,4.4608,0.0,0.0,0.0,0.0,0.0,0.0,0.0,0.0,0.0,0.0,4.4608,4.4939,4.5696,4.6041,4.6778,4.7913,0.0,4.8605,4.9011,4.9011,4.9011,4.9011,4.9011,4.9187,4.956,4.994,5.0515,5.1225,5.1995,5.2536,5.2909,0.0,0.0,0.0,5.3509,5.3754,5.4194,5.493,5.5674,5.6316,5.6697,5.7306,5.7891,5.7891,5.7891,5.7891,5.7891,5.7891,5.7891,5.7891,5.7891,5.7891,5.7891,5.7891,5.7891,5.7891,5.7891,5.7891,5.7891,5.822,5.8583,5.8955,5.9969,6.0858,6.1264,6.1941,6.2661,6.3419,6.4164,6.4884,6.5639,6.6373,6.6971,0.0,0.0,0.0,6.7929,6.9022,6.9992,7.0737,7.1131,7.13,7.13,7.13,7.13,7.13,7.13,7.13,7.13,7.13,7.13,7.13,0.0,0.0,7.13,7.13,7.13,7.13,7.13,7.13,7.13,7.13,7.13,7.13,0.0,0.0,0.0,0.0,0.0,0.0,0.0,4.4608,4.4608,4.4608,4.4608,4.4608,4.4608,4.4608,0.0,0.0,0.0,0.0,0.0,0.0,0.0,0.0,0.0,0.0,4.5466,0.0,0.0,4.7447,4.7752,0.0,0.0,0.0,0.0,0.0,4.9011,4.9011,4.9052,4.9627,4.9973,0.0,0.0,5.2164,0.0,0.0,0.0,0.0,0.0,5.3957,5.471,5.5437,5.6181,5.6833,5.7002,5.7442,5.7891,5.7891,5.7891,5.7891,5.7891,5.7891,5.7891,5.7891,5.7891,5.7891,5.7891,5.7891,5.7891,5.7891,5.7891,5.7891,5.7891,5.849,5.9047,5.9225,6.0409,6.1366,6.1501,6.2018,6.2719,6.3622,6.4231,6.4952,6.5842,6.6474,0.0,0.0,0.0,0.0,6.8639,6.9789,7.0703,7.13,7.13,7.13,7.13,7.13,7.13,7.13,7.13,7.13,7.13,7.13,7.13,7.13,0.0,0.0,0.0,7.13,7.13,7.13,7.13,7.13,7.13,7.13,7.13,7.13,0.0,0.0,0.0,0.0,0.0,0.0,0.0,4.4608,4.4608,4.4608,4.4608,4.4608,4.4608,4.4608,0.0,0.0,0.0,0.0,0.0,0.0,0.0,0.0,0.0,0.0,0.0,0.0,0.0,4.5899,4.7244,0.0,0.0,0.0,0.0,0.0,0.0,4.9011,4.9011,4.9078,0.0,0.0,0.0,0.0,0.0,0.0,0.0,0.0,0.0,5.3957,5.471,5.5437,5.6181,5.6934,5.7586,5.7857,5.7891,5.7891,5.7891,5.7891,5.7891,5.7891,5.7891,5.7891,5.7891,5.7891,5.7891,5.7891,5.7891,5.7891,5.7891,5.7891,5.7891,5.849,5.9225,5.9902,6.0723,6.1535,6.2188,6.2357,6.2932,6.4343,6.4546,6.5144,6.6565,6.6768,6.7106,0.0,0.0,0.0,0.0,7.1131,7.1233,7.13,7.13,7.13,7.13,7.13,7.13,7.13,7.13,7.13,7.13,7.13,7.13,7.13,0.0,0.0,0.0,7.13,7.13,7.13,7.13,7.13,7.13,7.13,7.13,7.13,0.0,0.0,0.0,0.0,0.0,0.0,0.0,4.4608,4.4608,4.4608,4.4608,4.4608,4.4608,4.4608,4.4608,0.0,0.0,0.0,0.0,0.0,0.0,0.0,0.0,0.0,0.0,0.0,4.527,4.5696,4.6305,0.0,0.0,0.0,0.0,0.0,0.0,4.9011,4.9011,4.9011,0.0,0.0,0.0,0.0,0.0,0.0,0.0,0.0,0.0,0.0,5.5302,5.5597,5.6486,5.7518,5.7823,5.7891,5.7891,5.7891,5.7891,5.7891,5.7891,5.7891,5.7891,5.7891,5.7891,5.7891,5.7891,5.7891,5.7891,5.7891,5.7891,5.7891,5.7891,5.8863,5.9776,6.0047,6.1163,6.2042,6.2357,6.2787,6.3419,6.4478,6.4996,6.5662,6.67,0.0,6.7963,0.0,0.0,0.0,0.0,7.13,7.13,7.13,7.13,7.13,7.13,7.13,7.13,7.13,7.13,7.13,7.13,7.13,7.13,0.0,0.0,0.0,0.0,7.13,7.13,7.13,7.13,7.13,7.13,7.13,7.13,7.13,0.0,0.0,0.0,0.0,0.0,0.0,4.4608,4.4608,4.4608,4.4608,4.4608,4.4608,4.4608,4.4608,4.4608,4.4608,0.0,0.0,0.0,0.0,0.0,0.0,0.0,0.0,0.0,0.0,4.4838,4.5365,4.5594,4.6338,0.0,0.0,4.8293,4.9011,0.0,0.0,0.0,0.0,0.0,0.0,0.0,0.0,0.0,0.0,0.0,0.0,0.0,0.0,0.0,0.0,0.0,5.7891,5.7891,5.7891,5.7891,5.7891,5.7891,5.7891,5.7891,5.7891,5.7891,5.7891,5.7891,5.7891,5.7891,5.7891,5.7891,5.7891,5.7891,5.7891,5.7891,5.9109,6.0114,6.0114,6.1409,6.2391,6.2391,6.3024,6.3758,6.4512,6.5266,6.5977,6.6734,6.7681,0.0,0.0,0.0,0.0,0.0,7.13,7.13,7.13,7.13,7.13,7.13,7.13,7.13,7.13,7.13,7.13,7.13,7.13,7.13,0.0,0.0,0.0,0.0,7.13,7.13,7.13,7.13,7.13,7.13,7.13,7.13,7.13,0.0,0.0,0.0,0.0,0.0,0.0,0.0,4.4608,4.4608,4.4608,4.4608,4.4608,4.4608,4.4608,4.4608,4.4608,0.0,0.0,0.0,0.0,0.0,0.0,0.0,0.0,0.0,0.0,0.0,4.4608,4.5331,4.6075,4.6827,4.7556,4.8293,4.9011,0.0,0.0,0.0,0.0,0.0,0.0,0.0,0.0,0.0,0.0,0.0,0.0,0.0,0.0,0.0,0.0,0.0,0.0,0.0,5.7891,5.7891,5.7891,5.7891,5.7891,5.7891,5.7891,5.7891,5.7891,5.7891,5.7891,5.7891,5.7891,5.7891,5.7891,5.7891,5.7891,5.7891,5.9109,6.0114,6.0114,6.1409,6.2391,6.2391,6.3024,6.3758,6.4512,6.5266,6.5977,6.6734,6.8199,0.0,0.0,0.0,0.0,0.0,7.13,7.13,7.13,7.13,7.13,7.13,7.13,7.13,7.13,7.13,7.13,7.13,7.13,0.0,0.0,0.0,0.0,0.0,7.13,7.13,7.13,7.13,7.13,7.13,7.13,7.13,7.13,0.0,0.0,0.0,0.0,0.0,0.0,0.0,4.4608,4.4608,4.4608,4.4608,4.4608,4.4608,4.4608,4.4608,4.4608,0.0,0.0,0.0,0.0,0.0,0.0,0.0,0.0,0.0,0.0,0.0,4.4608,4.4838,4.5338,4.6075,4.6786,4.7522,4.8259,4.8774,4.9011,0.0,0.0,0.0,0.0,0.0,0.0,0.0,0.0,0.0,0.0,0.0,0.0,0.0,0.0,0.0,0.0,0.0,0.0,0.0,5.7891,5.7891,5.7891,5.7891,5.7891,5.7891,5.7891,5.7891,5.7891,5.7891,5.7891,5.7891,5.7891,5.7891,5.7891,5.7891,5.9109,6.0114,6.0114,6.1409,6.2391,6.2391,6.3463,6.4333,6.458,6.5696,6.6948,0.0,0.0,0.0,0.0,0.0,0.0,0.0,0.0,7.13,7.13,7.13,7.13,7.13,7.13,7.13,7.13,7.13,7.13,7.13,7.13,0.0,0.0,0.0,0.0,0.0,7.13,7.13,7.13,7.13,7.13,7.13,7.13,7.13,7.1368,0.0,0.0,0.0,0.0,0.0,0.0,0.0,4.4608,4.4608,4.4608,4.4608,4.4608,4.4608,4.4608,4.4608,4.4608,0.0,0.0,0.0,0.0,0.0,0.0,0.0,0.0,0.0,0.0,4.4608,4.4608,4.4608,4.4973,4.573,4.6447,4.7192,4.7913,4.8672,0.0,0.0,0.0,0.0,0.0,0.0,0.0,5.3509,0.0,0.0,0.0,0.0,0.0,0.0,0.0,0.0,0.0,0.0,0.0,0.0,0.0,5.7891,5.7891,5.7891,5.7891,5.7891,5.7891,5.7891,5.7891,5.7891,5.7891,5.7891,5.7891,5.7891,5.7992,5.8254,5.9302,6.0216,6.052,6.1603,6.2391,6.2391,6.3666,6.4816,6.5347,6.6508,0.0,0.0,0.0,0.0,0.0,0.0,0.0,0.0,0.0,7.13,7.13,7.13,7.13,7.13,7.13,7.13,7.13,7.13,7.13,7.13,0.0,0.0,0.0,0.0,0.0,0.0,7.13,7.13,7.13,7.13,7.13,7.1334,7.1605,7.1706,7.1808,0.0,0.0,0.0,0.0,0.0,0.0,0.0,0.0,0.0,0.0,4.4608,4.4608,4.4608,4.4608,4.4608,0.0,0.0,0.0,0.0,0.0,0.0,0.0,0.0,0.0,0.0,4.4608,4.4608,4.4608,4.4608,4.4939,4.5628,4.6413,4.7158,4.7853,4.8638,4.9011,0.0,0.0,0.0,0.0,5.1201,5.2114,0.0,0.0,0.0,0.0,0.0,0.0,0.0,0.0,0.0,0.0,0.0,0.0,0.0,0.0,0.0,0.0,0.0,5.7891,5.7891,5.7891,5.7891,5.7891,5.7891,5.7891,0.0,5.7891,5.7891,5.8127,5.8853,5.9597,6.0351,6.1163,6.1907,6.2424,6.2458,6.3734,6.5222,6.6633,6.7444,0.0,0.0,0.0,0.0,0.0,0.0,0.0,0.0,0.0,0.0,7.13,7.13,7.13,7.13,7.13,7.13,7.13,7.13,7.13,7.13,0.0,0.0,0.0,0.0,0.0,0.0,7.13,7.13,7.13,7.13,7.1334,7.147,7.2157,7.2428,7.2563,0.0,0.0,0.0,0.0,0.0,0.0,0.0,0.0,0.0,0.0,4.4608,4.4608,4.4608,4.4608,0.0,0.0,0.0,0.0,0.0,0.0,0.0,0.0,0.0,0.0,0.0,4.4608,4.4608,4.4608,4.4608,4.4709,4.4871,4.6191,4.6894,4.7124,4.8409,4.9011,4.9011,0.0,0.0,0.0,5.1201,5.2114,0.0,0.0,0.0,0.0,5.4126,5.4938,0.0,0.0,0.0,0.0,0.0,0.0,0.0,0.0,5.7891,5.7891,5.7891,0.0,5.7891,5.7891,5.7891,5.7891,0.0,5.7891,5.7891,5.7891,5.7891,5.8127,5.8853,5.9597,6.0351,6.1163,6.1907,6.2594,6.3149,6.4512,6.5764,6.67,6.7444,6.8233,0.0,0.0,0.0,0.0,0.0,0.0,0.0,0.0,7.13,7.13,7.13,7.13,7.13,7.13,7.13,7.13,7.13,7.13,7.13,0.0,0.0,0.0,0.0,0.0,0.0,7.13,7.13,7.13,7.13,7.1639,7.2157,7.2326,7.2778,7.3353,0.0,0.0,0.0,0.0,0.0,0.0,0.0,0.0,0.0,0.0,0.0,0.0,0.0,0.0,0.0,0.0,0.0,0.0,0.0,0.0,0.0,0.0,0.0,0.0,4.4608,4.4608,4.4608,4.4608,4.4608,4.4608,4.4642,4.6123,4.6793,4.6861,4.8342,4.9011,4.9011,4.9011,4.9856,5.1201,5.1201,0.0,0.0,0.0,0.0,0.0,5.4338,5.5074,0.0,5.6553,5.7273,5.7891,0.0,0.0,0.0,0.0,5.7891,5.7891,5.7891,5.7891,5.7891,5.7891,5.7891,5.7891,5.7891,5.7891,5.7891,5.7891,5.8161,5.8626,5.9361,6.0139,6.0892,6.167,6.2154,6.2797,6.3859,6.4986,6.5977,6.67,6.7783,6.8605,0.0,0.0,0.0,0.0,0.0,0.0,0.0,0.0,7.13,0.0,7.13,7.13,7.13,7.13,7.13,7.13,7.13,7.13,7.13,0.0,0.0,0.0,0.0,0.0,7.13,7.13,7.13,7.1334,7.1672,7.2056,7.2496,7.3172,7.3646,7.4119,0.0,0.0,0.0,0.0,0.0,0.0,0.0,0.0,0.0,0.0,0.0,0.0,0.0,0.0,0.0,0.0,0.0,0.0,0.0,0.0,0.0,0.0,0.0,4.4608,4.4608,4.4608,4.4608,4.4608,4.4608,4.4675,4.4811,4.615,4.6928,4.7199,4.8443,4.9011,4.9018,4.9112,4.9958,5.1201,5.1336,0.0,0.0,0.0,0.0,0.0,0.0,0.0,0.0,5.6722,5.7374,5.7891,5.7891,0.0,0.0,0.0,0.0,0.0,5.7891,5.7891,5.7891,5.7891,5.7891,5.7891,5.7891,5.7891,5.7891,5.7891,5.849,5.9225,5.9969,6.0757,6.1535,6.2289,6.2594,6.3159,6.441,6.5324,6.6112,6.6734,6.8155,0.0,0.0,0.0,0.0,0.0,0.0,0.0,0.0,0.0,0.0,7.13,7.13,7.13,7.13,7.13,7.13,7.13,7.13,7.13,7.13,7.13,0.0,0.0,0.0,0.0,7.13,7.13,7.13,7.1368,7.2124,7.2462,7.2732,7.4108,7.4683,7.4852,0.0,0.0,0.0,0.0,0.0,0.0,0.0,0.0,0.0,0.0,0.0,0.0,0.0,0.0,0.0,0.0,0.0,0.0,0.0,0.0,0.0,0.0,4.4608,4.4608,4.4608,4.4608,4.4608,4.4608,4.4608,4.4905,4.5534,4.6387,4.747,4.8672,4.8917,4.9011,4.9052,4.9669,5.0405,5.1235,5.1886,0.0,0.0,0.0,0.0,0.0,0.0,0.0,0.0,5.7485,5.7823,5.7891,5.7891,0.0,0.0,0.0,0.0,0.0,5.7891,5.7891,5.7891,5.7891,5.7891,5.7891,5.7891,5.7891,5.7891,5.7891,5.849,5.9225,5.9969,6.0757,6.1535,6.2289,6.3439,6.4343,0.0,0.0,6.6667,6.6802,0.0,0.0,0.0,0.0,0.0,0.0,0.0,0.0,0.0,0.0,0.0,7.13,7.13,7.13,7.13,7.13,7.13,7.13,7.13,7.13,7.13,7.13,7.13,0.0,0.0,0.0,7.13,7.13,7.13,7.1368,7.2124,7.2766,7.3421,7.4289,7.4987,7.554,0.0,0.0,0.0,0.0,0.0,0.0,0.0,0.0,0.0,0.0,0.0,0.0,0.0,0.0,0.0,0.0,0.0,0.0,0.0,0.0,0.0,4.4608,4.4608,4.4608,4.4608,4.4608,4.4608,4.4608,4.5007,4.5365,4.573,4.6846,4.7962,4.9011,4.9011,4.9221,4.9627,4.9973,5.0744,5.1818,0.0,0.0,0.0,0.0,0.0,0.0,0.0,0.0,0.0,0.0,5.7891,5.7891,5.7891,0.0,0.0,0.0,0.0,0.0,5.7891,5.7891,5.7891,5.7891,5.7891,5.7891,5.7891,5.822,5.8481,5.8481,5.9438,6.0341,6.0689,6.1366,6.2144,6.2878,0.0,6.4749,6.5131,6.6125,6.6802,0.0,0.0,0.0,0.0,0.0,0.0,0.0,0.0,0.0,0.0,0.0,0.0,0.0,7.13,7.13,7.13,7.13,7.13,7.13,7.13,7.13,7.13,7.13,7.13,0.0,0.0,7.13,7.13,7.13,7.13,7.1402,7.2563,7.3218,7.3624,7.4762,7.5405,7.5709,0.0,0.0,0.0,0.0,0.0,0.0,0.0,0.0,0.0,0.0,0.0,0.0,0.0,0.0,0.0,0.0,0.0,0.0,0.0,0.0,4.4608,4.4608,4.4608,4.4608,4.4608,4.4608,4.4608,4.4608,4.5331,4.5865,4.6237,4.7549,4.8469,4.9018,4.9187,4.9567,5.0109,5.0481,5.1259,5.2334,0.0,0.0,0.0,0.0,0.0,0.0,0.0,0.0,0.0,0.0,0.0,0.0,0.0,0.0,0.0,5.7891,5.7891,5.7891,5.7891,5.7891,5.7891,5.7891,5.7891,5.7958,5.8127,5.8583,5.9047,5.9225,6.0341,6.1298,6.1298,6.1907,6.2627,6.3386,6.413,6.485,6.5605,0.0,0.0,0.0,0.0,0.0,0.0,0.0,0.0,0.0,0.0,0.0,0.0,0.0,0.0,0.0,7.13,7.13,7.13,7.13,7.13,7.13,7.13,7.13,7.13,7.13,7.13,7.13,7.13,7.13,7.13,7.13,7.1402,7.1672,7.2981,7.3691,7.4165,7.527,7.5709,7.5709,0.0,0.0,0.0,0.0,0.0,0.0,0.0,0.0,0.0,0.0,0.0,0.0,0.0,0.0,0.0,0.0,0.0,0.0,0.0,0.0,4.4608,4.4608,4.4608,4.4608,4.4608,4.4608,4.4608,4.4608,4.5331,4.6406,4.7744,4.8537,4.8951,4.9044,4.9737,5.0041,5.0176,5.1555,5.2198,5.2367,5.3112,0.0,0.0,0.0,0.0,0.0,0.0,0.0,0.0,0.0,0.0,0.0,0.0,0.0,5.7891,5.7891,5.7891,5.7891,5.7891,5.7891,5.7891,5.7891,5.7891,5.8094,5.8752,5.8945,5.9182,5.9877,6.0689,6.1298,6.1298,6.1907,6.2627,6.3386,6.413,6.485,0.0,0.0,0.0,0.0,0.0,0.0,0.0,0.0,0.0,0.0,0.0,0.0,0.0,0.0,0.0,0.0,0.0,7.13,7.13,7.13,7.13,7.13,7.13,7.13,7.13,7.13,7.13,7.13,7.13,7.13,7.13,7.13,7.1706,7.2394,7.3184,7.4334,7.554,7.5676,7.5709,7.5709,0.0,0.0,0.0,0.0,0.0,0.0,0.0,0.0,0.0,0.0,0.0,0.0,0.0,0.0,0.0,0.0,0.0,0.0,0.0,0.0,4.4608,4.4608,4.4608,4.4804,4.5263,4.5263,4.5263,4.5263,4.6474,4.7582,4.8597,4.8875,4.9255,4.9703,4.9973,5.0616,5.1488,5.2063,5.2604,5.3069,5.3374,5.3788,0.0,0.0,0.0,0.0,0.0,0.0,0.0,0.0,5.7891,5.7891,5.7891,5.7891,5.7891,5.7891,5.7891,5.7891,5.7891,5.7891,5.8026,5.8457,5.8583,5.865,5.8955,5.9361,5.9902,6.0689,6.1467,6.1985,6.1985,6.2584,6.3318,6.4062,6.4783,6.5527,0.0,0.0,0.0,0.0,0.0,0.0,0.0,0.0,0.0,0.0,0.0,0.0,0.0,0.0,0.0,0.0,0.0,7.13,7.13,7.13,7.13,7.13,7.13,7.13,7.13,7.13,7.13,7.13,7.13,7.13,7.13,7.13,7.174,7.2529,7.3713,7.4796,7.5709,7.5709,7.5709,7.5709,0.0,0.0,0.0,0.0,0.0,0.0,0.0,0.0,0.0,0.0,0.0,0.0,0.0,0.0,0.0,0.0,0.0,0.0,0.0,4.4608,4.4608,4.4608,4.4804,4.5169,4.5696,4.6169,4.6271,4.6041,4.7278,4.8293,4.9018,4.9255,4.9627,5.0109,5.0582,5.1361,5.2334,5.257,5.3002,5.3509,5.3754,5.4169,0.0,0.0,0.0,0.0,0.0,0.0,0.0,0.0,5.7891,5.7891,5.7891,5.7891,5.7891,5.7891,5.7891,5.7891,5.7891,5.806,5.8355,5.8887,5.9182,5.9428,5.9665,6.0114,6.0689,6.1501,6.2052,6.2391,6.2391,6.299,0.0,0.0,0.0,0.0,0.0,0.0,0.0,0.0,0.0,0.0,0.0,0.0,0.0,0.0,0.0,0.0,0.0,0.0,0.0,0.0,0.0,0.0,7.13,7.13,7.13,7.13,7.13,7.13,7.13,7.13,7.13,7.13,7.13,7.13,7.13,7.13,7.1875,7.2902,7.439,7.527,7.5709,7.5709,7.5709,7.5709,0.0,0.0,0.0,0.0,0.0,0.0,0.0,0.0,0.0,0.0,0.0,0.0,0.0,0.0,0.0,0.0,0.0,0.0,4.4608,4.4608,4.4608,4.4608,4.5304,4.5696,4.573,4.7143,4.7549,4.6827,4.7549,4.8293,4.9018,4.977,5.0117,5.0176,5.1665,5.23,5.2359,5.3179,5.3509,5.3577,5.4304,5.4609,5.4778,0.0,0.0,0.0,0.0,0.0,0.0,0.0,5.7891,5.7891,5.7891,5.7891,5.7891,5.7891,5.7891,5.7891,5.7924,5.8457,5.9013,5.9013,5.9564,6.0317,6.1129,6.1298,6.1501,6.2255,6.2391,6.2391,6.2424,6.3024,0.0,0.0,0.0,0.0,0.0,0.0,0.0,0.0,0.0,0.0,0.0,0.0,0.0,0.0,0.0,0.0,0.0,0.0,0.0,0.0,0.0,0.0,7.13,7.13,7.13,7.13,7.13,7.13,7.13,7.13,7.13,7.13,7.13,7.13,7.13,7.1334,7.2191,7.3657,7.51,7.5709,7.5709,7.5709,7.5709,7.5709,0.0,0.0,0.0,0.0,0.0,0.0,0.0,0.0,0.0,0.0,0.0,0.0,0.0,0.0,0.0,0.0,0.0,0.0,4.4608,4.4608,4.4838,4.5365,4.5594,4.6203,4.721,4.8199,4.8578,4.8342,4.8578,4.9044,4.977,5.0015,5.065,5.1657,5.2097,5.2604,5.3179,5.3416,5.3788,5.4304,5.4507,5.5218,5.619,0.0,0.0,0.0,0.0,0.0,0.0,0.0,0.0,0.0,5.7891,5.7891,5.7891,5.7891,5.7891,5.8026,5.8524,5.8819,5.925,6.0341,6.0791,6.1129,6.1907,6.167,6.1501,6.2255,6.2391,6.256,6.3091,0.0,0.0,0.0,0.0,0.0,0.0,0.0,0.0,0.0,0.0,0.0,0.0,0.0,0.0,0.0,0.0,0.0,0.0,0.0,0.0,0.0,0.0,0.0,7.13,7.13,7.13,7.13,7.13,7.13,7.13,7.13,7.13,7.13,7.13,7.13,7.1368,7.2428,7.3116,7.3657,7.51,7.5709,7.5709,7.5709,7.5709,7.5709,0.0,0.0,0.0,0.0,0.0,0.0,0.0,0.0,0.0,0.0,4.5353,4.5261,0.0,0.0,0.0,0.0,0.0,0.0,0.0,0.0,4.5372,4.6109,4.6406,4.7143,4.8293,4.8774,4.9146,4.9424,4.9424,4.9669,5.0109,5.0684,5.1454,5.23,5.2638,5.3036,5.3509,5.3822,5.4194,5.4642,5.5252,5.6021,5.6833,0.0,0.0,0.0,0.0,0.0,0.0,0.0,0.0,0.0,5.7891,5.7891,5.7891,5.7891,5.7891,5.806,5.8786,5.9216,5.9733,6.0994,6.1535,6.1839,6.2289,6.2052,6.1873,6.2323,6.2618,6.2956,6.3419,6.4333,0.0,0.0,0.0,0.0,0.0,0.0,0.0,0.0,0.0,0.0,0.0,0.0,0.0,0.0,0.0,0.0,0.0,0.0,0.0,0.0,0.0,0.0,7.13,7.13,7.13,7.13,7.13,7.13,7.13,7.13,7.13,7.13,7.13,7.13,7.1402,7.2563,7.3251,7.3624,7.4796,7.5439,7.5709,7.5709,7.5709,7.5709,0.0,0.0,0.0,0.0,0.0,0.0,0.0,0.0,0.0,0.0,4.5169,4.5261,0.0,0.0,0.0,0.0,0.0,0.0,0.0,0.0,4.6143,4.6861,4.7624,4.8326,4.8984,4.9078,4.9424,5.0109,5.0109,5.0176,5.0346,5.1657,5.2334,5.2435,5.3239,5.3585,5.3653,5.4406,5.4744,5.4913,5.6258,5.6833,5.6968,5.7654,0.0,0.0,0.0,0.0,0.0,0.0,0.0,0.0,5.7891,5.7891,5.7924,5.7992,5.7992,5.8195,5.8989,5.9699,6.0385,6.1197,6.1907,6.2391,6.2391,6.2391,6.2391,6.2391,6.299,6.3511,6.3579,6.4749,0.0,0.0,0.0,0.0,0.0,0.0,0.0,0.0,0.0,0.0,0.0,0.0,0.0,0.0,0.0,0.0,0.0,0.0,0.0,0.0,0.0,0.0,7.13,7.13,7.13,0.0,7.13,7.13,7.13,7.13,7.13,7.13,7.13,7.13,7.1368,7.209,7.2834,7.3556,7.4311,7.5055,7.5709,7.5709,7.5709,7.5709,0.0,0.0,0.0,0.0,0.0,0.0,0.0,0.0,0.0,0.0,0.0,0.0,0.0,0.0,0.0,0.0,0.0,0.0,0.0,0.0,4.6887,4.7616,4.8368,4.8841,4.9011,4.9567,4.994,5.0109,5.0109,5.0684,5.1826,5.2164,5.2638,5.3272,5.4025,5.4372,5.4406,5.5133,5.5809,5.6359,5.6664,5.7137,5.7688,5.7823,5.7891,0.0,0.0,0.0,0.0,0.0,0.0,0.0,5.7891,5.7891,5.8026,5.8583,5.8752,5.9056,6.0443,6.0926,6.1231,6.1985,6.2289,6.2391,6.2391,6.2391,6.2391,6.2391,6.299,6.369,6.4275,0.0,0.0,0.0,0.0,0.0,0.0,0.0,0.0,0.0,0.0,0.0,0.0,0.0,0.0,0.0,0.0,0.0,0.0,0.0,0.0,0.0,0.0,7.13,7.13,7.13,7.13,0.0,7.13,7.13,7.13,7.13,7.13,7.13,7.13,7.13,7.1368,7.209,7.2834,7.3556,7.4311,7.5055,7.5709,7.5709,7.5709,7.5709,0.0,0.0,0.0,0.0,0.0,0.0,0.0,0.0,0.0,0.0,0.0,0.0,0.0,0.0,0.0,0.0,0.0,0.0,0.0,0.0,0.0,4.8394,4.912,4.9526,4.9526,5.0236,5.0811,5.1158,5.1158,5.1564,5.23,5.2706,5.3281,5.4025,5.4439,5.4812,5.5175,5.5911,5.6452,5.6833,5.7171,5.7552,5.7891,5.7891,5.7891,5.7891,5.7891,0.0,0.0,0.0,0.0,0.0,0.0,0.0,5.849,5.8887,5.9259,5.98,6.0984,6.1298,6.1467,6.2221,6.2391,6.2391,6.2391,6.2391,6.2492,6.2854,6.3521,6.4231,6.4996,0.0,0.0,0.0,0.0,0.0,0.0,0.0,0.0,0.0,0.0,0.0,0.0,0.0,0.0,0.0,0.0,0.0,0.0,0.0,0.0,0.0,7.13,7.13,7.13,7.13,7.13,7.13,7.13,7.13,7.13,7.13,7.13,7.13,7.13,7.13,7.1334,7.1706,7.2529,7.3522,7.3916,7.4728,7.5709,7.5709,7.5709,7.5709,0.0,0.0,0.0,0.0,0.0,0.0,0.0,0.0,0.0,0.0,0.0,0.0,0.0,0.0,0.0,0.0,0.0,0.0,0.0,0.0,0.0,4.9154,4.9906,5.0278,5.0278,5.1006,5.1683,5.23,5.2435,5.257,5.2706,5.3382,5.4025,5.4609,5.4879,5.531,5.5936,5.6697,5.7002,5.7036,5.7654,5.7891,5.7891,5.7891,5.7891,5.7891,5.7891,5.7891,5.7891,5.7891,0.0,0.0,0.0,0.0,5.9047,5.9327,5.9834,6.0486,6.1264,6.1501,6.1637,6.2255,6.2391,6.2391,6.2391,6.2492,6.2787,6.3555,6.4164,6.4816,6.5571,0.0,0.0,0.0,0.0,0.0,0.0,0.0,0.0,0.0,0.0,0.0,0.0,0.0,0.0,0.0,0.0,0.0,0.0,0.0,7.13,7.13,7.13,7.13,7.13,7.13,7.13,7.13,7.13,7.13,7.13,7.13,7.13,7.13,7.13,7.13,7.13,7.13,7.2157,7.3488,7.3488,7.4402,7.5709,7.5709,7.5709,7.5709,0.0,0.0,0.0,0.0,0.0,0.0,0.0,0.0,0.0,0.0,4.4608,0.0,0.0,0.0,0.0,0.0,0.0,0.0,4.7879,0.0,0.0,4.994,5.0668,5.1066,5.1066,5.1784,5.219,5.23,5.3002,5.3653,5.4304,5.4406,5.4507,5.4642,5.5953,5.6562,5.6689,5.7451,5.7755,5.7755,5.7857,5.7891,5.7891,5.7891,0.0,5.7891,5.7891,5.7891,5.7891,5.7891,5.7891,0.0,0.0,0.0,5.925,6.0612,6.1061,6.1298,6.2052,6.2255,6.2289,6.2391,6.2391,6.2391,6.2391,6.2888,6.3555,6.4299,6.4546,6.4816,0.0,0.0,0.0,0.0,0.0,0.0,0.0,0.0,0.0,0.0,0.0,0.0,0.0,0.0,0.0,0.0,0.0,0.0,0.0,7.13,7.13,7.13,7.13,7.13,7.13,7.13,7.13,7.13,7.13,7.13,7.13,7.13,7.13,7.13,7.13,7.13,7.13,7.13,7.2157,7.3488,7.3488,7.4402,7.5709,7.5709,7.5709,7.5709,0.0,0.0,0.0,0.0,0.0,0.0,0.0,0.0,0.0,0.0,0.0,4.5331,0.0,0.0,0.0,4.7387,4.8097,4.8706,4.912,5.0135,5.071,5.071,5.1412,5.1818,5.1818,5.2562,5.2976,5.2976,5.3721,5.4262,0.0,5.5455,5.5818,0.0,0.0,5.7036,5.7451,5.7755,5.7891,5.7891,5.7891,5.7891,5.7891,0.0,0.0,0.0,0.0,0.0,0.0,5.7891,5.8161,5.8583,5.8887,0.0,0.0,0.0,6.1603,6.1985,6.2323,6.2391,6.2391,6.2391,6.2391,6.2391,6.2391,6.2956,6.3724,6.4444,6.4918,6.5425,0.0,0.0,0.0,0.0,0.0,0.0,0.0,0.0,0.0,0.0,0.0,0.0,0.0,0.0,0.0,0.0,0.0,0.0,7.13,7.13,7.13,7.13,7.13,0.0,7.13,7.13,7.13,7.13,7.13,7.13,7.13,7.13,7.13,7.13,7.13,7.13,7.13,7.13,7.2157,7.3488,7.3488,7.4402,7.5709,7.5709,7.5709,7.5709,0.0,0.0,0.0,0.0,0.0,0.0,0.0,0.0,0.0,0.0,0.0,0.0,0.0,0.0,0.0,0.0,4.8841,4.9593,5.0338,5.1074,5.148,5.148,5.219,5.2596,5.2596,5.3171,5.3577,5.3788,5.4338,5.4778,5.5184,5.6292,5.69,0.0,5.707,5.7383,0.0,0.0,0.0,5.7891,5.7891,0.0,0.0,0.0,0.0,0.0,0.0,0.0,0.0,0.0,0.0,0.0,0.0,6.0375,0.0,0.0,0.0,6.2391,6.2391,6.2391,6.2391,6.2391,6.2391,6.2391,6.2391,6.3125,6.3927,6.4478,6.5334,6.6136,0.0,0.0,0.0,0.0,0.0,0.0,0.0,0.0,0.0,0.0,0.0,0.0,0.0,0.0,0.0,0.0,0.0,0.0,7.13,7.13,7.13,7.13,7.13,7.13,7.13,7.13,7.13,7.13,7.13,7.13,7.13,7.13,7.13,7.13,7.13,7.13,7.13,7.13,7.2157,7.3488,7.3488,7.4402,7.5709,7.5709,7.5709,7.5709,0.0,0.0,0.0,0.0,0.0,0.0,0.0,0.0,0.0,0.0,0.0,0.0,0.0,4.7845,4.8191,4.8875,4.9627,5.0371,5.11,5.1818,5.2232,5.2232,5.3002,0.0,5.345,5.3475,5.3856,5.4541,5.4575,5.5319,5.6697,5.6765,5.7171,5.7823,5.7823,5.7857,5.7891,0.0,0.0,0.0,0.0,0.0,0.0,0.0,0.0,0.0,0.0,0.0,0.0,0.0,0.0,0.0,0.0,0.0,6.1434,0.0,0.0,0.0,6.2391,6.2391,6.2391,6.2391,6.2391,6.2391,6.2391,6.3497,6.4546,6.458,6.5719,6.6768,0.0,0.0,0.0,0.0,0.0,0.0,0.0,0.0,0.0,0.0,0.0,0.0,0.0,0.0,0.0,0.0,0.0,0.0,7.13,7.13,7.13,7.13,7.13,7.13,7.13,7.13,7.13,7.13,7.13,7.13,7.13,7.13,7.13,7.13,7.13,7.13,7.13,7.13,7.2157,7.3488,7.3488,7.4402,7.5709,7.5709,7.5709,7.5709,0.0,0.0,0.0,0.0,0.0,0.0,0.0,0.0,0.0,0.0,0.0,0.0,0.0,4.874,4.9424,4.9669,5.0811,5.1623,5.1886,5.2638,5.3069,5.3069,5.3348,5.3721,5.4203,5.4194,5.4566,5.5302,5.5784,5.6292,5.679,5.7282,5.7654,5.7891,5.7891,5.7891,5.7891,5.7891,0.0,0.0,0.0,0.0,0.0,0.0,0.0,0.0,0.0,0.0,0.0,0.0,0.0,0.0,0.0,0.0,0.0,6.2323,6.2391,6.2391,6.2391,6.2391,6.2391,6.2391,6.2391,6.2526,6.299,6.3869,6.4715,6.5199,6.6102,6.6802,6.6802,0.0,0.0,0.0,0.0,0.0,0.0,0.0,0.0,0.0,0.0,0.0,0.0,0.0,0.0,0.0,0.0,0.0,7.13,7.13,7.13,7.13,7.13,7.13,7.13,7.13,7.13,7.13,7.13,7.13,7.13,7.13,7.13,7.13,7.13,7.13,7.13,7.13,7.2157,7.3488,7.3488,7.4402,7.5709,7.5709,7.5709,7.5709,0.0,0.0,0.0,0.0,0.0,0.0,0.0,0.0,0.0,0.0,0.0,0.0,0.0,0.0,5.0312,5.0785,5.1725,5.2393,5.2706,5.3416,5.3856,5.3856,5.4126,5.4456,5.4972,5.4972,5.5344,5.608,5.6553,5.6934,5.7171,5.7654,5.7891,5.7891,5.7891,5.7891,0.0,0.0,0.0,5.7891,0.0,0.0,5.7924,0.0,0.0,0.0,0.0,0.0,0.0,0.0,0.0,0.0,0.0,0.0,0.0,0.0,6.2391,6.2391,6.2391,6.2391,6.2391,6.2391,6.2594,6.2888,6.3386,6.4265,6.5121,6.5605,6.6305,6.6802,6.6802,0.0,0.0,0.0,0.0,0.0,0.0,0.0,0.0,0.0,0.0,0.0,0.0,0.0,0.0,0.0,0.0,0.0,7.13,7.13,7.13,7.13,7.13,7.13,7.13,7.13,7.13,7.13,7.13,7.13,7.13,7.13,7.13,7.13,7.13,7.13,7.13,7.13,7.2157,7.3488,7.3488,7.4402,7.5709,7.5709,7.5709,7.5709,0.0,0.0,0.0,0.0,0.0,0.0,0.0,0.0,0.0,0.0,0.0,0.0,0.0,0.0,0.0,5.2198,5.2367,5.2706,5.3475,5.4228,5.4642,5.4642,5.5336,5.5699,5.5733,0.0,0.0,0.0,0.0,5.7205,5.7891,5.7891,5.7891,5.7891,5.7891,5.7891,5.7891,0.0,5.7891,5.7891,0.0,5.7924,5.8026,0.0,0.0,0.0,5.9868,6.0655,0.0,0.0,0.0,0.0,0.0,0.0,0.0,0.0,0.0,0.0,0.0,0.0,0.0,6.2424,6.2956,6.3511,6.3545,6.4681,6.5717,6.574,6.6305,6.6802,6.6802,6.6802,0.0,0.0,0.0,0.0,0.0,0.0,0.0,0.0,0.0,0.0,0.0,0.0,0.0,0.0,0.0,7.13,7.13,7.13,7.13,7.13,7.13,7.13,7.13,7.13,7.13,7.13,7.13,7.13,7.13,7.13,7.13,7.13,7.13,7.13,7.13,7.13,7.2157,7.3488,7.3488,7.4402,7.5709,7.5709,7.5709,7.5709,0.0,0.0,0.0,0.0,0.0,0.0,0.0,0.0,0.0,0.0,0.0,0.0,0.0,0.0,0.0,5.3069,5.3661,5.4067,5.4262,5.4997,5.5403,5.5403,5.5597,5.5936,5.6486,0.0,0.0,0.0,0.0,0.0,0.0,0.0,0.0,0.0,5.7891,5.7891,5.7891,5.7891,0.0,5.7958,5.849,5.8684,0.0,0.0,0.0,0.0,0.0,6.1129,0.0,0.0,6.2221,6.2391,0.0,0.0,0.0,0.0,0.0,0.0,6.2391,0.0,0.0,0.0,0.0,0.0,6.485,6.5402,6.5842,6.6406,6.6667,6.6802,6.6802,6.6802,6.6802,0.0,0.0,0.0,0.0,0.0,0.0,0.0,0.0,0.0,0.0,0.0,0.0,0.0,7.0996,7.13,7.13,7.13,7.13,7.13,7.13,7.13,7.13,7.13,7.13,7.13,7.13,7.13,7.13,7.13,7.13,7.13,7.13,7.13,7.13,7.13,7.2157,7.3488,7.3488,7.4402,7.5709,7.5709,7.5709,7.5709,0.0,0.0,0.0,0.0,0.0,0.0,0.0,0.0,0.0,0.0,0.0,0.0,0.0,0.0,0.0,0.0,5.4634,5.5074,5.5074,5.5741,5.6147,5.6147,5.6452,5.6833,5.7239,0.0,0.0,0.0,0.0,0.0,0.0,0.0,0.0,0.0,0.0,5.7891,0.0,0.0,0.0,0.0,5.8819,0.0,0.0,6.0317,6.0588,0.0,0.0,0.0,6.1806,6.2255,6.2391,0.0,0.0,0.0,0.0,0.0,0.0,0.0,0.0,0.0,0.0,6.3318,0.0,0.0,6.5436,6.5943,6.6271,0.0,6.6802,6.6802,6.6802,6.6802,6.6802,6.6802,0.0,0.0,0.0,0.0,0.0,0.0,0.0,0.0,0.0,0.0,0.0,0.0,7.0601,7.0973,7.13,7.13,7.13,7.13,7.13,7.13,7.13,7.13,7.13,7.13,7.13,7.13,7.13,7.13,7.13,7.13,7.13,7.13,7.13,7.13,7.2157,7.3488,7.3488,7.4402,7.5709,7.5709,7.5709,7.5709,0.0,0.0,0.0,0.0,0.0,0.0,0.0,0.0,0.0,0.0,0.0,0.0,0.0,0.0,0.0,0.0,5.5403,5.5834,5.5834,5.6519,0.0,0.0,5.7552,5.7891,5.7891,0.0,0.0,0.0,0.0,0.0,0.0,0.0,0.0,0.0,0.0,0.0,0.0,0.0,0.0,5.9259,5.9259,5.9665,0.0,0.0,6.1434,0.0,6.2154,6.2391,6.2391,6.2391,6.2391,0.0,0.0,0.0,0.0,0.0,6.2391,0.0,0.0,0.0,0.0,0.0,0.0,0.0,6.5639,6.6339,6.6802,0.0,6.6802,6.6802,6.6802,6.6802,6.6802,6.6802,6.6802,0.0,0.0,0.0,0.0,0.0,0.0,0.0,0.0,6.7861,6.847,6.9834,7.0105,7.0511,7.1267,7.13,7.13,7.13,7.13,7.13,7.13,7.13,7.13,7.13,7.13,7.13,7.13,7.13,7.13,7.13,7.13,7.13,7.13,7.13,7.2157,7.3488,7.3488,7.4402,7.5709,7.5709,7.5709,7.5709,4.977,0.0,0.0,0.0,0.0,0.0,0.0,0.0,0.0,0.0,0.0,0.0,0.0,0.0,0.0,0.0,0.0,5.6596,5.6596,0.0,5.7688,5.7688,5.7823,5.7891,5.7891,5.7891,0.0,0.0,0.0,0.0,0.0,0.0,0.0,0.0,0.0,0.0,0.0,0.0,0.0,6.0849,6.0849,0.0,6.1163,6.1917,6.2188,6.2188,6.2357,6.2391,6.2391,0.0,6.2391,6.2391,0.0,0.0,0.0,0.0,0.0,0.0,0.0,0.0,0.0,0.0,0.0,0.0,6.643,6.67,6.6802,6.6802,6.6802,6.6802,6.6802,6.6802,6.6802,6.6802,6.6802,0.0,0.0,0.0,0.0,0.0,0.0,0.0,0.0,6.7557,6.803,6.8335,6.9496,7.0511,7.1267,7.13,7.13,7.13,7.13,7.13,7.13,7.13,7.13,7.13,7.13,7.13,7.13,7.13,7.13,7.13,7.13,7.13,7.13,7.13,7.2157,7.3488,7.3488,7.4402,7.5709,7.5709,7.5709,7.5709,5.0574,0.0,0.0,0.0,0.0,0.0,0.0,0.0,0.0,0.0,0.0,0.0,0.0,0.0,0.0,0.0,0.0,0.0,0.0,0.0,0.0,5.7891,5.7891,5.7891,5.7891,5.7891,5.7891,0.0,0.0,0.0,0.0,0.0,0.0,0.0,0.0,0.0,0.0,0.0,6.0578,6.1298,6.1298,0.0,6.1883,6.2255,6.2391,6.2391,6.2391,6.2391,6.2391,6.2391,6.2651,0.0,0.0,6.3193,6.3507,0.0,6.3507,6.3565,0.0,0.0,0.0,6.5436,0.0,0.0,0.0,6.6802,6.6802,6.6802,6.6802,6.6802,6.6802,6.6802,6.6802,6.6802,6.6802,6.6802,0.0,0.0,0.0,0.0,0.0,0.0,0.0,6.714,6.7489,6.7861,6.9327,7.0375,7.0737,7.1097,7.13,7.13,7.13,7.13,7.13,7.13,7.13,7.13,7.13,7.13,7.13,7.13,7.13,7.13,7.13,7.13,7.13,7.13,7.2157,7.3488,7.3488,7.4402,7.5709,7.5709,7.5709,7.5709,5.1438,0.0,0.0,0.0,0.0,0.0,0.0,0.0,0.0,0.0,0.0,0.0,0.0,0.0,0.0,0.0,0.0,0.0,0.0,0.0,0.0,0.0,5.7891,5.7891,5.7891,5.7891,5.7891,5.7891,0.0,0.0,0.0,0.0,0.0,0.0,0.0,0.0,5.952,0.0,0.0,6.1501,0.0,6.1873,6.2391,6.2391,6.2391,6.2391,6.2391,6.2391,6.2424,6.256,0.0,6.3511,6.3656,6.413,0.0,0.0,0.0,0.0,0.0,0.0,0.0,0.0,0.0,6.6079,0.0,0.0,0.0,6.6802,6.6802,6.6802,6.6802,6.6802,0.0,0.0,0.0,0.0,0.0,0.0,0.0,0.0,0.0,0.0,0.0,6.6802,6.7106,6.7827,6.9191,7.0037,7.0206,7.0894,7.13,7.13,7.13,7.13,7.13,7.13,7.13,7.13,7.13,7.13,7.13,7.13,7.13,7.13,7.13,7.13,7.13,7.13,7.2157,7.3488,7.3488,7.4402,7.5686,7.54,7.5472,7.5674,5.2334,5.2198,0.0,0.0,0.0,0.0,0.0,0.0,0.0,0.0,0.0,0.0,0.0,0.0,0.0,0.0,0.0,0.0,5.7891,0.0,0.0,0.0,5.7891,0.0,5.7891,5.7891,5.7891,5.7891,0.0,0.0,0.0,0.0,0.0,0.0,5.9945,0.0,0.0,0.0,6.167,0.0,6.2289,6.2323,0.0,6.2391,6.2391,6.2391,6.2391,6.2391,6.2492,0.0,6.3443,6.3612,0.0,6.4546,6.4613,0.0,0.0,0.0,0.0,0.0,0.0,0.0,6.6667,0.0,0.0,0.0,6.6802,6.6802,0.0,0.0,6.6802,0.0,0.0,0.0,0.0,0.0,6.5909,6.6406,0.0,0.0,0.0,0.0,0.0,0.0,6.7106,6.7827,6.8707,6.9519,7.0172,7.0894,7.13,7.13,7.13,7.13,7.13,7.13,7.13,7.13,7.13,7.13,7.13,7.13,7.13,7.13,7.13,7.13,7.13,7.13,7.2157,7.3488,7.3488,7.4402,7.5544,7.4302,7.4613,7.552,5.3247,5.3002,0.0,0.0,0.0,0.0,0.0,0.0,0.0,0.0,0.0,0.0,0.0,0.0,0.0,0.0,0.0,5.7891,0.0,0.0,0.0,0.0,0.0,0.0,0.0,5.7891,5.8094,5.8549,5.8549,5.8921,0.0,0.0,0.0,0.0,6.0588,0.0,6.1332,0.0,6.212,0.0,0.0,0.0,0.0,6.2391,6.2391,6.2458,6.2888,6.3047,6.3159,0.0,6.441,0.0,0.0,0.0,0.0,0.0,0.0,0.0,0.0,0.0,0.0,0.0,0.0,0.0,0.0,0.0,6.6802,0.0,0.0,0.0,0.0,0.0,0.0,0.0,6.6599,0.0,0.0,0.0,6.6802,0.0,0.0,0.0,0.0,0.0,0.0,0.0,0.0,6.8741,6.9519,7.0263,7.0872,7.13,7.13,7.13,7.13,7.13,7.13,7.13,7.13,7.13,7.13,7.13,7.13,7.13,7.13,7.13,7.1244,7.0436,7.0921,7.2135,7.1379,7.2469,7.4306,7.2848,7.2704,7.3121,5.4321,0.0,0.0,0.0,0.0,0.0,0.0,0.0,0.0,0.0,0.0,0.0,5.7823,5.7891,0.0,0.0,0.0,5.7891,0.0,0.0,5.7891,0.0,0.0,0.0,0.0,0.0,5.877,5.9293,5.9293,5.9699,6.0419,0.0,0.0,0.0,0.0,6.1603,6.1637,0.0,6.2391,6.2391,6.2391,6.2526,6.2685,6.2685,6.2685,6.2787,6.3521,6.3792,6.3927,6.4647,6.5266,0.0,6.5943,0.0,0.0,0.0,0.0,0.0,6.6802,0.0,0.0,0.0,0.0,0.0,0.0,0.0,0.0,0.0,0.0,0.0,0.0,0.0,0.0,0.0,0.0,6.6734,0.0,0.0,0.0,0.0,0.0,0.0,0.0,0.0,0.0,0.0,6.7489,0.0,6.9045,6.98,7.0534,7.13,7.13,7.13,7.13,7.13,7.13,7.13,7.13,7.13,7.13,7.13,7.13,7.13,7.13,7.13,7.1199,6.9983,7.019,7.1142,6.9593,7.0367,7.2262,7.1183,7.1031,7.1333,5.5631,5.5631,0.0,0.0,0.0,0.0,0.0,0.0,0.0,0.0,0.0,0.0,0.0,0.0,0.0,0.0,0.0,5.7891,5.7891,0.0,5.7891,0.0,0.0,5.8945,0.0,0.0,6.0047,6.0047,6.0047,6.0486,6.1255,6.1255,6.1637,6.2323,6.2357,6.2357,6.2357,6.2391,6.2391,6.2391,6.2391,6.2821,6.3443,0.0,6.3443,6.3555,6.4299,0.0,0.0,6.5436,6.5672,0.0,0.0,0.0,0.0,0.0,0.0,0.0,0.0,0.0,0.0,6.6802,0.0,0.0,0.0,0.0,6.6802,0.0,0.0,0.0,0.0,0.0,0.0,0.0,0.0,0.0,0.0,0.0,0.0,0.0,0.0,0.0,0.0,0.0,0.0,6.6802,6.7489,0.0,6.9045,6.98,7.0534,7.13,7.13,7.13,7.13,7.13,7.13,7.13,7.13,7.13,7.13,7.13,7.13,7.13,7.13,7.13,7.1233,7.0478,7.0626,7.1088,6.8971,6.8639,6.9346,6.9288,7.0185,7.1214,5.718,0.0,0.0,0.0,0.0,0.0,0.0,5.7518,0.0,0.0,0.0,0.0,0.0,0.0,5.7891,0.0,0.0,5.7891,5.7891,5.8355,0.0,0.0,0.0,5.9733,0.0,0.0,6.0351,6.0892,6.0892,6.1264,6.2018,6.2018,6.2154,6.2391,6.2391,6.2391,0.0,0.0,0.0,0.0,0.0,6.4005,6.4231,0.0,0.0,6.4333,6.5063,6.5334,0.0,6.617,6.644,6.6464,6.6734,6.6802,6.6802,6.6802,6.6802,0.0,0.0,0.0,6.6802,6.6802,0.0,0.0,0.0,0.0,0.0,0.0,0.0,0.0,0.0,0.0,0.0,0.0,0.0,0.0,0.0,0.0,0.0,0.0,0.0,0.0,0.0,0.0,0.0,6.6802,6.7039,6.776,0.0,6.935,7.0026,7.1267,7.13,7.13,7.13,7.13,7.13,7.13,7.13,7.13,7.13,7.13,7.13,7.13,7.13,7.078,6.9853,6.9161,6.8759,6.8387,6.717,6.7138,6.7729,6.7729,6.8043,6.8429,5.7891,0.0,0.0,0.0,0.0,0.0,0.0,0.0,0.0,0.0,5.7891,0.0,5.7891,0.0,5.7891,0.0,5.8127,5.8287,5.8287,5.8989,0.0,5.9394,6.0114,0.0,0.0,0.0,6.1163,6.167,6.167,6.1941,6.2391,6.2391,6.2391,6.2424,6.2661,6.2787,6.2821,6.3067,6.3463,0.0,0.0,6.4996,0.0,0.0,6.5222,0.0,0.0,6.6102,6.617,6.6633,6.6802,6.6802,6.6802,6.6802,6.6802,6.6802,6.6802,6.6802,6.6802,6.6802,0.0,0.0,6.6802,0.0,6.6802,0.0,0.0,0.0,0.0,0.0,0.0,0.0,0.0,0.0,0.0,0.0,0.0,6.6802,0.0,0.0,0.0,0.0,0.0,0.0,6.6802,6.6802,6.6802,6.7343,0.0,0.0,6.9654,7.0861,7.1165,7.13,7.13,7.13,7.13,7.13,7.13,7.13,7.13,7.13,7.103,7.0551,7.0551,6.9784,6.8457,6.7998,6.751,6.7051,6.6551,6.661,6.7014,6.7014,6.7014,6.7014,0.0,0.0,0.0,0.0,5.7891,0.0,0.0,0.0,5.7891,0.0,5.7891,5.7891,5.7891,5.7924,5.7958,5.7958,5.8626,0.0,5.9047,5.9733,0.0,0.0,6.0926,6.1366,6.1366,0.0,0.0,0.0,0.0,6.2391,6.2391,6.2424,6.2458,6.2492,6.3217,6.3545,6.3589,6.4299,6.4613,6.4715,6.5469,6.574,6.5842,6.6531,0.0,6.5842,6.6531,6.6802,6.6802,6.6802,6.6802,6.6802,6.6802,6.6802,6.6802,6.6802,6.6802,6.6802,6.6802,6.6802,6.6802,6.6802,0.0,0.0,0.0,0.0,6.6696,0.0,0.0,0.0,0.0,0.0,0.0,0.0,0.0,0.0,0.0,0.0,0.0,0.0,0.0,0.0,6.6802,6.6802,6.6802,6.6802,6.6802,6.7106,0.0,0.0,0.0,7.0172,7.0928,7.13,7.13,7.13,7.13,7.13,7.13,7.13,7.13,7.1233,7.0482,6.9205,6.9145,6.8355,6.7112,6.7107,6.7057,6.7,6.7019,6.7014,6.7014,6.7014,6.7014,6.7014,5.7891,5.7891,5.7891,0.0,5.7891,5.7891,0.0,0.0,0.0,0.0,5.7891,5.7891,5.7891,5.8389,5.8718,5.8718,5.9394,0.0,0.0,0.0,0.0,6.0994,6.1704,6.212,6.212,6.2289,0.0,6.2391,0.0,6.2391,6.2424,6.2956,6.3217,6.325,6.3994,6.4333,6.4343,6.4512,6.4918,6.5469,6.6237,6.6531,0.0,0.0,6.6667,6.6531,6.6734,6.6802,6.6802,6.6802,6.6802,6.6802,6.6802,6.6802,6.6802,6.6802,6.6802,6.6802,6.6802,6.6802,6.6802,6.6802,6.6802,6.6546,0.0,0.0,0.0,0.0,0.0,0.0,0.0,0.0,0.0,0.0,0.0,0.0,0.0,0.0,0.0,6.6802,0.0,0.0,6.6802,6.6802,6.6802,6.6802,6.6802,0.0,0.0,0.0,0.0,7.0172,7.0928,7.13,7.13,7.13,7.13,7.13,7.13,7.13,7.1267,7.0228,6.9549,6.9124,6.8169,6.6919,6.5719,6.6709,6.6478,6.5647,6.6612,6.7014,6.7014,6.7014,6.7014,6.7014,5.7891,0.0,0.0,5.7891,0.0,0.0,5.7891,0.0,0.0,5.8355,5.8389,0.0,5.8838,5.9235,5.9462,5.9462,6.0172,0.0,0.0,0.0,0.0,6.1772,6.2188,6.2391,6.2391,6.2391,0.0,6.2888,0.0,0.0,6.3372,6.3802,6.3994,6.3994,6.4749,6.5097,6.5087,6.5425,6.5797,6.6203,6.6633,0.0,0.0,6.6802,6.6802,6.6802,6.6802,6.6802,6.6802,6.6802,6.6802,6.6802,6.6802,6.6802,6.6802,6.6802,6.6418,6.5964,6.5964,6.5559,6.5126,6.5126,6.5126,6.4947,6.4241,6.4091,6.4,0.0,0.0,0.0,0.0,0.0,0.0,0.0,0.0,0.0,0.0,0.0,0.0,0.0,6.6802,0.0,6.6802,6.6802,6.6802,6.6802,6.6802,0.0,0.0,0.0,0.0,6.9699,7.077,7.13,7.13,7.13,7.0996,7.0379,7.1007,7.0984,7.0344,6.9573,6.887,6.8268,6.6868,6.5646,6.4711,6.5751,6.5882,6.5547,6.658,6.7014,6.7014,6.7014,6.7014,6.7014,0.0,0.0,0.0,0.0,0.0,0.0,0.0,5.8094,0.0,5.9056,0.0,5.9394,6.0047,6.0182,6.025,6.025,0.0,6.1501,6.1593,6.2178,6.2594,6.2695,6.2695,6.2695,6.2695,6.2695,0.0,0.0,0.0,0.0,6.4613,6.4681,6.4749,6.4783,6.5503,6.5842,6.5876,6.6531,6.6802,6.6802,6.6802,6.6802,6.6791,6.6903,6.6937,6.6971,6.7072,6.7039,6.6937,6.6937,6.7005,6.7106,6.7106,6.7106,6.7106,6.7106,6.6199,6.5176,6.5176,6.4235,6.3248,6.3248,6.3248,6.3212,6.303,6.293,6.3144,6.4061,6.3324,0.0,0.0,0.0,0.0,0.0,0.0,0.0,0.0,0.0,0.0,0.0,0.0,0.0,0.0,6.6802,6.6802,0.0,0.0,0.0,0.0,0.0,0.0,0.0,7.059,0.0,7.13,0.0,7.0585,6.9229,7.062,7.0482,6.8931,6.8931,6.8219,6.6842,6.545,6.4533,6.4066,6.474,6.5458,6.6191,6.6759,6.7014,6.7014,6.7014,6.7014,6.7014,0.0,0.0,0.0,0.0,0.0,5.9708,5.9708,5.9191,5.9056,5.981,5.9911,0.0,6.008,6.0689,6.1095,6.1095,6.1772,0.0,0.0,0.0,0.0,6.4174,6.4208,6.4208,6.4208,6.4208,6.4275,0.0,0.0,0.0,6.4613,6.5233,6.5503,6.5537,6.6271,6.6599,6.6633,6.6768,0.0,6.6802,6.6802,6.6802,6.6869,6.7489,6.7692,6.7793,6.847,6.8267,6.7692,6.7692,6.8166,6.8707,6.8707,6.8707,6.8707,6.8707,6.7725,6.6634,6.6634,6.5625,6.4569,6.4569,6.4569,6.4283,6.324,6.2558,6.1952,6.1093,6.0326,6.0502,6.2876,0.0,0.0,0.0,0.0,0.0,0.0,0.0,0.0,0.0,0.0,0.0,0.0,0.0,0.0,0.0,0.0,0.0,0.0,0.0,0.0,0.0,0.0,0.0,0.0,0.0,0.0,6.9229,7.062,6.9961,6.7546,6.7546,6.6777,6.5396,6.4026,6.3668,6.4066,6.474,6.5727,6.6819,6.6954,6.7014,6.7014,6.7014,6.7014,6.7014,0.0,0.0,0.0,0.0,0.0,0.0,0.0,6.0757,0.0,6.0723,6.0723,6.1018,6.1796,6.2202,6.2608,6.299,6.3328,6.37,6.4062,6.4062,6.3933,6.3642,6.3621,0.0,6.2574,6.2563,6.311,6.4199,0.0,0.0,0.0,0.0,6.6271,6.6305,6.6633,6.6802,0.0,0.0,0.0,6.7377,6.7377,6.7614,6.8019,6.8402,6.8504,6.8571,6.8977,6.9113,6.9022,6.8639,6.8774,6.897,6.8238,6.8002,6.7878,6.7146,6.5978,6.4947,6.4947,6.3946,6.2951,6.2951,6.2951,6.2765,6.2154,6.1747,6.1562,6.1599,6.0817,6.0836,6.311,6.4779,0.0,0.0,0.0,0.0,0.0,0.0,0.0,0.0,0.0,0.0,0.0,0.0,0.0,0.0,0.0,0.0,0.0,0.0,0.0,0.0,0.0,0.0,0.0,0.0,0.0,6.8194,6.9561,6.8781,6.6114,6.6114,6.5728,6.5032,6.401,6.3917,6.459,6.5607,6.643,6.7014,6.7014,6.7014,6.7014,6.7014,6.7014,6.7014,0.0,6.0351,0.0,0.0,6.0723,0.0,0.0,6.2381,6.2594,6.1864,6.1897,6.2439,6.3622,6.3714,6.3961,6.4546,6.4613,6.4545,6.4443,6.4423,6.3942,6.2801,6.2745,6.2251,6.1214,6.1203,6.2005,0.0,0.0,0.0,0.0,0.0,0.0,0.0,0.0,0.0,0.0,0.0,6.7614,6.8166,6.8166,6.8538,6.9113,6.9282,6.9316,6.935,6.9519,6.9925,7.0297,6.9423,6.9132,6.8887,6.7502,6.7055,6.6819,6.5724,6.4458,6.3433,6.3433,6.2499,6.1523,6.1523,6.1523,6.1523,6.1523,6.1419,6.1591,6.2595,6.234,6.2401,6.3959,6.5101,0.0,0.0,0.0,0.0,0.0,0.0,0.0,0.0,0.0,0.0,0.0,0.0,0.0,0.0,0.0,0.0,0.0,0.0,0.0,0.0,0.0,0.0,7.13,0.0,6.9772,0.0,6.8417,6.7483,6.5083,6.5083,6.5012,6.4824,6.4259,6.447,6.5308,6.652,6.7014,6.7014,6.7014,6.7014,6.7014,6.7014,6.7014,6.7014,0.0,0.0,0.0,0.0,0.0,0.0,0.0,6.3927,6.414,6.3386,6.3893,6.4343,6.4478,6.4512,6.4512,6.458,6.4613,6.4373,6.3925,6.3859,6.3587,6.3007,6.298,6.29,6.278,6.2768,6.2872,0.0,0.0,0.0,0.0,0.0,0.0,0.0,0.0,0.0,0.0,6.8571,6.891,6.8977,6.8977,6.9045,6.918,6.9834,7.0105,7.0172,7.0861,7.1131,7.0996,6.9644,6.9187,6.8972,6.7605,6.7176,6.715,6.7023,6.6017,6.4897,6.4897,6.3928,6.2914,6.2914,6.2914,6.2914,6.2914,6.2435,6.2044,6.2141,6.353,6.4772,6.4958,6.7025,6.8125,0.0,0.0,0.0,0.0,0.0,0.0,0.0,0.0,0.0,0.0,0.0,0.0,0.0,0.0,0.0,0.0,0.0,0.0,0.0,0.0,7.13,7.13,7.0031,0.0,6.8991,6.7899,6.6569,6.5083,6.5083,6.4722,6.4091,6.4035,6.4725,6.5966,6.67,6.7014,6.7014,6.7014,6.7014,6.7014,6.7014,6.7014,6.7014,0.0,0.0,0.0,0.0,0.0,0.0,0.0,6.4783,6.5165,6.485,6.4681,6.4783,6.5199,6.5266,6.5122,6.4812,6.4781,6.4377,6.3381,6.3332,6.2863,6.1827,6.1796,6.1451,6.0683,6.0671,6.1038,0.0,0.0,0.0,0.0,0.0,0.0,0.0,0.0,6.6559,6.7378,6.7711,6.8585,6.9766,6.9766,7.0026,7.0455,7.077,7.0872,7.0805,7.0244,7.0031,6.9692,6.7483,6.7837,6.8821,6.6621,6.5941,6.5768,6.4978,6.4348,6.3902,6.3902,6.3492,6.3108,6.3108,6.3108,6.3108,6.3108,6.2884,6.2704,6.2704,6.3616,6.4691,6.5535,6.6856,6.7823,0.0,0.0,0.0,0.0,0.0,0.0,0.0,0.0,6.8189,0.0,0.0,0.0,0.0,0.0,0.0,0.0,0.0,0.0,7.13,0.0,7.13,7.13,6.9914,6.8797,6.7974,6.6582,6.5219,6.3902,6.3902,6.4166,6.462,6.5024,6.5742,6.661,6.6894,6.7014,6.7014,6.7014,6.7014,6.7014,6.7014,6.7014,6.7014,6.3724,0.0,6.3994,0.0,6.4783,6.4918,6.4918,6.5537,6.6112,6.6315,6.5899,6.5696,6.6,6.5855,6.5621,6.5222,6.5008,6.4359,6.3085,6.3011,6.2412,6.1098,6.1046,0.0,5.9711,5.9684,6.0126,6.1046,6.287,0.0,0.0,0.0,0.0,0.0,6.5554,6.6391,6.737,6.7998,6.8891,6.9905,6.9905,6.999,7.01,7.01,7.01,6.9949,6.8976,6.8614,6.8236,6.5888,6.6372,6.7584,6.5247,6.4512,6.4348,6.3379,6.3108,6.3108,6.3108,6.3108,6.3108,6.3108,6.3108,6.3108,6.3108,6.3108,6.3193,6.3606,6.4034,6.464,6.5625,6.6816,6.7765,0.0,0.0,0.0,0.0,0.0,0.0,0.0,6.9113,6.9113,6.9113,0.0,0.0,0.0,0.0,0.0,0.0,0.0,0.0,0.0,0.0,0.0,0.0,0.0,6.8528,6.7177,6.5768,6.4609,6.3692,6.3685,6.4246,6.5323,6.5996,6.655,6.7014,6.7014,6.7014,6.7014,6.7014,6.7014,6.7014,6.7014,6.7014,6.7014,6.458,6.458,6.458,6.4613,6.5199,6.5683,6.5683,6.6305,6.7039,6.7793,6.7861,6.759,6.6869,6.6257,6.5908,6.5897,6.5283,6.4368,6.3074,6.3012,6.243,0.0,0.0,6.1104,6.109,6.109,6.106,6.1118,0.0,0.0,6.193,0.0,0.0,6.499,6.7113,6.8059,6.8231,7.0352,7.046,6.9196,6.9196,6.8409,6.7241,6.7241,6.7241,6.7241,6.7215,6.7215,6.6997,6.5567,6.5111,6.4923,6.3549,6.3137,6.3122,6.3108,6.3108,6.3108,6.3108,6.3108,6.3108,6.3108,6.3108,6.3108,6.3108,6.3108,6.3494,6.4799,6.507,6.5097,6.5111,6.7324,6.8499,6.6482,0.0,0.0,0.0,0.0,0.0,0.0,6.9113,6.9113,6.9113,0.0,0.0,0.0,0.0,0.0,0.0,0.0,0.0,7.13,7.13,0.0,6.9241,6.9217,6.8528,6.7177,6.5768,6.5083,6.5077,6.4993,6.5368,6.6041,6.67,6.6984,6.7014,6.7014,6.7014,6.7014,6.7014,6.7014,6.7014,6.7014,6.7014,6.7014,6.5266,6.5368,6.5503,6.6024,6.5951,6.5824,6.5824,6.6466,6.6668,6.5959,6.668,6.6822,6.563,6.62,6.5917,0.0,6.373,6.3052,0.0,6.1709,6.1503,6.1118,6.109,6.109,6.109,6.109,6.109,6.109,0.0,0.0,0.0,6.3575,6.3451,6.3689,6.4399,6.5219,6.6114,6.6791,6.7356,6.7824,6.7824,6.7572,6.719,6.719,6.719,6.7061,6.6114,6.5754,6.5571,6.4209,6.3748,6.3663,6.3222,6.3108,6.3108,6.3108,6.3108,6.3108,6.3108,6.3108,6.3108,6.3108,6.3108,6.3108,6.3108,6.3108,6.3207,6.3663,6.3748,6.4029,6.4937,6.6582,6.791,6.8185,0.0,0.0,0.0,0.0,0.0,0.0,7.059,7.059,0.0,7.0161,0.0,0.0,0.0,0.0,0.0,0.0,0.0,0.0,7.0356,0.0,7.062,6.7799,6.666,6.7164,6.4841,6.396,6.4386,6.5262,6.5787,6.6026,6.67,6.7014,6.7014,6.7014,6.7014,6.7014,6.7014,6.7014,6.7014,6.7014,6.7014,6.7014,6.4917,6.5456,6.5887,6.6056,6.6213,6.6141,6.5615,6.5914,6.5995,6.5417,6.6111,6.6221,6.5109,6.5764,0.0,6.3548,6.3183,0.0,6.1909,6.1852,6.1852,6.1852,6.1852,6.1852,6.1852,0.0,0.0,6.1852,6.3108,6.3931,6.4348,6.3478,6.3108,6.3122,6.3635,6.4334,6.5124,6.5647,6.6101,6.6417,6.6417,6.6114,6.5665,6.5665,6.5665,6.5575,6.4911,6.4685,6.4605,6.3997,6.3797,6.3797,6.3797,6.3797,6.3722,6.3243,6.3108,6.3108,6.3108,6.3108,6.3108,6.3108,6.3108,6.3108,6.3108,6.3108,6.3108,6.3108,6.3108,6.3365,6.4195,6.5901,6.747,6.8318,0.0,0.0,0.0,0.0,0.0,0.0,0.0,0.0,0.0,7.0872,0.0,0.0,0.0,0.0,0.0,0.0,0.0,7.1278,6.9937,0.0,6.976,6.7705,6.6325,6.5652,6.4159,6.3901,6.4784,6.5607,6.6131,6.64,6.6835,6.7014,6.7014,6.7014,6.7014,6.7014,6.7014,6.7014,6.7014,6.7014,6.7014,6.7014,6.3959,6.5076,0.0,0.0,6.5942,0.0,6.5054,6.4886,6.516,6.581,6.5982,6.5773,6.5035,6.4964,6.4672,6.4014,0.0,0.0,0.0,6.3108,6.3108,6.3108,6.3108,0.0,6.3108,6.3108,6.3108,6.3108,6.3108,6.3108,6.3108,6.3108,6.3108,6.3165,6.4401,6.4964,6.506,6.6396,6.6217,6.5026,6.5057,6.4345,6.3213,6.3213,6.3213,6.3303,6.3857,6.4066,6.4156,6.48,6.4994,6.4994,6.4994,6.4994,6.477,6.3572,6.3213,6.3213,6.3213,6.3183,6.3153,6.3153,6.3123,6.3108,6.3108,6.3108,6.3108,6.3108,6.3108,6.3108,6.3108,6.526,6.7074,6.7177,6.9418,7.1199,7.1289,0.0,0.0,0.0,0.0,0.0,0.0,7.13,7.13,0.0,0.0,0.0,0.0,0.0,0.0,7.1098,6.9775,6.8466,6.7202,6.8268,6.6887,6.3168,6.3842,6.4784,6.5996,6.6056,6.64,6.7014,6.7014,6.7014,6.7014,6.7014,6.7014,6.7014,6.7014,6.7014,6.7014,6.7014,6.7014,6.7014,0.0,0.0,6.5099,6.4926,6.4805,6.4602,6.426,6.4702,6.4744,6.3923,6.4689,6.4888,6.3704,6.3578,6.3503,6.3338,6.3175,6.3108,6.3108,6.3108,6.3108,6.3108,6.3108,6.3108,6.3108,6.3108,6.3108,6.3108,6.3108,6.3108,6.3108,6.3108,6.3108,6.3122,6.3437,6.3578,6.3622,6.4432,6.4573,6.4304,6.4818,6.484,6.456,6.456,6.456,6.456,6.471,6.4755,6.48,6.4934,6.4994,6.4994,6.4994,6.4994,6.4934,6.465,6.456,6.456,6.456,6.4186,6.3782,6.3782,6.3452,6.3108,6.3108,6.3108,6.3108,6.3108,6.3108,6.3108,6.3108,6.4471,6.5941,6.701,6.8601,7.0055,7.1131,0.0,0.0,0.0,7.13,7.13,7.13,7.13,7.13,0.0,0.0,0.0,0.0,0.0,6.8306,6.9656,6.838,6.7508,6.719,6.5436,6.4284,6.3797,6.4964,6.5697,6.6011,6.652,6.6849,6.7014,6.7014,6.7014,6.7014,6.7014,6.7014,6.7014,6.7014,6.7014,6.7014,6.7014,6.7014,6.7014,6.3561,6.4118,6.4429,6.4133,6.4305,6.4299,6.3687,6.3923,6.393,6.3209,6.3718,6.3916,6.3194,6.3108,6.3108,6.3108,6.3108,6.3108,6.3108,6.3108,6.3108,6.3108,6.3108,6.3108,6.3108,6.3108,6.3257,6.3512,6.3827,6.3977,6.3977,6.3977,6.3977,6.3977,6.3977,6.3977,6.4006,6.4321,6.447,6.45,6.4845,6.4994,6.4994,6.4994,6.4994,6.5024,6.5368,6.5458,6.5518,6.5817,6.5906,6.5906,6.5906,6.5906,6.5906,6.5906,6.5488,6.4994,6.4994,6.474,6.447,6.447,6.4216,6.3887,6.3572,6.3512,6.3422,6.3168,6.3108,6.3108,6.3108,6.4209,6.5355,6.6127,6.7381,6.876,7.0158,7.0333,0.0,7.0333,7.0333,7.0111,6.9478,6.9418,6.9418,6.9418,0.0,0.0,6.9418,6.8019,6.7799,6.9169,6.7266,6.6246,6.6246,6.4444,6.3991,6.4934,6.5652,6.6161,6.646,6.6819,6.7014,6.7014,6.7014,6.7014,6.7014,6.7014,6.7014,6.7014,6.7014,6.7014,6.7014,6.7014,6.7014,6.7014,6.2121,6.3174,6.3766,6.3203,6.4026,6.4415,6.3265,6.3108,6.3108,6.3108,6.3108,6.3108,6.3108,6.3197,6.3257,6.3257,6.3333,6.3333,6.3243,6.3257,6.3273,6.3393,6.3393,6.3393,6.3393,6.3393,6.3632,6.4156,6.474,6.4994,6.4994,6.4994,6.4994,6.4994,6.4994,6.4994,6.5024,6.5114,6.5144,6.5144,6.5263,6.5293,6.5293,6.5293,6.5293,6.5398,6.5936,6.6161,6.6251,6.6819,6.7014,6.7014,6.7014,6.7014,6.7014,6.7014,6.6176,6.5293,6.5293,6.5233,6.5114,6.5024,6.4994,6.4845,6.4276,6.4156,6.4006,6.3482,6.3303,6.3257,6.3257,6.4104,6.4868,6.5087,6.6101,6.7343,6.8712,0.0,6.8894,6.8894,6.8894,6.8454,6.7305,6.719,6.719,6.719,6.719,0.0,0.0,6.6984,6.7458,6.8671,6.6451,6.5191,6.5094,6.4556,6.4874,6.5996,6.6086,6.646,6.7014,6.7014,6.7014,6.7014,6.7014,6.7014,6.7014,6.7014,6.7014,6.7014,6.7014,6.7014,6.7014,6.7014,6.7014,6.7014,6.2914,6.3115,6.3231,6.3121,6.3265,6.3337,6.3137,6.3108,6.3108,6.3108,6.3108,6.3108,6.3108,6.3542,6.3857,6.3857,6.4381,6.447,6.3887,6.3857,6.4126,6.468,6.471,6.471,6.471,6.471,6.4755,6.4845,6.4934,6.4994,6.4994,6.4994,6.4994,6.4994,6.4994,6.4994,6.5024,6.5607,6.5847,6.5877,6.646,6.67,6.67,6.67,6.67,6.67,6.6819,6.6849,6.6849,6.6954,6.7014,6.7014,6.7014,6.7014,6.7014,6.7014,6.6849,6.67,6.67,6.6281,6.5697,6.5144,6.4994,6.4964,6.4874,6.4845,6.4815,6.474,6.4231,6.3857,6.3857,6.3611,6.3775,6.4923,6.5274,6.5915,0.0,0.0,6.7496,6.7496,6.7496,6.7419,6.7215,6.719,6.719,6.719,6.719,6.719,6.719,6.6074,6.578,6.6546,6.6171,6.5645,6.5034,6.5458,6.5787,6.5996,6.658,6.6894,6.7014,6.7014,6.7014,6.7014,6.7014,6.7014,6.7014,6.7014,6.7014,6.7014,6.7014,6.7014,6.7014,6.7014,6.7014,6.7014,6.3108,6.3108,6.3108,6.3108,6.3108,6.3108,6.3108,6.3108,6.3227,6.3542,6.3572,6.3722,6.4096,6.4381,6.453,6.453,6.4815,6.5039,6.5084,6.474,6.468,6.4994,6.4994,6.4994,6.4994,6.5368,6.5547,6.5547,6.5906,6.6071,6.6071,6.6071,6.6071,6.6071,6.6071,6.6071,6.6086,6.64,6.655,6.658,6.6894,6.7014,6.7014,6.7014,6.7014,6.7014,6.7014,6.7014,6.7014,6.7014,6.7014,6.7014,6.7014,6.7014,6.7014,6.7014,6.7014,6.7014,6.7014,6.6759,6.646,6.6161,6.6071,6.5966,6.5637,6.5547,6.5458,6.5084,6.4755,6.453,6.453,6.4291,6.4316,6.495,6.4744,0.0,0.0,6.6281,6.6074,6.6074,6.6074,6.5768,6.506,6.4991,6.4991,6.4991,6.5287,6.5489,6.5489,6.5205,6.5186,6.549,6.5521,6.5506,6.5547,6.5847,6.6176,6.655,6.6849,6.7014,6.7014,6.7014,6.7014,6.7014,6.7014,6.7014,6.7014,6.7014,6.7014,6.7014,6.7014,6.7014,6.7014,6.7014,6.7014,6.7014,6.3108,6.3108,6.3108,6.3108,6.3227,6.3303,6.3303,6.3452,6.3722,6.4171,6.4246,6.4441,6.4934,6.5144,6.5233,6.5233,6.5353,6.5697,6.6191,6.5757,6.5458,6.5458,6.5458,6.5458,6.5458,6.5966,6.6236,6.6236,6.6759,6.7014,6.7014,6.7014,6.7014,6.7014,6.7014,6.7014,6.7014,6.7014,6.7014,6.7014,6.7014,6.7014,6.7014,6.7014,6.7014,6.7014,6.7014,6.7014,6.7014,6.7014,6.7014,6.7014,6.7014,6.7014,6.7014,6.7014,6.7014,6.7014,6.7014,6.7014,6.7014,6.7014,6.7014,6.6864,6.634,6.6236,6.6101,6.5577,6.5338,6.5233,6.5233,6.5114,6.4994,6.4994,0.0,0.0,0.0,6.5391,6.5084,6.5084,6.5084,6.4666,6.3644,6.3542,6.3542,6.3542,6.3977,6.4246,6.4246,6.474,6.5084,6.5233,6.5233,6.5547,6.6221,6.6236,6.649,6.7014,6.7014,6.7014,6.7014,6.7014,6.7014,6.7014,6.7014,6.7014,6.7014,6.7014,6.7014,6.7014,6.7014,6.7014,6.7014,6.7014,6.7014,6.7014,6.3108,6.3108,6.3108,6.3108,6.3572,6.3917,6.3917,6.447,6.4874,6.4904,6.4934,6.4934,6.4994,6.5547,6.5936,6.5936,6.649,6.6879,6.6909,6.6894,6.6849,6.6849,6.6849,6.6849,6.6849,6.6894,6.6924,6.6924,6.6984,6.7014,6.7014,6.7014,6.7014,6.7014,6.7014,6.7014,6.7014,6.7014,6.7014,6.7014,6.7014,6.7014,6.7014,6.7014,6.7014,6.7014,6.7014,6.7014,6.7014,6.7014,6.7014,6.7014,6.7014,6.7014,6.7014,6.7014,6.7014,6.7014,6.7014,6.7014,6.7014,6.7014,6.7014,6.6984,6.6954,6.6924,6.6909,6.6849,6.637,6.5936,6.5936,6.5428,6.4994,6.4994,0.0,0.0,6.5068,6.5038,6.5022,6.5022,6.5022,6.4978,6.4859,6.4845,6.4845,6.4845,6.4904,6.4934,6.4934,6.4964,6.5263,6.5906,6.5936,6.6251,6.6909,6.6924,6.6954,6.7014,6.7014,6.7014,6.7014,6.7014,6.7014,6.7014,6.7014,6.7014,6.7014,6.7014,6.7014,6.7014,6.7014,6.7014,6.7014,6.7014,6.7014,6.7014,6.3108,6.3393,6.3662,6.3662,6.4186,6.462,6.462,6.4859,6.5144,6.5577,6.5637,6.5787,6.6176,6.646,6.661,6.661,6.6849,6.7014,6.7014,6.7014,6.7014,6.7014,6.7014,6.7014,6.7014,6.7014,6.7014,6.7014,6.7014,6.7014,6.7014,6.7014,6.7014,6.7014,6.7014,6.7014,6.7014,6.7014,6.7014,6.7014,6.7014,6.7014,6.7014,6.7014,6.7014,6.7014,6.7014,6.7014,6.7014,6.7014,6.7014,6.7014,6.7014,6.7014,6.7014,6.7014,6.7014,6.7014,6.7014,6.7014,6.7014,6.7014,6.7014,6.7014,6.7014,6.7014,6.7014,6.7014,6.6789,6.661,6.661,6.64,6.6251,6.6251,0.0,6.5637,6.5637,6.5263,6.4994,6.4994,6.4994,6.4994,6.4994,6.4994,6.4994,6.4994,6.5398,6.5637,6.5637,6.5996,6.637,6.661,6.661,6.6729,6.7014,6.7014,6.7014,6.7014,6.7014,6.7014,6.7014,6.7014,6.7014,6.7014,6.7014,6.7014,6.7014,6.7014,6.7014,6.7014,6.7014,6.7014,6.7014,6.7014,6.7014,6.7014,6.3662,6.4036,6.4291,6.4291,6.4859,6.5293,6.5293,6.5488,6.5787,6.6251,6.6311,6.649,6.6954,6.7014,6.7014,6.7014,6.7014,6.7014,6.7014,6.7014,6.7014,6.7014,6.7014,6.7014,6.7014,6.7014,6.7014,6.7014,6.7014,6.7014,6.7014,6.7014,6.7014,6.7014,6.7014,6.7014,6.7014,6.7014,6.7014,6.7014,6.7014,6.7014,6.7014,6.7014,6.7014,6.7014,6.7014,6.7014,6.7014,6.7014,6.7014,6.7014,6.7014,6.7014,6.7014,6.7014,6.7014,6.7014,6.7014,6.7014,6.7014,6.7014,6.7014,6.7014,6.7014,6.7014,6.7014,6.7014,6.7014,6.7014,6.7014,6.7014,6.7014,6.7014,6.661,6.6311,6.6311,6.5906,6.5637,6.5637,6.5637,6.5637,6.5637,6.5637,6.5637,6.5637,6.6056,6.6311,6.6311,6.6759,6.7014,6.7014,6.7014,6.7014,6.7014,6.7014,6.7014,6.7014,6.7014,6.7014,6.7014,6.7014,6.7014,6.7014,6.7014,6.7014,6.7014,6.7014,6.7014,6.7014,6.7014,6.7014,6.7014,6.7014,6.7014,6.7014,6.4874,6.4994,6.5024,6.5024,6.5577,6.5996,6.5996,6.658,6.7014,6.7014,6.7014,6.7014,6.7014,6.7014,6.7014,6.7014,6.7014,6.7014,6.7014,6.7014,6.7014,6.7014,6.7014,6.7014,6.7014,6.7014,6.7014,6.7014,6.7014,6.7014,6.7014,6.7014,6.7014,6.7014,6.7014,6.7014,6.7014,6.7014,6.7014,6.7014,6.7014,6.7014,6.7014,6.7014,6.7014,6.7014,6.7014,6.7014,6.7014,6.7014,6.7014,6.7014,6.7014,6.7014,6.7014,6.7014,6.7014,6.7014,6.7014,6.7014,6.7014,6.7014,6.7014,6.7014,6.7014,6.7014,6.7014,6.7014,6.7014,6.7014,6.7014,6.7014,6.7014,6.7014,6.7014,6.7014,6.7014,6.7014,6.7014,6.7014,6.7014,6.7014,6.7014,6.7014,6.7014,6.7014,6.7014,6.7014,6.7014,6.7014,6.7014,6.7014,6.7014,6.7014,6.7014,6.7014,6.7014,6.7014,6.7014,6.7014,6.7014,6.7014,6.7014,6.7014,6.7014,6.7014,6.7014,6.7014,6.7014,6.7014,6.7014,6.7014,6.7014,6.7014,6.7014,6.7014,6.4964,6.5398,6.5697,6.5697,6.6251,6.67,6.67,6.6879,6.7014,6.7014,6.7014,6.7014,6.7014,6.7014,6.7014,6.7014,6.7014,6.7014,6.7014,6.7014,6.7014,6.7014,6.7014,6.7014,6.7014,6.7014,6.7014,6.7014,6.7014,6.7014,6.7014,6.7014,6.7014,6.7014,6.7014,6.7014,6.7014,6.7014,6.7014,6.7014,6.7014,6.7014,6.7014,6.7014,6.7014,6.7014,6.7014,6.7014,6.7014,6.7014,6.7014,6.7014,6.7014,6.7014,6.7014,6.7014,6.7014,6.7014,6.7014,6.7014,6.7014,6.7014,6.7014,6.7014,6.7014,6.7014,6.7014,6.7014,6.7014,6.7014,6.7014,6.7014,6.7014,6.7014,6.7014,6.7014,6.7014,6.7014,6.7014,6.7014,6.7014,6.7014,6.7014,6.7014,6.7014,6.7014,6.7014,6.7014,6.7014,6.7014,6.7014,6.7014,6.7014,6.7014,6.7014,6.7014,6.7014,6.7014,6.7014,6.7014,6.7014,6.7014,6.7014,6.7014,6.7014,6.7014,6.7014,6.7014,6.7014,6.7014,6.7014,6.7014,6.7014,6.7014,6.7014,6.7014,6.5727,6.6131,6.64,6.64,6.6729,6.7014,6.7014,6.7014,6.7014,6.7014,6.7014,6.7014,6.7014,6.7014,6.7014,6.7014,6.7014,6.7014,6.7014,6.7014,6.7014,6.7014,6.7014,6.7014,6.7014,6.7014,6.7014,6.7014,6.7014,6.7014,6.7014,6.7014,6.7014,6.7014,6.7014,6.7014,6.7014,6.7014,6.7014,6.7014,6.7014,6.7014,6.7014,6.7014,6.7014,6.7014,6.7014,6.7014,6.7014,6.7014,6.7014,6.7014,6.7014,6.7014,6.7014,6.7014,6.7014,6.7014,6.7014,6.7014,6.7014,6.7014,6.7014,6.7014,6.7014,6.7014,6.7014,6.7014,6.7014,6.7014,6.7014,6.7014,6.7014,6.7014,6.7014,6.7014,6.7014,6.7014,6.7014,6.7014,6.7014,6.7014,6.7014,6.7014,6.7014,6.7014,6.7014,6.7014,6.7014,6.7014,6.7014,6.7014,6.7014,6.7014,6.7014,6.7014,6.7014,6.7014,6.7014,6.7014,6.7014,6.7014,6.7014,6.7014,6.7014,6.7014,6.7014,6.7014,6.7014,6.7014,6.7014,6.7014,6.7014,6.7014,6.7014,6.7014,6.6894,6.7014,6.7014,6.7014,6.7014,6.7014,6.7014,6.7014,6.7014,6.7014,6.7014,6.7014,6.7014,6.7014,6.7014,6.7014,6.7014,6.7014,6.7014,6.7014,6.7014,6.7014,6.7014,6.7014,6.7014,6.7014,6.7014,6.7014,6.7014,6.7014,6.7014,6.7014,6.7014,6.7014,6.7014,6.7014,6.7014,6.7014,6.7014,6.7014,6.7014,6.7014,6.7014,6.7014,6.7014,6.7014,6.7014,6.7014,6.7014,6.7014,6.7014,6.7014,6.7014,6.7014,6.7014,6.7014,6.7014,6.7014,6.7014,6.7014,6.7014,6.7014,6.7014,6.7014,6.7014,6.7014,6.7014,6.7014,6.7014,6.7014,6.7014,6.7014,6.7014,6.7014,6.7014,6.7014,6.7014,6.7014,6.7014,6.7014,6.7014,6.7014,6.7014,6.7014,6.7014,6.7014,6.7014,6.7014,6.7014,6.7014,6.7014,6.7014,6.7014,6.7014,6.7014,6.7014,6.7014,6.7014,6.7014,6.7014,6.7014,6.7014,6.7014,6.7014,6.7014,6.7014,6.7014,6.7014,6.7014,6.7014,6.7014,6.7014,6.7014,6.7014,6.7014,6.7014,6.6969,6.7014,6.7014,6.7014,6.7014,6.7014,6.7014,6.7014,6.7014,6.7014,6.7014,6.7014,6.7014,6.7014,6.7014,6.7014,6.7014,6.7014,6.7014,6.7014,6.7014,6.7014,6.7014,6.7014,6.7014,6.7014,6.7014,6.7014,6.7014,6.7014,6.7014,6.7014,6.7014,6.7014,6.7014,6.7014,6.7014,6.7014,6.7014,6.7014,6.7014,6.7014,6.7014,6.7014,6.7014,6.7014,6.7014,6.7014,6.7014,6.7014,6.7014,6.7014,6.7014,6.7014,6.7014,6.7014,6.7014,6.7014,6.7014,6.7014,6.7014,6.7014,6.7014,6.7014,6.7014,6.7014,6.7014,6.7014,6.7014,6.7014,6.7014,6.7014,6.7014,6.7014,6.7014,6.7014,6.7014,6.7014,6.7014,6.7014,6.7014,6.7014,6.7014,6.7014,6.7014,6.7014,6.7014,6.7014,6.7014,6.7014,6.7014,6.7014,6.7014,6.7014,6.7014,6.7014,6.7014,6.7014,6.7014,6.7014,6.7014,6.7014,6.7014,6.7014,6.7014,6.7014,6.7014,6.7014,6.7014,6.7014,6.7014,6.7014,6.7014,6.7014,6.7014,6.7014,6.7014,6.7014,6.7014,6.7014,6.7014,6.7014,6.7014,6.7014,6.7014,6.7014,6.7014,6.7014,6.7014,6.7014,6.7014,6.7014,6.7014,6.7014,6.7014,6.7014,6.7014,6.7014,6.7014,6.7014,6.7014,6.7014,6.7014,6.7014,6.7014,6.7014,6.7014,6.7014,6.7014,6.7014,6.7014,6.7014,6.7014,6.7014,6.7014,6.7014,6.7014,6.7014,6.7014,6.7014,6.7014,6.7014,6.7014,6.7014,6.7014,6.7014,6.7014,6.7014,6.7014,6.7014,6.7014,6.7014,6.7014,6.7014,6.7014,6.7014,6.7014,6.7014,6.7014,6.7014,6.7014,6.7014,6.7014,6.7014,6.7014,6.7014,6.7014,6.7014,6.7014,6.7014,6.7014,6.7014,6.7014,6.7014,6.7014,6.7014,6.7014,6.7014,6.7014,6.7014,6.7014,6.7014,6.7014,6.7014,6.7014,6.7014,6.7014,6.7014,6.7014,6.7014,6.7014,6.7014,6.7014,6.7014,6.7014,6.7014,6.7014,6.7014,6.7014,6.7014,6.7014,6.7014,6.7014,6.7014,6.7014,6.7014,6.7014,6.7014,6.7014,6.7014,6.7014,6.7014,6.7014,6.7014,6.7014,6.7014,6.7014,6.7014,6.7014,6.7014,6.7014,6.7014,6.7014,6.7014,6.7014,6.7014,6.7014,6.7014,6.7014,6.7014,6.7014,6.7014,6.7014,6.7014,6.7014,6.7014,6.7014,6.7014,6.7014,6.7014,6.7014,6.7014,6.7014,6.7014,6.7014,6.7014,6.7014,6.7014,6.7014,6.7014,6.7014,6.7014,6.7014,6.7014,6.7014,6.7014,6.7014,6.7014,6.7014,6.7014,6.7014,6.7014,6.7014,6.7014,6.7014,6.7014,6.7014,6.7014,6.7014,6.7014,6.7014,6.7014,6.7014,6.7014,6.7014,6.7014,6.7014,6.7014,6.7014,6.7014,6.7014,6.7014,6.7014,6.7014,6.7014,6.7014,6.7014,6.7014,6.7014,6.7014,6.7014,6.7014,6.7014,6.7014,6.7014,6.7014,6.7014,6.7014,6.7014,6.7014,6.7014,6.7014,6.7014,6.7014,6.7014,6.7014,6.7014,6.7014,6.7014,6.7014,6.7014,6.7014,6.7014,6.7014,6.7014,6.7014,6.7014,6.7014,6.7014,6.7014,6.7014,6.7014,6.7014,6.7014,6.7014,6.7014,6.7014,6.7014,6.7014,6.7014,6.7014,6.7014,6.7014,6.7014,6.7014,6.7014,6.7014,6.7014,6.7014,6.7014,6.7014,6.7014,6.7014,6.7014,6.7014,6.7014,6.7014,6.7014,6.7014,6.7014,6.7014,6.7014,6.7014,6.7014,6.7014,6.7014,6.7014,6.7014,6.7014,6.7014,6.7014,6.7014,6.7014,6.7014,6.7014,6.7014,6.7014,6.7014,6.7014,6.7014,6.7014,6.7014,6.7014,6.7014,6.7014,6.7014,6.7014,6.7014,6.7014,6.7014,6.7014,6.7014,6.7014,6.7014,6.7014,6.7014,6.7014,6.7014,6.7014,6.7014,6.7014,6.7014,6.7014,6.7014,6.7014,6.7014,6.7014,6.7014,6.7014,6.7014,6.7014,6.7014,6.7014,6.7014,6.7014,6.7014,6.7014,6.7014,6.7014,6.7014,6.7014,6.7014,6.7014,6.7014,6.7014,6.7014,6.7014,6.7014,6.7014,6.7014,6.7014,6.7014,6.7014,6.7014,6.7014,6.7014,6.7014,6.7014,6.7014,6.7014,6.7014,6.7014,6.7014,6.7014,6.7014,6.7014,6.7014,6.7014,6.7014,6.7014,6.7014,6.7014,6.7014,6.7014,6.7014,6.7014,6.7014,6.7014,6.7014,6.7014,6.7014,6.7014,6.7014,6.7014,6.7014,6.7014,6.7014,6.7014,6.7014,6.7014,6.7014,6.7014,6.7014,6.7014,6.7014,6.7014,6.7014,6.7014,6.7014,6.7014,6.7014,6.7014,6.7014,6.7014,6.7014,6.7014,6.7014,6.7014,6.7014,6.7014,6.7014,6.7014,6.7014,6.7014,6.7014,6.7014,6.7014,6.7014,6.7014,6.7014,6.7014,6.7014,6.7014,6.7014,6.7014,6.7014,6.7014,6.7014,6.7014,6.7014,6.7014,6.7014,6.7014,6.7014,6.7014,6.7014,6.7014,6.7014,6.7014,6.7014,6.7014,6.7014,6.7014,6.7014,6.7014,6.7014,6.7014,6.7014,6.7014,6.7014,6.7014,6.7014,6.7014,6.7014,6.7014,6.7014,6.7014,6.7014,6.7014,6.7014,6.7014,6.7014,6.7014,6.7014,6.7014,6.7014,6.7014,6.7014,6.7014,6.7014,6.7014,6.7014,6.7014,6.7014,6.7014,6.7014,6.7014,6.7014,6.7014,6.7014,6.7014,6.7014,6.7014,6.7014,6.7014,6.7014,6.7014,6.7014,6.7014,6.7014]},{"header":{"parameterUnit":"m.s-1","parameterCategory":1,"la1":30.6,"la2":28.766,"lo1":-90.7593,"lo2":-88.6598,"dy":0.0162,"dx":0.0183,"nx":116,"ny":114,"refTime":"2023-11-22T18:00:00:Z","depth":0,"parameterNumber":3,"parameterNumberName":"V-component_of_WINDS"},"data":[0.0,0.0,0.0,0.0,0.0,0.0,0.0,0.0,0.0,0.0,0.0,0.0,0.0,0.0,0.0,0.0,0.0,0.0,0.0,0.0,0.0,0.0,0.0,0.0,0.0,0.0,0.0,0.0,0.0,0.0,0.0,0.0,0.0,0.0,0.0,0.0,0.0,0.0,0.0,0.0,0.0,0.0,0.0,0.0,0.0,0.0,0.0,0.0,0.0,0.0,0.0,0.0,0.0,0.0,0.0,0.0,0.0,0.0,0.0,0.0,0.0,0.0,0.0,0.0,0.0,0.0,0.0,0.0,0.0,0.0,0.0,0.0,0.0,0.0,0.0,0.0,0.0,0.0,0.0,0.0,0.0,0.0,0.0,0.0,0.0,0.0,0.0,0.0,0.0,0.0,0.0,0.0,0.0,0.0,0.0,0.0,0.0,0.0,0.0,0.0,0.0,0.0,0.0,0.0,0.0,0.0,0.0,0.0,0.0,0.0,0.0,0.0,0.0,0.0,0.0,0.0,0.0,0.0,0.0,0.0,0.0,0.0,0.0,0.0,0.0,0.0,0.0,0.0,0.0,0.0,0.0,0.0,0.0,0.0,0.0,0.0,0.0,0.0,0.0,0.0,0.0,0.0,0.0,0.0,0.0,0.0,0.0,0.0,0.0,0.0,0.0,0.0,0.0,0.0,0.0,0.0,0.0,0.0,0.0,0.0,0.0,0.0,0.0,0.0,0.0,0.0,0.0,0.0,0.0,0.0,0.0,0.0,0.0,0.0,0.0,0.0,0.0,0.0,0.0,0.0,0.0,0.0,0.0,0.0,0.0,0.0,0.0,0.0,0.0,0.0,0.0,0.0,0.0,0.0,0.0,0.0,0.0,0.0,0.0,0.0,0.0,0.0,0.0,0.0,0.0,0.0,0.0,0.0,0.0,0.0,0.0,0.0,0.0,0.0,0.0,0.0,0.0,0.0,0.0,0.0,0.0,0.0,0.0,0.0,0.0,0.0,0.0,0.0,0.0,0.0,0.0,0.0,0.0,0.0,0.0,0.0,0.0,0.0,0.0,0.0,0.0,0.0,0.0,0.0,0.0,0.0,0.0,0.0,0.0,0.0,0.0,0.0,0.0,0.0,0.0,0.0,0.0,0.0,0.0,0.0,0.0,0.0,0.0,0.0,0.0,0.0,0.0,0.0,0.0,0.0,0.0,0.0,0.0,0.0,0.0,0.0,0.0,0.0,0.0,0.0,0.0,0.0,0.0,0.0,0.0,0.0,0.0,0.0,0.0,0.0,0.0,0.0,0.0,0.0,0.0,0.0,0.0,0.0,0.0,0.0,0.0,0.0,0.0,0.0,0.0,0.0,0.0,0.0,0.0,0.0,0.0,0.0,0.0,0.0,0.0,0.0,0.0,0.0,0.0,0.0,0.0,0.0,0.0,0.0,0.0,0.0,0.0,0.0,0.0,0.0,0.0,0.0,0.0,0.0,0.0,0.0,0.0,0.0,0.0,0.0,0.0,0.0,0.0,0.0,0.0,0.0,0.0,0.0,0.0,0.0,0.0,0.0,0.0,0.0,0.0,0.0,0.0,0.0,0.0,0.0,0.0,0.0,0.0,0.0,0.0,0.0,0.0,0.0,0.0,0.0,0.0,0.0,0.0,0.0,0.0,0.0,0.0,0.0,0.0,0.0,0.0,0.0,0.0,0.0,0.0,0.0,0.0,0.0,0.0,0.0,0.0,0.0,0.0,0.0,0.0,0.0,0.0,0.0,0.0,0.0,0.0,0.0,0.0,0.0,0.0,0.0,0.0,0.0,0.0,0.0,0.0,0.0,0.0,0.0,0.0,0.0,0.0,0.0,0.0,0.0,0.0,0.0,0.0,0.0,0.0,0.0,0.0,0.0,0.0,0.0,0.0,0.0,0.0,0.0,0.0,0.0,0.0,0.0,0.0,0.0,0.0,0.0,0.0,0.0,0.0,0.0,0.0,0.0,0.0,0.0,0.0,0.0,0.0,0.0,0.0,0.0,0.0,0.0,0.0,0.0,0.0,0.0,0.0,0.0,0.0,0.0,0.0,0.0,0.0,0.0,0.0,0.0,0.0,0.0,0.0,0.0,0.0,0.0,0.0,0.0,0.0,0.0,0.0,0.0,0.0,0.0,0.0,0.0,0.0,0.0,0.0,0.0,0.0,0.0,0.0,0.0,0.0,0.0,0.0,0.0,0.0,0.0,0.0,0.0,0.0,0.0,0.0,0.0,0.0,0.0,0.0,0.0,0.0,0.0,0.0,0.0,0.0,0.0,0.0,0.0,0.0,0.0,0.0,0.0,0.0,0.0,0.0,0.0,0.0,0.0,0.0,0.0,0.0,0.0,0.0,0.0,0.0,0.0,0.0,0.0,0.0,0.0,0.0,0.0,0.0,0.0,0.0,0.0,0.0,0.0,0.0,0.0,0.0,0.0,0.0,0.0,0.0,0.0,0.0,0.0,0.0,0.0,0.0,0.0,0.0,0.0,0.0,0.0,0.0,0.0,0.0,0.0,0.0,0.0,0.0,0.0,0.0,0.0,0.0,0.0,0.0,0.0,0.0,0.0,0.0,0.0,0.0,0.0,0.0,0.0,0.0,0.0,0.0,0.0,0.0,0.0,0.0,0.0,0.0,0.0,0.0,0.0,0.0,0.0,0.0,0.0,0.0,0.0,0.0,0.0,0.0,0.0,0.0,0.0,0.0,0.0,0.0,0.0,0.0,0.0,0.0,0.0,0.0,0.0,0.0,0.0,0.0,0.0,0.0,0.0,0.0,0.0,0.0,0.0,0.0,0.0,0.0,0.0,0.0,0.0,0.0,0.0,0.0,0.0,0.0,0.0,0.0,0.0,0.0,0.0,0.0,0.0,0.0,0.0,0.0,0.0,0.0,0.0,0.0,0.0,0.0,0.0,0.0,0.0,0.0,0.0,0.0,0.0,0.0,0.0,0.0,0.0,0.0,0.0,0.0,0.0,0.0,0.0,0.0,0.0,0.0,0.0,0.0,0.0,0.0,0.0,0.0,0.0,0.0,0.0,0.0,0.0,0.0,0.0,0.0,0.0,0.0,0.0,0.0,0.0,0.0,0.0,0.0,0.0,0.0,0.0,0.0,0.0,0.0,0.0,0.0,0.0,0.0,0.0,0.0,0.0,0.0,0.0,0.0,0.0,0.0,0.0,0.0,0.0,0.0,0.0,0.0,0.0,0.0,0.0,0.0,0.0,0.0,0.0,0.0,0.0,0.0,0.0,0.0,0.0,0.0,0.0,0.0,0.0,0.0,0.0,0.0,0.0,0.0,0.0,0.0,0.0,0.0,0.0,0.0,0.0,0.0,0.0,0.0,0.0,0.0,0.0,0.0,0.0,0.0,0.0,0.0,0.0,0.0,0.0,0.0,0.0,0.0,0.0,0.0,0.0,0.0,0.0,0.0,0.0,0.0,0.0,0.0,0.0,0.0,0.0,0.0,0.0,0.0,0.0,0.0,0.0,0.0,0.0,0.0,0.0,0.0,0.0,0.0,0.0,0.0,0.0,0.0,0.0,0.0,0.0,0.0,0.0,0.0,0.0,0.0,0.0,0.0,0.0,0.0,0.0,0.0,0.0,0.0,0.0,0.0,0.0,0.0,0.0,0.0,0.0,0.0,0.0,0.0,0.0,0.0,0.0,0.0,0.0,0.0,0.0,0.0,0.0,0.0,0.0,0.0,0.0,0.0,0.0,0.0,0.0,0.0,0.0,0.0,0.0,0.0,0.0,0.0,0.0,0.0,0.0,0.0,0.0,0.0,0.0,0.0,0.0,0.0,0.0,0.0,0.0,0.0,0.0,0.0,0.0,0.0,0.0,0.0,0.0,0.0,0.0,0.0,0.0,0.0,0.0,0.0,0.0,0.0,0.0,0.0,0.0,0.0,0.0,0.0,0.0,0.0,0.0,0.0,0.0,0.0,0.0,0.0,0.0,0.0,0.0,0.0,0.0,0.0,0.0,0.0,0.0,0.0,0.0,0.0,0.0,0.0,0.0,0.0,0.0,0.0,0.0,0.0,0.0,0.0,0.0,0.0,0.0,0.0,0.0,0.0,0.0,0.0,0.0,0.0,0.0,0.0,0.0,0.0,0.0,0.0,0.0,0.0,0.0,0.0,0.0,0.0,0.0,0.0,0.0,0.0,0.0,0.0,0.0,0.0,0.0,0.0,0.0,0.0,0.0,0.0,0.0,0.0,0.0,0.0,0.0,0.0,0.0,0.0,0.0,0.0,0.0,0.0,0.0,0.0,0.0,0.0,0.0,0.0,0.0,0.0,0.0,0.0,0.0,0.0,0.0,0.0,0.0,0.0,0.0,0.0,0.0,0.0,0.0,0.0,0.0,0.0,0.0,0.0,0.0,0.0,0.0,0.0,0.0,0.0,0.0,0.0,0.0,0.0,0.0,0.0,0.0,0.0,0.0,0.0,0.0,0.0,0.0,0.0,0.0,0.0,0.0,0.0,0.0,0.0,0.0,0.0,0.0,0.0,0.0,0.0,0.0,0.0,0.0,0.0,0.0,0.0,0.0,0.0,0.0,0.0,0.0,0.0,0.0,0.0,0.0,0.0,0.0,0.0,0.0,0.0,0.0,0.0,0.0,0.0,0.0,0.0,0.0,0.0,0.0,0.0,0.0,0.0,0.0,0.0,0.0,0.0,0.0,0.0,0.0,0.0,0.0,0.0,0.0,0.0,0.0,0.0,0.0,0.0,0.0,0.0,0.0,0.0,0.0,0.0,0.0,0.0,0.0,0.0,0.0,0.0,0.0,0.0,0.0,0.0,0.0,0.0,0.0,0.0,0.0,0.0,0.0,0.0,0.0,0.0,0.0,0.0,0.0,0.0,0.0,0.0,0.0,0.0,0.0,0.0,0.0,0.0,0.0,0.0,0.0,0.0,0.0,0.0,0.0,0.0,0.0,0.0,0.0,0.0,0.0,0.0,0.0,0.0,0.0,0.0,0.0,0.0,0.0,0.0,0.0,0.0,0.0,0.0,0.0,0.0,0.0,0.0,0.0,0.0,0.0,0.0,0.0,0.0,0.0,0.0,0.0,0.0,0.0,0.0,0.0,0.0,0.0,0.0,0.0,0.0,0.0,0.0,0.0,0.0,0.0,0.0,0.0,0.0,0.0,0.0,0.0,0.0,0.0,0.0,0.0,0.0,0.0,0.0,0.0,0.0,0.0,0.0,0.0,0.0,0.0,0.0,0.0,0.0,0.0,0.0,0.0,0.0,0.0,0.0,0.0,0.0,0.0,0.0,0.0,0.0,0.0,0.0,0.0,0.0,0.0,0.0,0.0,0.0,0.0,0.0,0.0,0.0,0.0,0.0,0.0,0.0,0.0,0.0,0.0,0.0,0.0,0.0,0.0,0.0,0.0,0.0,0.0,0.0,0.0,0.0,0.0,0.0,0.0,0.0,0.0,0.0,0.0,0.0,0.0,0.0,0.0,0.0,0.0,0.0,0.0,0.0,0.0,0.0,0.0,0.0,0.0,0.0,0.0,0.0,0.0,0.0,0.0,0.0,0.0,0.0,0.0,0.0,0.0,0.0,0.0,0.0,0.0,0.0,0.0,0.0,0.0,0.0,0.0,0.0,0.0,0.0,0.0,0.0,0.0,0.0,0.0,0.0,0.0,0.0,0.0,0.0,0.0,0.0,0.0,0.0,0.0,0.0,0.0,0.0,0.0,0.0,0.0,0.0,0.0,0.0,0.0,0.0,0.0,0.0,0.0,0.0,0.0,0.0,0.0,0.0,0.0,0.0,0.0,0.0,0.0,0.0,0.0,0.0,0.0,0.0,0.0,0.0,0.0,0.0,0.0,0.0,0.0,0.0,0.0,0.0,0.0,0.0,0.0,0.0,0.0,0.0,0.0,0.0,0.0,0.0,0.0,0.0,0.0,0.0,0.0,0.0,0.0,0.0,0.0,0.0,0.0,0.0,0.0,0.0,0.0,0.0,0.0,0.0,0.0,0.0,0.0,0.0,0.0,0.0,0.0,0.0,0.0,0.0,0.0,0.0,0.0,0.0,0.0,0.0,0.0,0.0,0.0,0.0,0.0,0.0,0.0,1.9611,0.0,0.0,0.0,0.0,0.0,0.0,0.0,0.0,0.0,0.0,0.0,0.0,0.0,0.0,0.0,0.0,0.0,0.0,0.0,0.0,0.0,0.0,0.0,0.0,0.0,0.0,0.0,0.0,0.0,0.0,0.0,0.0,0.0,0.0,0.0,0.0,0.0,0.0,0.0,2.4264,2.502,2.5662,2.4103,2.3834,2.4633,0.0,0.0,0.0,0.0,0.0,0.0,0.0,0.0,0.0,0.0,0.0,0.0,0.0,0.0,0.0,0.0,0.0,0.0,0.0,0.0,0.0,0.0,0.0,0.0,0.0,0.0,0.0,0.0,0.0,0.0,0.0,0.0,0.0,0.0,0.0,0.0,0.0,0.0,0.0,0.0,0.0,0.0,0.0,0.0,0.0,0.0,0.0,0.0,0.0,0.0,0.0,0.0,0.0,0.0,0.0,0.0,0.0,0.0,0.0,0.0,0.0,0.0,0.0,0.0,0.0,0.0,0.0,0.0,0.0,0.0,0.0,2.0079,0.0,0.0,0.0,0.0,0.0,0.0,0.0,0.0,0.0,0.0,0.0,0.0,0.0,0.0,0.0,0.0,0.0,0.0,0.0,0.0,0.0,0.0,0.0,2.1614,2.1536,2.1324,2.1367,2.1588,0.0,0.0,0.0,0.0,0.0,0.0,2.3729,2.5007,2.5155,2.4048,2.5155,2.5706,2.5706,2.5706,2.5706,2.5706,2.5706,0.0,0.0,0.0,0.0,0.0,0.0,0.0,0.0,0.0,0.0,0.0,0.0,0.0,0.0,0.0,0.0,0.0,0.0,0.0,0.0,0.0,0.0,0.0,0.0,0.0,0.0,0.0,0.0,0.0,0.0,0.0,0.0,0.0,0.0,0.0,0.0,0.0,0.0,0.0,0.0,0.0,0.0,0.0,0.0,0.0,0.0,0.0,0.0,0.0,0.0,0.0,0.0,0.0,0.0,0.0,0.0,0.0,0.0,0.0,0.0,0.0,0.0,0.0,0.0,0.0,2.0357,2.0426,2.0601,2.0831,2.0599,2.045,2.0357,0.0,0.0,0.0,0.0,0.0,0.0,0.0,0.0,0.0,0.0,0.0,0.0,0.0,0.0,0.0,0.0,0.0,0.0,0.0,0.0,0.0,0.0,2.2862,2.2448,2.1391,2.166,2.1936,2.2002,2.2339,2.3126,2.4469,2.4735,2.5039,2.539,2.5582,2.5601,2.5443,2.5601,2.5706,2.5706,2.5706,2.5706,2.5706,2.5706,2.5706,2.5706,0.0,0.0,0.0,0.0,0.0,0.0,0.0,0.0,0.0,0.0,0.0,0.0,0.0,0.0,0.0,0.0,0.0,0.0,0.0,0.0,0.0,0.0,0.0,0.0,0.0,0.0,0.0,0.0,0.0,0.0,0.0,0.0,0.0,0.0,0.0,0.0,0.0,0.0,0.0,0.0,0.0,1.8384,1.8424,0.0,0.0,0.0,0.0,0.0,0.0,0.0,0.0,0.0,0.0,0.0,0.0,0.0,0.0,2.0197,2.0494,2.063,2.063,2.0869,2.0973,2.0986,2.1272,2.1451,2.1489,2.1673,0.0,2.0973,2.0973,0.0,0.0,0.0,0.0,0.0,0.0,0.0,0.0,0.0,0.0,0.0,0.0,0.0,0.0,0.0,0.0,0.0,0.0,0.0,0.0,0.0,2.3101,2.2992,2.2725,2.2889,2.3214,2.371,2.39,2.4428,2.5406,2.5449,2.5515,2.5706,2.5706,2.5706,2.5706,2.5706,2.5706,2.5706,2.5706,2.5706,2.5706,2.5706,2.5706,2.5706,2.5706,0.0,0.0,0.0,0.0,0.0,0.0,0.0,0.0,0.0,0.0,0.0,0.0,0.0,0.0,0.0,0.0,0.0,0.0,0.0,0.0,0.0,0.0,0.0,0.0,0.0,0.0,0.0,0.0,0.0,0.0,0.0,0.0,0.0,0.0,0.0,0.0,0.0,0.0,0.0,1.841,1.8571,1.8718,1.8892,1.9106,0.0,0.0,0.0,0.0,0.0,0.0,0.0,0.0,0.0,2.0481,2.0626,2.0802,2.0975,2.1141,2.1288,2.1432,2.1553,2.1603,2.1603,2.1753,2.1823,2.1836,2.1954,2.186,2.1603,2.1603,2.1603,2.1603,0.0,0.0,0.0,0.0,0.0,0.0,0.0,0.0,0.0,0.0,0.0,0.0,0.0,0.0,0.0,0.0,0.0,0.0,2.3101,2.3209,2.3426,2.3781,2.3996,2.4418,2.5055,2.52,2.5391,2.5686,2.5706,2.5706,2.5706,2.5706,2.5706,2.5706,2.5706,2.5706,2.5706,2.5706,2.5706,2.5706,2.5706,2.5706,2.5706,2.5706,2.5706,2.5706,0.0,0.0,0.0,0.0,0.0,0.0,0.0,0.0,0.0,0.0,0.0,0.0,0.0,0.0,0.0,0.0,0.0,0.0,0.0,0.0,0.0,0.0,0.0,0.0,0.0,0.0,0.0,0.0,0.0,0.0,0.0,0.0,0.0,0.0,0.0,0.0,0.0,1.8745,1.8905,1.9104,1.9412,1.9679,0.0,0.0,0.0,0.0,0.0,0.0,2.0546,2.0791,2.0967,2.1018,2.1232,2.1459,2.1689,2.1703,2.181,2.2007,2.2007,2.2007,2.2007,2.2074,2.2098,2.2114,2.2194,2.2221,2.2208,2.2061,2.2007,2.2007,2.2007,2.2007,0.0,2.2007,2.2007,2.2007,0.0,0.0,0.0,0.0,0.0,0.0,0.0,0.0,0.0,0.0,0.0,2.3101,2.3101,2.3504,2.3769,2.38,2.4554,2.5043,2.5094,2.5457,2.5686,2.5706,2.5706,2.5706,2.5706,2.5706,2.5706,2.5706,2.5706,2.5706,2.5706,2.5706,2.5706,2.5706,2.5706,2.5706,2.5706,2.5706,2.5706,2.5706,2.5706,0.0,0.0,0.0,0.0,0.0,0.0,0.0,0.0,0.0,0.0,0.0,0.0,0.0,0.0,0.0,0.0,0.0,0.0,0.0,0.0,0.0,0.0,0.0,0.0,0.0,0.0,0.0,0.0,0.0,0.0,0.0,0.0,0.0,0.0,0.0,0.0,0.0,0.0,1.9746,1.9998,0.0,0.0,0.0,0.0,2.0643,2.067,2.0911,2.1505,2.1545,2.1662,2.1927,2.1954,2.1967,2.1981,2.1981,2.1994,2.2007,2.2007,2.2007,2.2007,2.2255,2.2375,2.2402,2.2716,2.2853,2.2813,2.2235,2.2007,2.2007,2.2007,2.2007,2.2007,2.2007,2.2007,2.2007,0.0,0.0,0.0,0.0,0.0,0.0,0.0,0.0,2.3101,2.3101,2.3101,2.322,2.3524,2.3691,2.4027,2.4593,2.4926,2.5219,2.5476,2.562,2.5706,2.5706,2.5706,2.5706,2.5706,2.5706,2.5706,2.5706,2.5706,2.5706,2.5706,2.5706,2.5706,2.5706,2.5706,2.5706,2.5706,2.5706,2.5706,2.5706,2.5706,2.5706,0.0,0.0,0.0,0.0,0.0,0.0,0.0,0.0,0.0,0.0,0.0,0.0,0.0,0.0,0.0,0.0,0.0,0.0,0.0,0.0,0.0,0.0,0.0,0.0,0.0,0.0,0.0,0.0,0.0,0.0,0.0,0.0,0.0,0.0,0.0,0.0,0.0,2.0065,2.0319,0.0,0.0,2.0681,2.0922,2.1248,2.129,2.1448,2.1836,2.1863,2.2427,2.3621,2.2572,2.2635,2.3987,2.2844,2.2382,2.2586,2.2586,2.2586,2.2586,2.2676,2.2716,2.2729,2.2853,2.2893,2.288,2.2666,2.2586,2.2586,2.2586,2.2586,2.2586,2.2586,2.2586,2.2586,0.0,0.0,0.0,0.0,0.0,0.0,0.0,0.0,2.3101,2.3101,2.3229,2.3454,2.3781,2.4054,2.4476,2.5055,2.5227,2.543,2.5686,2.5706,2.5706,2.5706,2.5706,2.5706,2.5706,2.5706,2.5706,2.5706,2.5706,2.5706,2.5706,2.5706,2.5706,2.5706,2.5706,2.5796,2.5945,2.5945,2.5842,2.5706,2.5706,2.5706,2.5706,0.0,0.0,0.0,0.0,0.0,0.0,0.0,0.0,0.0,0.0,0.0,0.0,0.0,0.0,0.0,0.0,0.0,0.0,0.0,0.0,0.0,0.0,0.0,0.0,0.0,0.0,0.0,0.0,0.0,0.0,0.0,0.0,0.0,0.0,0.0,2.0359,2.0359,2.1264,2.1638,2.107,2.2326,2.2785,2.1813,2.2851,2.3382,2.3072,2.3597,2.4494,2.5773,2.4101,2.4152,2.613,2.4355,2.3559,2.3785,2.3785,2.3461,2.2893,2.2893,2.2893,2.2893,2.2893,2.2893,2.2893,2.2893,2.2893,2.2893,2.2893,2.2893,2.2893,2.2893,2.2893,2.2893,0.0,0.0,0.0,0.0,0.0,0.0,0.0,2.3101,2.3112,2.3131,2.3524,2.382,2.3839,2.4593,2.5114,2.5133,2.5476,2.5706,2.5706,2.5706,2.5706,2.5706,2.5706,2.5706,2.5706,2.5706,2.5706,2.5706,2.5706,2.5725,2.5725,2.5725,2.5745,2.5745,2.5745,2.5991,2.6419,2.6419,2.6172,2.5745,2.5745,2.5745,2.5745,0.0,0.0,0.0,0.0,0.0,0.0,0.0,0.0,0.0,0.0,0.0,0.0,0.0,0.0,0.0,0.0,0.0,0.0,0.0,0.0,0.0,0.0,0.0,0.0,0.0,0.0,0.0,0.0,0.0,0.0,0.0,0.0,0.0,2.0493,2.0508,2.0739,2.0739,2.2786,2.3542,2.1789,2.5055,2.5849,2.2369,2.5335,2.668,2.5271,2.6792,2.7882,2.8279,2.6523,2.6439,2.8246,2.6489,2.5568,2.55,2.5568,2.4672,2.2979,2.2979,2.2979,2.2979,2.2911,2.2893,2.2893,2.2893,2.2893,2.2893,2.2893,2.2893,2.2893,2.2893,2.2893,2.2893,0.0,0.0,0.0,0.0,0.0,0.0,2.3101,2.3101,2.3209,2.3563,2.3722,2.4035,2.4672,2.4957,2.5219,2.5515,2.564,2.5706,2.5706,2.5706,2.5706,2.5706,2.5706,2.5706,2.5706,2.5706,2.5706,2.5706,2.6042,2.6211,2.6211,2.6511,2.6635,2.6635,2.6635,2.6713,2.6836,2.6836,2.6765,2.6635,2.6635,2.6635,2.6635,0.0,0.0,0.0,0.0,0.0,0.0,0.0,0.0,0.0,0.0,0.0,0.0,0.0,0.0,0.0,0.0,0.0,0.0,0.0,0.0,0.0,0.0,0.0,0.0,0.0,0.0,0.0,0.0,0.0,0.0,0.0,0.0,2.3012,2.0862,2.102,2.1341,2.1341,2.3214,2.3799,2.2054,2.5177,2.6456,2.4397,2.6308,2.7522,2.7358,2.7802,2.8687,3.0043,2.8377,2.8312,3.0076,2.8345,2.6806,2.5517,2.6823,2.6523,2.4791,2.4791,2.4791,2.4723,2.3444,2.2893,2.2893,2.2893,2.2893,2.2893,2.2893,2.2893,2.2893,2.2893,2.2893,2.2893,0.0,0.0,0.0,0.0,0.0,0.0,2.3101,2.3101,2.3279,2.3742,2.3945,2.4328,2.5024,2.5246,2.5449,2.5686,2.5706,2.5706,2.5706,2.5706,2.5706,2.5706,2.5706,2.5706,2.5706,2.5893,2.5991,2.5991,2.6445,2.6641,2.666,2.6882,2.6999,2.6999,2.6999,2.7109,2.7285,2.7285,2.7383,2.7526,2.7526,2.7344,2.6999,2.6999,2.6999,2.6999,2.6999,2.6999,2.6999,2.6999,0.0,0.0,0.0,0.0,0.0,0.0,0.0,0.0,0.0,0.0,0.0,0.0,0.0,0.0,0.0,0.0,0.0,0.0,0.0,0.0,0.0,0.0,0.0,0.0,2.4984,2.569,2.3753,2.3116,2.2861,2.2861,2.5336,2.6053,2.3542,2.7277,2.8888,2.6557,2.8694,2.9847,2.931,2.998,3.0838,3.1867,3.0189,3.0229,3.2161,3.0421,2.9125,2.8274,2.9344,2.8877,2.7112,2.633,2.6383,0.0,2.4402,2.416,2.5562,2.4767,2.4908,0.0,0.0,0.0,0.0,0.0,2.2893,2.2893,0.0,0.0,0.0,0.0,0.0,0.0,2.3101,2.3101,2.3268,2.3789,2.418,2.4609,2.5102,2.5496,2.5706,2.5706,2.5706,2.5706,2.5706,2.5706,2.5706,2.5706,2.5706,2.5706,2.5706,2.6172,2.6399,2.6399,2.6855,2.7077,2.7077,2.7116,2.7155,2.7155,2.7155,2.7383,2.7774,2.7774,2.7962,2.8314,2.8314,2.7832,2.7155,2.7155,2.7155,2.7155,2.7155,2.7155,2.7155,2.7155,0.0,0.0,0.0,0.0,0.0,0.0,0.0,0.0,0.0,0.0,0.0,0.0,0.0,0.0,0.0,0.0,0.0,0.0,0.0,0.0,0.0,0.0,0.0,0.0,2.841,2.9248,2.7853,2.6296,2.5203,2.4978,2.8206,2.9133,2.5776,3.0268,3.2046,2.8739,3.1547,3.2714,3.1192,0.0,0.0,0.0,0.0,3.2185,3.4157,3.2558,3.1869,3.2098,3.2299,3.1441,2.9663,2.7983,2.8138,2.951,2.5959,2.6312,2.9254,2.7603,2.8017,2.946,2.6932,2.4994,2.3625,2.3625,2.3502,0.0,0.0,0.0,0.0,0.0,0.0,0.0,2.3101,2.3101,2.3385,2.4188,2.4344,2.4703,2.5503,2.5647,2.5706,2.5706,2.5706,2.5706,2.5706,2.5706,2.5706,2.5706,2.5706,2.5706,2.5706,2.6172,2.6399,2.6399,2.7194,2.7565,2.7565,2.7904,2.8047,2.8047,2.8047,2.8099,2.8177,2.8177,2.8236,2.8314,2.8314,2.8203,2.8047,2.8047,2.8047,2.8047,2.8047,2.8047,2.8047,2.8047,2.8047,2.8047,2.8047,2.8047,0.0,0.0,0.0,0.0,0.0,0.0,0.0,0.0,0.0,0.0,0.0,0.0,0.0,0.0,0.0,0.0,0.0,0.0,0.0,2.7385,2.8827,3.002,2.9833,2.9685,2.8984,2.7311,2.9241,2.9888,2.7802,3.1123,3.254,3.0448,3.2221,3.326,3.2924,3.3574,0.0,3.3961,3.395,3.4146,3.457,3.4243,3.3388,3.2132,0.0,0.0,3.1577,3.1189,3.1223,3.1459,2.9271,2.874,2.9357,2.8998,2.9936,3.1391,2.9411,2.8444,2.8136,2.8136,2.7177,2.5876,0.0,0.0,0.0,0.0,0.0,0.0,2.3101,2.3298,2.368,2.4324,2.4609,2.4988,2.5628,2.5706,2.5706,2.5706,2.5706,2.5706,2.5706,2.5706,2.5706,2.5706,2.5706,2.5815,2.6042,2.6484,2.6829,2.7057,2.7702,2.8015,2.8001,2.8418,2.8613,2.86,2.8842,2.8822,2.8613,2.8613,2.8476,2.8314,2.8314,2.8314,2.8314,2.8314,2.8314,2.8314,2.8314,2.8314,2.8314,2.8314,2.8314,2.8334,2.8535,2.8613,2.8652,0.0,0.0,0.0,0.0,0.0,0.0,0.0,0.0,0.0,0.0,0.0,0.0,0.0,0.0,2.7201,0.0,0.0,3.0062,3.0046,3.1056,3.1822,3.1885,3.2026,3.1391,2.949,3.0936,3.1416,2.967,3.1867,3.3035,3.2155,3.3117,3.375,3.375,3.416,3.4411,3.4411,3.4606,3.4805,3.5039,3.5039,3.4837,3.4408,3.5276,3.5358,3.4659,3.3743,3.3812,3.4555,3.172,3.158,3.3343,3.3343,3.388,3.4607,3.3708,3.2288,3.0648,2.9731,2.8808,2.8,0.0,0.0,0.0,0.0,0.0,0.0,0.0,2.3563,2.3976,2.4461,2.4867,2.5246,2.5659,2.5706,2.5706,2.5706,2.5706,2.5706,2.5706,2.5706,2.5706,2.5706,2.5706,2.5913,2.6399,2.6784,2.7226,2.7715,2.8099,2.8314,2.8301,2.8697,2.8912,2.8932,2.9389,2.935,2.8912,2.8912,2.8672,2.8314,2.8314,2.834,2.8418,2.8418,2.8373,2.8301,2.8379,2.8418,2.8437,2.8529,2.8549,2.8607,2.8932,2.9043,2.9121,2.9487,2.9657,0.0,0.0,0.0,0.0,0.0,0.0,0.0,0.0,2.6133,2.5722,2.7344,2.8055,2.8754,3.0067,3.0678,3.1414,3.2708,3.3187,3.3402,3.3402,3.3402,3.2876,3.1465,3.254,3.2861,3.1449,3.2664,3.3555,3.3555,3.3961,3.4231,3.4231,3.4609,3.4824,3.4824,3.5,3.527,3.5661,3.5723,3.613,3.6832,3.6832,3.699,3.725,3.5722,3.5864,3.7126,3.4036,3.445,3.7305,3.7305,3.7305,3.7305,3.7305,3.5578,3.2924,3.137,3.0583,3.024,0.0,0.0,0.0,0.0,0.0,0.0,0.0,0.0,2.4093,2.4906,2.5074,2.5246,2.5659,2.5706,2.5706,2.5706,2.5706,2.5706,2.5706,2.5706,2.5706,2.5706,2.5706,2.5913,2.6399,2.6784,2.7226,2.7715,2.8099,2.8314,2.8301,2.8697,2.8912,2.8932,2.9389,2.935,2.8912,2.8912,2.8672,2.8314,2.8314,2.8516,2.8834,2.8834,2.86,2.834,2.8697,2.8834,2.8893,2.9311,2.9461,2.9461,2.952,2.952,2.954,2.9579,2.9838,3.0089,2.9918,3.018,3.0111,2.8503,2.8246,2.8865,0.0,2.9947,2.956,3.123,3.1896,3.2231,3.2421,3.2781,3.3119,3.3293,3.3383,3.3402,3.3402,3.3402,3.3323,3.313,3.3292,3.3323,3.3133,3.3658,3.402,3.402,3.4411,3.4629,3.4629,3.5059,3.5312,3.5312,3.6072,3.6499,3.6541,3.6912,3.7129,3.7226,3.7226,3.7246,3.7305,3.7074,3.7091,3.7287,3.6862,3.6897,3.7305,3.7305,3.7305,3.7305,3.7305,3.7062,3.6656,3.6078,3.4775,3.3266,0.0,0.0,0.0,0.0,0.0,0.0,0.0,0.0,0.0,2.5016,2.5293,2.5503,2.5686,2.5706,2.5706,2.5706,2.5706,2.5706,2.5706,2.5706,2.5706,2.5706,2.5706,2.603,2.6738,2.6901,2.7331,2.8041,2.8216,2.8314,2.8301,2.8697,2.8912,2.8932,2.9389,2.935,2.8912,2.8912,2.8795,2.8639,2.8639,2.8906,2.9311,2.9311,2.9193,2.909,2.9252,2.9311,0.0,2.9526,2.9598,2.9637,2.9891,2.9955,2.9995,3.0268,3.0483,3.062,3.062,3.0918,3.1087,3.0382,2.9804,2.9871,3.1528,3.0976,3.057,3.2212,3.2871,3.3148,3.3148,3.3285,3.3402,0.0,3.3402,3.3402,3.3402,3.3402,3.3402,3.3402,3.3652,3.3824,3.3824,3.3981,3.4212,3.443,3.486,3.5098,3.5098,3.5779,3.615,3.615,3.6736,3.7049,3.7049,3.7207,3.7422,3.7638,3.7638,3.7793,3.8065,3.8065,3.8065,3.8065,3.8065,3.8065,3.8065,3.8065,3.8065,3.8065,3.8065,3.8065,3.7967,3.7303,3.6539,3.5813,0.0,0.0,0.0,0.0,0.0,0.0,0.0,0.0,0.0,0.0,2.5515,2.5706,2.5706,2.5706,2.5706,2.5706,2.5706,2.5706,2.5706,2.5706,2.5706,2.5706,2.5706,2.6108,2.6979,2.6999,2.7441,2.8314,2.8314,2.8314,2.8301,2.8697,2.8912,2.8932,2.9389,2.935,2.8912,2.9029,2.901,2.8912,2.9029,2.9355,2.9774,2.9774,2.9852,2.9936,2.9813,2.9774,2.9794,2.9897,2.997,2.9995,3.0307,3.0391,3.0449,3.0815,3.0991,3.1094,3.1226,3.1465,3.1699,3.1699,3.1123,3.0869,3.208,3.1766,3.1564,3.2731,3.3187,3.3402,3.3402,3.3402,3.3402,3.3402,3.3402,3.3402,3.3402,3.3402,3.3461,3.3594,3.3903,3.4176,3.4446,3.4466,3.4587,3.4863,3.543,3.5759,3.5759,3.6462,3.6871,3.6871,3.7246,3.7461,3.7461,3.7598,3.7793,3.8087,3.8087,3.8262,3.8592,3.8592,3.8592,3.8592,3.8592,3.8592,3.8592,3.8592,3.8592,3.8592,3.8592,3.8592,3.8514,3.7889,3.7578,3.7461,0.0,0.0,0.0,0.0,0.0,0.0,0.0,0.0,0.0,0.0,0.0,0.0,0.0,2.5706,2.5706,2.5706,2.5706,2.5706,2.5706,2.5706,2.5706,2.5706,2.5706,2.6108,2.6979,2.6999,2.7441,2.8314,2.8314,2.8314,2.8301,2.8697,2.8912,2.8932,2.9389,2.935,2.8932,2.9389,2.9311,2.8932,2.9389,2.9819,3.0176,3.0176,3.0449,3.0815,3.0366,3.0176,3.0254,3.0718,3.0874,3.0874,3.0859,3.0874,3.0879,3.0893,3.1191,3.1567,3.2042,3.2179,3.2179,3.2179,3.2446,3.2727,3.2773,3.3074,3.3319,3.3367,3.3402,3.3402,3.3402,3.3402,3.3402,3.3402,3.3402,3.3402,3.3402,3.3402,3.3558,3.402,3.4079,3.443,0.0,3.5351,3.5368,3.5388,3.6169,3.6675,3.6675,3.7068,3.7285,3.7285,3.7658,3.7892,3.7892,3.832,3.8571,3.8573,3.8573,3.8573,3.8592,3.8592,3.8592,3.8592,3.8592,3.8592,3.8592,3.8592,3.8592,3.8592,3.8592,3.8592,3.8611,3.8573,3.8262,3.7834,0.0,0.0,0.0,0.0,0.0,0.0,0.0,0.0,0.0,0.0,0.0,0.0,0.0,0.0,0.0,0.0,2.5706,2.5706,2.5706,2.5706,2.5706,2.5706,2.5706,2.6108,2.6979,2.6999,2.7441,2.8314,2.8314,2.8314,2.8301,2.8437,2.8496,2.8516,2.8666,2.8646,2.8535,2.8965,2.9219,2.9408,2.9819,3.0268,3.0664,3.0664,3.0776,3.0874,0.0,3.0664,3.0684,3.0854,3.0913,3.0913,3.0913,3.1074,3.1367,3.1675,3.1851,3.1988,3.2159,3.2378,3.2593,3.2593,3.2891,3.3187,3.3187,3.3304,3.3402,3.3402,3.3402,3.3402,3.3402,3.3402,3.3402,3.3402,3.3402,3.3402,3.3402,3.3672,3.3922,3.4095,3.4606,0.0,0.0,0.0,0.0,3.6208,3.6521,3.6832,3.7088,3.748,3.7697,3.7697,3.8125,3.8359,3.8359,3.8514,3.8729,3.9004,3.9297,3.9453,3.9453,3.9453,3.9453,3.9453,3.9453,3.9453,3.9453,3.9453,3.9453,3.9453,3.9453,3.9453,3.9453,3.9453,3.9355,3.9121,0.0,0.0,0.0,0.0,0.0,0.0,0.0,0.0,0.0,0.0,0.0,0.0,0.0,0.0,0.0,0.0,0.0,2.5706,2.5706,2.5706,2.5706,2.5706,2.5854,2.6277,2.6979,2.7155,2.7598,2.8314,2.8314,2.8314,2.8314,2.8314,2.8314,2.8314,2.8314,2.8314,2.8353,2.8906,2.9316,2.9657,3.0229,3.0625,3.0913,3.0913,3.0913,0.0,3.0913,3.0913,3.0913,3.0913,3.0913,3.0932,3.1074,3.1406,3.1836,3.2281,3.2398,3.2452,3.2593,3.2812,3.3008,3.3008,3.3207,3.3402,3.3402,3.3402,3.3402,3.3402,3.3402,3.3402,3.3402,3.3402,3.3402,3.3402,3.3539,3.3652,3.3652,3.4023,3.4372,3.4547,3.5075,3.5508,0.0,0.0,0.0,3.6675,3.697,3.7226,3.75,3.793,3.8164,3.8164,3.8436,3.8671,3.8807,3.8807,3.9042,3.9453,3.9746,3.9902,3.9902,3.9902,3.9902,3.9902,3.9902,3.9902,3.9902,3.9902,3.9902,3.9902,3.9902,3.9902,3.9902,3.9902,3.9902,3.9824,0.0,0.0,0.0,0.0,0.0,0.0,0.0,0.0,0.0,0.0,0.0,0.0,0.0,0.0,0.0,0.0,0.0,0.0,2.5706,2.5706,2.5706,2.5706,2.6133,2.6562,2.6999,2.7435,2.7878,2.8314,2.8314,2.8314,2.8314,2.8314,2.8314,2.8314,2.8314,2.8301,2.8392,2.9246,2.9618,2.9715,3.0561,3.0913,3.0913,3.0913,3.0913,3.0913,3.0913,3.0913,3.0913,3.0913,3.0898,3.0996,3.1426,3.187,3.2316,3.2695,3.2832,3.291,3.3304,3.3402,3.3402,3.3402,3.3402,3.3402,3.3402,3.3402,3.3402,3.3402,3.3402,3.3402,3.3402,3.3402,3.3402,3.3402,3.3789,3.4114,3.4114,3.4469,3.4902,0.0,0.0,0.0,0.0,0.0,0.0,3.6773,0.0,3.7912,3.7931,3.8377,3.8612,3.8631,3.8631,3.8827,3.9238,3.9258,3.9492,3.9922,3.996,3.9961,3.9961,3.9961,3.9961,3.9961,3.9961,3.9961,3.9961,3.9961,3.9961,3.9961,3.9961,3.9961,3.9961,3.9961,3.9961,3.9961,0.0,0.0,0.0,0.0,0.0,0.0,0.0,0.0,0.0,0.0,0.0,0.0,0.0,0.0,0.0,0.0,0.0,0.0,2.5706,2.5706,2.5706,2.5706,2.5803,2.6225,2.6979,2.7129,2.7539,2.8314,2.8314,2.8314,2.8314,2.8314,2.8314,2.8314,2.8314,2.8476,2.8775,2.935,2.976,3.0112,3.0678,3.0913,3.0913,3.0913,3.0913,3.0913,3.0913,3.0913,3.0913,3.0913,3.1094,3.1426,3.189,3.232,3.273,3.3144,3.3246,3.3265,3.3383,3.3402,3.3402,3.3402,3.3402,3.3402,3.3402,3.3402,3.3402,3.3402,3.3402,3.3402,3.3402,3.3402,3.3402,3.3402,3.3789,3.4114,3.4114,3.4743,0.0,3.5391,0.0,3.646,3.6675,3.7226,0.0,0.0,3.7795,3.8048,3.8398,3.8534,3.8729,3.9023,3.9043,3.9258,3.9726,4.002,4.0235,4.0352,4.0703,4.0859,4.0859,4.0859,4.0859,4.0859,4.0859,4.0859,4.0859,4.0859,4.0859,4.0859,4.0859,4.0859,4.0859,4.0859,4.0859,4.0859,0.0,0.0,0.0,0.0,0.0,0.0,0.0,0.0,0.0,0.0,0.0,0.0,0.0,0.0,0.0,0.0,0.0,0.0,0.0,2.5706,2.5706,2.5706,2.5893,2.6316,2.6979,2.7207,2.7637,2.8314,2.8314,2.8314,2.8314,2.8314,2.8314,2.8314,2.8314,2.8418,2.8691,2.9344,2.9735,0.0,0.0,3.0913,3.0913,3.0913,3.0913,3.0913,3.0913,3.0913,3.0932,3.1094,3.1445,3.1855,3.212,3.2593,3.3105,3.3344,3.3402,3.3402,3.3402,3.3402,3.3402,3.3402,3.3402,3.3402,3.3402,3.3402,3.3402,3.3402,3.3402,3.3402,3.3402,3.3402,3.3402,3.3402,3.3945,3.4352,3.4352,3.5117,3.5664,3.5664,3.6287,0.0,3.6951,3.7539,3.799,0.0,3.8203,3.832,3.8573,3.8768,3.8983,3.9199,3.9394,3.9726,4.0176,4.0586,4.0801,4.082,4.1074,4.1191,4.1191,4.1191,4.1191,4.1191,0.0,4.1191,4.1191,4.1191,4.1191,4.1191,4.1191,4.1191,4.1191,4.1191,4.1191,4.1191,0.0,0.0,0.0,0.0,0.0,0.0,0.0,0.0,0.0,0.0,0.0,0.0,0.0,0.0,0.0,0.0,0.0,0.0,0.0,0.0,2.5706,2.5706,2.6081,2.6504,2.6901,2.7376,2.7819,2.8216,2.8262,2.8314,2.8314,2.8314,2.8314,2.8314,2.8314,2.8334,2.8418,2.9188,2.9565,2.9755,3.0503,3.084,3.0913,0.0,3.0913,3.0913,3.0913,3.0913,3.0957,3.1352,3.1816,3.2218,3.2257,3.2808,3.3402,3.3402,3.3402,3.3402,3.3402,3.3402,3.3402,3.3402,3.3402,3.3402,3.3402,3.3402,3.3402,3.3402,3.3402,3.3402,3.3402,3.3402,3.3422,3.348,3.418,3.4726,3.4785,3.5491,3.6018,3.6077,3.6484,3.6931,3.7344,3.7736,3.8164,3.8573,3.8651,3.8671,3.8671,3.9062,3.9316,3.9375,3.9824,4.0234,4.0586,4.0996,4.1191,4.1191,4.1191,4.1191,4.1191,4.1191,4.1191,4.1191,0.0,0.0,4.1191,4.1191,4.1191,4.1191,4.1191,4.1191,4.1191,4.1191,4.1191,4.1191,0.0,0.0,0.0,0.0,0.0,0.0,0.0,0.0,0.0,0.0,2.5706,0.0,0.0,0.0,0.0,0.0,0.0,0.0,0.0,0.0,0.0,2.5706,2.5776,2.6042,2.6484,2.6914,2.7357,2.78,2.8138,2.8314,2.8314,2.8314,2.8314,2.8314,2.8314,2.8476,2.8814,2.8951,2.9434,3.0112,3.0254,3.0547,3.0913,3.0913,0.0,0.0,3.0913,3.0913,3.0957,3.1352,3.1816,3.2257,3.2593,3.3027,3.3402,3.3402,3.3402,3.3402,3.3402,3.3402,3.3402,3.3402,3.3402,3.3402,3.3402,3.3402,3.3402,3.3402,3.3402,3.3402,3.3402,3.3402,3.3519,3.3922,3.4375,3.4824,3.5215,3.5703,3.6135,3.6541,3.6951,3.7344,3.7756,3.8203,0.0,0.0,0.0,0.0,3.9101,3.9531,3.9941,4.0254,4.0723,4.1015,4.1074,4.1152,4.1191,4.1191,4.1191,4.1191,4.1191,4.1191,4.1191,4.1191,0.0,0.0,4.1191,4.1191,4.1191,4.1191,4.1191,4.1191,4.1191,4.1191,4.1191,4.1191,0.0,0.0,0.0,0.0,0.0,0.0,0.0,0.0,0.0,0.0,2.5706,2.5706,0.0,0.0,0.0,0.0,0.0,0.0,0.0,0.0,0.0,0.0,2.5706,2.5913,2.6399,2.6582,2.7024,2.7715,0.0,2.808,2.8314,2.8314,2.8314,2.8314,2.8314,2.8398,2.8613,2.8814,2.9146,2.9556,3.0019,3.0332,3.0547,0.0,0.0,0.0,3.0913,3.1035,3.1289,3.1734,3.2164,3.2535,3.2734,3.3086,3.3402,3.3402,3.3402,3.3402,3.3402,3.3402,3.3402,3.3402,3.3402,3.3402,3.3402,3.3402,3.3402,3.3402,3.3402,3.3402,3.3402,3.3613,3.3844,3.4059,3.4645,3.5137,3.5371,3.5762,3.6155,3.6638,3.7068,3.7461,3.7873,3.832,3.869,0.0,0.0,0.0,3.9219,3.9825,4.041,4.084,4.1094,4.1191,4.1191,4.1191,4.1191,4.1191,4.1191,4.1191,4.1191,4.1191,4.1191,4.1191,0.0,0.0,4.1191,4.1191,4.1191,4.1191,4.1191,4.1191,4.1191,4.1191,4.1191,4.1191,0.0,0.0,0.0,0.0,0.0,0.0,0.0,2.5706,2.5706,2.5706,2.5706,2.5706,2.5706,2.5706,0.0,0.0,0.0,0.0,0.0,0.0,0.0,0.0,0.0,0.0,2.625,0.0,0.0,2.7428,2.7604,0.0,0.0,0.0,0.0,0.0,2.8314,2.8314,2.832,2.8652,2.8834,0.0,0.0,3.0117,0.0,0.0,0.0,0.0,0.0,3.1152,3.1567,3.2027,3.2457,3.2812,3.291,3.3164,3.3402,3.3402,3.3402,3.3402,3.3402,3.3402,3.3402,3.3402,3.3402,3.3402,3.3402,3.3402,3.3402,3.3402,3.3402,3.3402,3.3402,3.3769,3.4134,3.4215,3.4899,3.543,3.5508,3.5784,3.6211,3.6756,3.7107,3.75,3.799,3.8379,0.0,0.0,0.0,0.0,3.9629,4.0293,4.082,4.1191,4.1191,4.1191,4.1191,4.1191,4.1191,4.1191,4.1191,4.1191,4.1191,4.1191,4.1191,4.1191,0.0,0.0,0.0,4.1191,4.1191,4.1191,4.1191,4.1191,4.1191,4.1191,4.1191,4.1191,0.0,0.0,0.0,0.0,0.0,0.0,0.0,2.5706,2.5706,2.5706,2.5706,2.5706,2.5706,2.5706,0.0,0.0,0.0,0.0,0.0,0.0,0.0,0.0,0.0,0.0,0.0,0.0,0.0,2.6516,2.7311,0.0,0.0,0.0,0.0,0.0,0.0,2.8314,2.8314,2.8353,0.0,0.0,0.0,0.0,0.0,0.0,0.0,0.0,0.0,3.1152,3.1567,3.2027,3.2457,3.2871,3.3226,3.3383,3.3402,3.3402,3.3402,3.3402,3.3402,3.3402,3.3402,3.3402,3.3402,3.3402,3.3402,3.3402,3.3402,3.3402,3.3402,3.3402,3.3402,3.3769,3.4215,3.4606,3.5059,3.5527,3.5881,3.5979,3.6311,3.7148,3.7266,3.7635,3.8456,3.8573,3.8768,0.0,0.0,0.0,0.0,4.1094,4.1152,4.1191,4.1191,4.1191,4.1191,4.1191,4.1191,4.1191,4.1191,4.1191,4.1191,4.1191,4.1191,4.1191,0.0,0.0,0.0,4.1191,4.1191,4.1191,4.1191,4.1191,4.1191,4.1191,4.1191,4.1191,0.0,0.0,0.0,0.0,0.0,0.0,0.0,2.5706,2.5706,2.5706,2.5706,2.5706,2.5706,2.5706,2.5706,0.0,0.0,0.0,0.0,0.0,0.0,0.0,0.0,0.0,0.0,0.0,2.612,2.6399,2.6751,0.0,0.0,0.0,0.0,0.0,0.0,2.8314,2.8314,2.8314,0.0,0.0,0.0,0.0,0.0,0.0,0.0,0.0,0.0,0.0,3.1949,3.214,3.2633,3.3187,3.3363,3.3402,3.3402,3.3402,3.3402,3.3402,3.3402,3.3402,3.3402,3.3402,3.3402,3.3402,3.3402,3.3402,3.3402,3.3402,3.3402,3.3402,3.3402,3.3984,3.4512,3.4668,3.5312,3.582,3.5979,3.625,3.6638,3.7226,3.7502,3.791,3.8534,0.0,3.9238,0.0,0.0,0.0,0.0,4.1191,4.1191,4.1191,4.1191,4.1191,4.1191,4.1191,4.1191,4.1191,4.1191,4.1191,4.1191,4.1191,4.1191,0.0,0.0,0.0,0.0,4.1191,4.1191,4.1191,4.1191,4.1191,4.1191,4.1191,4.1191,4.1191,0.0,0.0,0.0,0.0,0.0,0.0,2.5706,2.5706,2.5706,2.5706,2.5706,2.5706,2.5706,2.5706,2.5706,2.5706,0.0,0.0,0.0,0.0,0.0,0.0,0.0,0.0,0.0,0.0,2.5854,2.6191,2.634,2.677,0.0,0.0,2.7917,2.8314,0.0,0.0,0.0,0.0,0.0,0.0,0.0,0.0,0.0,0.0,0.0,0.0,0.0,0.0,0.0,0.0,0.0,3.3402,3.3402,3.3402,3.3402,3.3402,3.3402,3.3402,3.3402,3.3402,3.3402,3.3402,3.3402,3.3402,3.3402,3.3402,3.3402,3.3402,3.3402,3.3402,3.3402,3.4105,3.4707,3.4707,3.5432,3.5999,3.5999,3.6387,3.6834,3.7246,3.7658,3.8068,3.8553,3.91,0.0,0.0,0.0,0.0,0.0,4.1191,4.1191,4.1191,4.1191,4.1191,4.1191,4.1191,4.1191,4.1191,4.1191,4.1191,4.1191,4.1191,4.1191,0.0,0.0,0.0,0.0,4.1191,4.1191,4.1191,4.1191,4.1191,4.1191,4.1191,4.1191,4.1191,0.0,0.0,0.0,0.0,0.0,0.0,0.0,2.5706,2.5706,2.5706,2.5706,2.5706,2.5706,2.5706,2.5706,2.5706,0.0,0.0,0.0,0.0,0.0,0.0,0.0,0.0,0.0,0.0,0.0,2.5706,2.6172,2.6602,2.7018,2.7474,2.7917,2.8314,0.0,0.0,0.0,0.0,0.0,0.0,0.0,0.0,0.0,0.0,0.0,0.0,0.0,0.0,0.0,0.0,0.0,0.0,0.0,3.3402,3.3402,3.3402,3.3402,3.3402,3.3402,3.3402,3.3402,3.3402,3.3402,3.3402,3.3402,3.3402,3.3402,3.3402,3.3402,3.3402,3.3402,3.4105,3.4707,3.4707,3.5432,3.5999,3.5999,3.6387,3.6834,3.7246,3.7658,3.8068,3.8553,3.9375,0.0,0.0,0.0,0.0,0.0,4.1191,4.1191,4.1191,4.1191,4.1191,4.1191,4.1191,4.1191,4.1191,4.1191,4.1191,4.1191,4.1191,0.0,0.0,0.0,0.0,0.0,4.1191,4.1191,4.1191,4.1191,4.1191,4.1191,4.1191,4.1191,4.1191,0.0,0.0,0.0,0.0,0.0,0.0,0.0,2.5706,2.5706,2.5706,2.5706,2.5706,2.5706,2.5706,2.5706,2.5706,0.0,0.0,0.0,0.0,0.0,0.0,0.0,0.0,0.0,0.0,0.0,2.5706,2.5854,2.6159,2.6602,2.7012,2.7454,2.7897,2.8177,2.8314,0.0,0.0,0.0,0.0,0.0,0.0,0.0,0.0,0.0,0.0,0.0,0.0,0.0,0.0,0.0,0.0,0.0,0.0,0.0,3.3402,3.3402,3.3402,3.3402,3.3402,3.3402,3.3402,3.3402,3.3402,3.3402,3.3402,3.3402,3.3402,3.3402,3.3402,3.3402,3.4105,3.4707,3.4707,3.5432,3.5999,3.5999,3.6641,3.7166,3.7285,3.793,3.8652,0.0,0.0,0.0,0.0,0.0,0.0,0.0,0.0,4.1191,4.1191,4.1191,4.1191,4.1191,4.1191,4.1191,4.1191,4.1191,4.1191,4.1191,4.1191,0.0,0.0,0.0,0.0,0.0,4.1191,4.1191,4.1191,4.1191,4.1191,4.1191,4.1191,4.1191,4.123,0.0,0.0,0.0,0.0,0.0,0.0,0.0,2.5706,2.5706,2.5706,2.5706,2.5706,2.5706,2.5706,2.5706,2.5706,0.0,0.0,0.0,0.0,0.0,0.0,0.0,0.0,0.0,0.0,2.5706,2.5706,2.5706,2.5932,2.6419,2.6816,2.7246,2.7715,2.8119,0.0,0.0,0.0,0.0,0.0,0.0,0.0,3.0913,0.0,0.0,0.0,0.0,0.0,0.0,0.0,0.0,0.0,0.0,0.0,0.0,0.0,3.3402,3.3402,3.3402,3.3402,3.3402,3.3402,3.3402,3.3402,3.3402,3.3402,3.3402,3.3402,3.3402,3.3461,3.3633,3.4238,3.4766,3.4941,3.5566,3.5999,3.5999,3.6758,3.7422,3.7752,3.8398,0.0,0.0,0.0,0.0,0.0,0.0,0.0,0.0,0.0,4.1191,4.1191,4.1191,4.1191,4.1191,4.1191,4.1191,4.1191,4.1191,4.1191,4.1191,0.0,0.0,0.0,0.0,0.0,0.0,4.1191,4.1191,4.1191,4.1191,4.1191,4.1211,4.1367,4.1426,4.1484,0.0,0.0,0.0,0.0,0.0,0.0,0.0,0.0,0.0,0.0,2.5706,2.5706,2.5706,2.5706,2.5706,0.0,0.0,0.0,0.0,0.0,0.0,0.0,0.0,0.0,0.0,2.5706,2.5706,2.5706,2.5706,2.5913,2.636,2.6797,2.7226,2.7663,2.8099,2.8314,0.0,0.0,0.0,0.0,2.9598,3.0126,0.0,0.0,0.0,0.0,0.0,0.0,0.0,0.0,0.0,0.0,0.0,0.0,0.0,0.0,0.0,0.0,0.0,3.3402,3.3402,3.3402,3.3402,3.3402,3.3402,3.3402,0.0,3.3402,3.3402,3.3539,3.4,3.443,3.4844,3.5312,3.5742,3.6018,3.6038,3.6797,3.7656,3.8495,3.8964,0.0,0.0,0.0,0.0,0.0,0.0,0.0,0.0,0.0,0.0,4.1191,4.1191,4.1191,4.1191,4.1191,4.1191,4.1191,4.1191,4.1191,4.1191,0.0,0.0,0.0,0.0,0.0,0.0,4.1191,4.1191,4.1191,4.1191,4.1211,4.1289,4.166,4.1816,4.1894,0.0,0.0,0.0,0.0,0.0,0.0,0.0,0.0,0.0,0.0,2.5706,2.5706,2.5706,2.5706,0.0,0.0,0.0,0.0,0.0,0.0,0.0,0.0,0.0,0.0,0.0,2.5706,2.5706,2.5706,2.5706,2.5764,2.5874,2.6635,2.7057,2.7207,2.7949,2.8314,2.8314,0.0,0.0,0.0,2.9598,3.0126,0.0,0.0,0.0,0.0,3.125,3.1719,0.0,0.0,0.0,0.0,0.0,0.0,0.0,0.0,3.3402,3.3402,3.3402,0.0,3.3402,3.3402,3.3402,3.3402,0.0,3.3402,3.3402,3.3402,3.3402,3.3539,3.4,3.443,3.4844,3.5312,3.5742,3.6116,3.6482,3.7246,3.7969,3.8534,3.8964,3.9394,0.0,0.0,0.0,0.0,0.0,0.0,0.0,0.0,4.1191,4.1191,4.1191,4.1191,4.1191,4.1191,4.1191,4.1191,4.1191,4.1191,4.1191,0.0,0.0,0.0,0.0,0.0,0.0,4.1191,4.1191,4.1191,4.1191,4.1387,4.166,4.1758,4.1992,4.2324,0.0,0.0,0.0,0.0,0.0,0.0,0.0,0.0,0.0,0.0,0.0,0.0,0.0,0.0,0.0,0.0,0.0,0.0,0.0,0.0,0.0,0.0,0.0,0.0,2.5706,2.5706,2.5706,2.5706,2.5706,2.5706,2.5725,2.6596,2.6999,2.7038,2.791,2.8314,2.8314,2.8314,2.8803,2.9598,2.9598,0.0,0.0,0.0,0.0,0.0,3.1352,3.1797,0.0,3.2672,3.3066,3.3402,0.0,0.0,0.0,0.0,3.3402,3.3402,3.3402,3.3402,3.3402,3.3402,3.3402,3.3402,3.3402,3.3402,3.3402,3.3402,3.3558,3.3848,3.4293,3.4743,3.5156,3.5605,3.5862,3.6233,3.6892,3.7519,3.8068,3.8534,3.9159,3.9609,0.0,0.0,0.0,0.0,0.0,0.0,0.0,0.0,4.1191,0.0,4.1191,4.1191,4.1191,4.1191,4.1191,4.1191,4.1191,4.1191,4.1191,0.0,0.0,0.0,0.0,0.0,4.1191,4.1191,4.1191,4.1211,4.1406,4.1601,4.1855,4.2246,4.2519,4.2793,0.0,0.0,0.0,0.0,0.0,0.0,0.0,0.0,0.0,0.0,0.0,0.0,0.0,0.0,0.0,0.0,0.0,0.0,0.0,0.0,0.0,0.0,0.0,2.5706,2.5706,2.5706,2.5706,2.5706,2.5706,2.5745,2.5823,2.6628,2.7077,2.7233,2.7969,2.8314,2.8301,2.8373,2.8861,2.9598,2.9676,0.0,0.0,0.0,0.0,0.0,0.0,0.0,0.0,3.2769,3.3125,3.3402,3.3402,0.0,0.0,0.0,0.0,0.0,3.3402,3.3402,3.3402,3.3402,3.3402,3.3402,3.3402,3.3402,3.3402,3.3402,3.3769,3.4215,3.4645,3.5078,3.5527,3.594,3.6116,3.6465,3.7187,3.7715,3.8146,3.8553,3.9374,0.0,0.0,0.0,0.0,0.0,0.0,0.0,0.0,0.0,0.0,4.1191,4.1191,4.1191,4.1191,4.1191,4.1191,4.1191,4.1191,4.1191,4.1191,4.1191,0.0,0.0,0.0,0.0,4.1191,4.1191,4.1191,4.123,4.1641,4.1836,4.1992,4.2813,4.3145,4.3243,0.0,0.0,0.0,0.0,0.0,0.0,0.0,0.0,0.0,0.0,0.0,0.0,0.0,0.0,0.0,0.0,0.0,0.0,0.0,0.0,0.0,0.0,2.5706,2.5706,2.5706,2.5706,2.5706,2.5706,2.5706,2.5893,2.6289,2.6765,2.7389,2.8119,2.8242,2.8314,2.832,2.8658,2.9101,2.9618,2.9975,0.0,0.0,0.0,0.0,0.0,0.0,0.0,0.0,3.3168,3.3363,3.3402,3.3402,0.0,0.0,0.0,0.0,0.0,3.3402,3.3402,3.3402,3.3402,3.3402,3.3402,3.3402,3.3402,3.3402,3.3402,3.3769,3.4215,3.4645,3.5078,3.5527,3.594,3.6604,3.7148,0.0,0.0,3.8514,3.8592,0.0,0.0,0.0,0.0,0.0,0.0,0.0,0.0,0.0,0.0,0.0,4.1191,4.1191,4.1191,4.1191,4.1191,4.1191,4.1191,4.1191,4.1191,4.1191,4.1191,4.1191,0.0,0.0,0.0,4.1191,4.1191,4.1191,4.123,4.1641,4.2012,4.2363,4.2891,4.3321,4.3613,0.0,0.0,0.0,0.0,0.0,0.0,0.0,0.0,0.0,0.0,0.0,0.0,0.0,0.0,0.0,0.0,0.0,0.0,0.0,0.0,0.0,2.5706,2.5706,2.5706,2.5706,2.5706,2.5706,2.5706,2.5952,2.6191,2.6419,2.7063,2.7708,2.8314,2.8314,2.8418,2.8652,2.8834,2.9297,2.9936,0.0,0.0,0.0,0.0,0.0,0.0,0.0,0.0,0.0,0.0,3.3402,3.3402,3.3402,0.0,0.0,0.0,0.0,0.0,3.3402,3.3402,3.3402,3.3402,3.3402,3.3402,3.3402,3.3613,3.3785,3.3785,3.4316,3.486,3.5039,3.543,3.5879,3.6326,0.0,3.7383,3.758,3.8202,3.8592,0.0,0.0,0.0,0.0,0.0,0.0,0.0,0.0,0.0,0.0,0.0,0.0,0.0,4.1191,4.1191,4.1191,4.1191,4.1191,4.1191,4.1191,4.1191,4.1191,4.1191,4.1191,0.0,0.0,4.1191,4.1191,4.1191,4.1191,4.125,4.1894,4.2246,4.248,4.3164,4.3535,4.3711,0.0,0.0,0.0,0.0,0.0,0.0,0.0,0.0,0.0,0.0,0.0,0.0,0.0,0.0,0.0,0.0,0.0,0.0,0.0,0.0,2.5706,2.5706,2.5706,2.5706,2.5706,2.5706,2.5706,2.5706,2.6172,2.6497,2.6712,2.7487,2.8001,2.8301,2.8398,2.86,2.8912,2.9127,2.9576,3.0215,0.0,0.0,0.0,0.0,0.0,0.0,0.0,0.0,0.0,0.0,0.0,0.0,0.0,0.0,0.0,3.3402,3.3402,3.3402,3.3402,3.3402,3.3402,3.3402,3.3402,3.3441,3.3539,3.3844,3.4134,3.4215,3.486,3.5391,3.5391,3.5742,3.6135,3.6619,3.7049,3.7441,3.7853,0.0,0.0,0.0,0.0,0.0,0.0,0.0,0.0,0.0,0.0,0.0,0.0,0.0,0.0,0.0,4.1191,4.1191,4.1191,4.1191,4.1191,4.1191,4.1191,4.1191,4.1191,4.1191,4.1191,4.1191,4.1191,4.1191,4.1191,4.1191,4.125,4.1406,4.2109,4.2519,4.2792,4.3457,4.3711,4.3711,0.0,0.0,0.0,0.0,0.0,0.0,0.0,0.0,0.0,0.0,0.0,0.0,0.0,0.0,0.0,0.0,0.0,0.0,0.0,0.0,2.5706,2.5706,2.5706,2.5706,2.5706,2.5706,2.5706,2.5706,2.6172,2.6809,2.7617,2.8041,2.8262,2.8334,2.8697,2.8873,2.8951,2.9766,3.0137,3.0234,3.0664,0.0,0.0,0.0,0.0,0.0,0.0,0.0,0.0,0.0,0.0,0.0,0.0,0.0,3.3402,3.3402,3.3402,3.3402,3.3402,3.3402,3.3402,3.3402,3.3402,3.3519,3.3942,3.4075,3.4212,3.457,3.5039,3.5391,3.5391,3.5742,3.6135,3.6619,3.7049,3.7441,0.0,0.0,0.0,0.0,0.0,0.0,0.0,0.0,0.0,0.0,0.0,0.0,0.0,0.0,0.0,0.0,0.0,4.1191,4.1191,4.1191,4.1191,4.1191,4.1191,4.1191,4.1191,4.1191,4.1191,4.1191,4.1191,4.1191,4.1191,4.1191,4.1426,4.1797,4.2226,4.289,4.3613,4.3691,4.3711,4.3711,0.0,0.0,0.0,0.0,0.0,0.0,0.0,0.0,0.0,0.0,0.0,0.0,0.0,0.0,0.0,0.0,0.0,0.0,0.0,0.0,2.5706,2.5706,2.5706,2.5835,2.6133,2.6133,2.6133,2.6133,2.6849,2.7506,2.8093,2.8236,2.8437,2.8678,2.8834,2.9205,2.9726,3.0059,3.0371,3.0659,3.0835,3.1055,0.0,0.0,0.0,0.0,0.0,0.0,0.0,0.0,3.3402,3.3402,3.3402,3.3402,3.3402,3.3402,3.3402,3.3402,3.3402,3.3402,3.348,3.375,3.3844,3.3883,3.4059,3.4293,3.4606,3.5039,3.5488,3.5764,3.5764,3.6133,3.658,3.701,3.7402,3.7832,0.0,0.0,0.0,0.0,0.0,0.0,0.0,0.0,0.0,0.0,0.0,0.0,0.0,0.0,0.0,0.0,0.0,4.1191,4.1191,4.1191,4.1191,4.1191,4.1191,4.1191,4.1191,4.1191,4.1191,4.1191,4.1191,4.1191,4.1191,4.1191,4.1445,4.1875,4.2558,4.3183,4.3711,4.3711,4.3711,4.3711,0.0,0.0,0.0,0.0,0.0,0.0,0.0,0.0,0.0,0.0,0.0,0.0,0.0,0.0,0.0,0.0,0.0,0.0,0.0,2.5706,2.5706,2.5706,2.5835,2.6062,2.6399,2.6673,2.6731,2.6582,2.733,2.7917,2.8301,2.8437,2.8652,2.8912,2.9185,2.9634,3.0215,3.0351,3.062,3.0913,3.1035,3.1255,0.0,0.0,0.0,0.0,0.0,0.0,0.0,0.0,3.3402,3.3402,3.3402,3.3402,3.3402,3.3402,3.3402,3.3402,3.3402,3.35,3.3691,3.402,3.4212,3.4333,3.4469,3.4707,3.5039,3.5508,3.5803,3.5999,3.5999,3.6367,0.0,0.0,0.0,0.0,0.0,0.0,0.0,0.0,0.0,0.0,0.0,0.0,0.0,0.0,0.0,0.0,0.0,0.0,0.0,0.0,0.0,0.0,4.1191,4.1191,4.1191,4.1191,4.1191,4.1191,4.1191,4.1191,4.1191,4.1191,4.1191,4.1191,4.1191,4.1191,4.1523,4.209,4.2949,4.3457,4.3711,4.3711,4.3711,4.3711,0.0,0.0,0.0,0.0,0.0,0.0,0.0,0.0,0.0,0.0,0.0,0.0,0.0,0.0,0.0,0.0,0.0,0.0,2.5706,2.5706,2.5706,2.5706,2.614,2.6399,2.6419,2.7252,2.7487,2.7018,2.7487,2.7917,2.8301,2.8717,2.8898,2.8951,2.981,3.0195,3.0249,3.0703,3.0913,3.0952,3.1333,3.1508,3.1606,0.0,0.0,0.0,0.0,0.0,0.0,0.0,3.3402,3.3402,3.3402,3.3402,3.3402,3.3402,3.3402,3.3402,3.3422,3.375,3.4114,3.4114,3.4411,3.4824,3.5293,3.5391,3.5508,3.592,3.5999,3.5999,3.6018,3.6387,0.0,0.0,0.0,0.0,0.0,0.0,0.0,0.0,0.0,0.0,0.0,0.0,0.0,0.0,0.0,0.0,0.0,0.0,0.0,0.0,0.0,0.0,4.1191,4.1191,4.1191,4.1191,4.1191,4.1191,4.1191,4.1191,4.1191,4.1191,4.1191,4.1191,4.1191,4.1211,4.168,4.2499,4.3359,4.3711,4.3711,4.3711,4.3711,4.3711,0.0,0.0,0.0,0.0,0.0,0.0,0.0,0.0,0.0,0.0,0.0,0.0,0.0,0.0,0.0,0.0,0.0,0.0,2.5706,2.5706,2.5854,2.6191,2.634,2.6692,2.7291,2.7845,2.8047,2.791,2.8047,2.8334,2.8717,2.884,2.9224,2.9824,3.0078,3.0371,3.0703,3.084,3.1055,3.1333,3.145,3.186,3.2441,0.0,0.0,0.0,0.0,0.0,0.0,0.0,0.0,0.0,3.3402,3.3402,3.3402,3.3402,3.3402,3.348,3.3789,3.3981,3.4251,3.486,3.5098,3.5293,3.5742,3.5605,3.5508,3.592,3.5999,3.6096,3.6426,0.0,0.0,0.0,0.0,0.0,0.0,0.0,0.0,0.0,0.0,0.0,0.0,0.0,0.0,0.0,0.0,0.0,0.0,0.0,0.0,0.0,0.0,0.0,4.1191,4.1191,4.1191,4.1191,4.1191,4.1191,4.1191,4.1191,4.1191,4.1191,4.1191,4.1191,4.123,4.1816,4.2187,4.2499,4.3359,4.3711,4.3711,4.3711,4.3711,4.3711,0.0,0.0,0.0,0.0,0.0,0.0,0.0,0.0,0.0,0.0,2.4035,2.4208,0.0,0.0,0.0,0.0,0.0,0.0,0.0,0.0,2.6179,2.6621,2.6809,2.7252,2.7917,2.8177,2.8392,2.8535,2.8535,2.8658,2.8912,2.9244,2.9707,3.0195,3.0391,3.0639,3.0913,3.1074,3.1289,3.1528,3.1879,3.2344,3.2812,0.0,0.0,0.0,0.0,0.0,0.0,0.0,0.0,0.0,3.3402,3.3402,3.3402,3.3402,3.3402,3.35,3.3961,3.4231,3.4508,3.5215,3.5527,3.5703,3.594,3.5803,3.5723,3.5959,3.6152,3.6348,3.6638,3.7166,0.0,0.0,0.0,0.0,0.0,0.0,0.0,0.0,0.0,0.0,0.0,0.0,0.0,0.0,0.0,0.0,0.0,0.0,0.0,0.0,0.0,0.0,4.1191,4.1191,4.1191,4.1191,4.1191,4.1191,4.1191,4.1191,4.1191,4.1191,4.1191,4.1191,4.125,4.1894,4.2265,4.248,4.3183,4.3555,4.3711,4.3711,4.3711,4.3711,0.0,0.0,0.0,0.0,0.0,0.0,0.0,0.0,0.0,0.0,2.4461,2.4208,0.0,0.0,0.0,0.0,0.0,0.0,0.0,0.0,2.6641,2.7038,2.7513,2.7936,2.8281,2.8353,2.8535,2.8912,2.8912,2.8951,2.9049,2.9824,3.0215,3.0273,3.0757,3.0937,3.0976,3.1391,3.1587,3.1684,3.248,3.2812,3.2891,3.3265,0.0,0.0,0.0,0.0,0.0,0.0,0.0,0.0,3.3402,3.3402,3.3422,3.3461,3.3461,3.3578,3.4079,3.4489,3.4863,3.5332,3.5742,3.5999,3.5999,3.5999,3.5999,3.5999,3.6367,3.6714,3.6753,3.7383,0.0,0.0,0.0,0.0,0.0,0.0,0.0,0.0,0.0,0.0,0.0,0.0,0.0,0.0,0.0,0.0,0.0,0.0,0.0,0.0,0.0,0.0,4.1191,4.1191,4.1191,0.0,4.1191,4.1191,4.1191,4.1191,4.1191,4.1191,4.1191,4.1191,4.123,4.1621,4.2051,4.2441,4.293,4.336,4.3711,4.3711,4.3711,4.3711,0.0,0.0,0.0,0.0,0.0,0.0,0.0,0.0,0.0,0.0,0.0,0.0,0.0,0.0,0.0,0.0,0.0,0.0,0.0,0.0,2.707,2.7526,2.7943,2.8216,2.8314,2.86,2.8814,2.8912,2.8912,2.9244,2.9922,3.0117,3.0391,3.0776,3.1191,3.1372,3.1391,3.1851,3.2242,3.2539,3.2715,3.2988,3.3285,3.3363,3.3402,0.0,0.0,0.0,0.0,0.0,0.0,0.0,3.3402,3.3402,3.348,3.3844,3.3942,3.4118,3.4919,3.5176,3.5351,3.5764,3.594,3.5999,3.5999,3.5999,3.5999,3.5999,3.6367,3.6795,3.7109,0.0,0.0,0.0,0.0,0.0,0.0,0.0,0.0,0.0,0.0,0.0,0.0,0.0,0.0,0.0,0.0,0.0,0.0,0.0,0.0,0.0,0.0,4.1191,4.1191,4.1191,4.1191,0.0,4.1191,4.1191,4.1191,4.1191,4.1191,4.1191,4.1191,4.1191,4.123,4.1621,4.2051,4.2441,4.293,4.336,4.3711,4.3711,4.3711,4.3711,0.0,0.0,0.0,0.0,0.0,0.0,0.0,0.0,0.0,0.0,0.0,0.0,0.0,0.0,0.0,0.0,0.0,0.0,0.0,0.0,0.0,2.7976,2.8359,2.8594,2.8594,2.9004,2.9336,2.9517,2.9517,2.9751,3.0195,3.043,3.0762,3.1191,3.1411,3.1626,3.1855,3.23,3.2613,3.2812,3.3008,3.3207,3.3402,3.3402,3.3402,3.3402,3.3402,0.0,0.0,0.0,0.0,0.0,0.0,0.0,3.3769,3.402,3.4235,3.4547,3.5231,3.5391,3.5488,3.5901,3.5999,3.5999,3.5999,3.5999,3.6057,3.6289,3.6697,3.7107,3.7502,0.0,0.0,0.0,0.0,0.0,0.0,0.0,0.0,0.0,0.0,0.0,0.0,0.0,0.0,0.0,0.0,0.0,0.0,0.0,0.0,0.0,4.1191,4.1191,4.1191,4.1191,4.1191,4.1191,4.1191,4.1191,4.1191,4.1191,4.1191,4.1191,4.1191,4.1191,4.1211,4.1426,4.1875,4.2421,4.2676,4.3144,4.3711,4.3711,4.3711,4.3711,0.0,0.0,0.0,0.0,0.0,0.0,0.0,0.0,0.0,0.0,0.0,0.0,0.0,0.0,0.0,0.0,0.0,0.0,0.0,0.0,0.0,2.8379,2.8795,2.901,2.901,2.9467,2.9858,3.0195,3.0273,3.0351,3.043,3.082,3.1191,3.1508,3.1665,3.1934,3.2335,3.2734,3.291,3.293,3.3265,3.3402,3.3402,3.3402,3.3402,3.3402,3.3402,3.3402,3.3402,3.3402,0.0,0.0,0.0,0.0,3.4134,3.4274,3.4567,3.4922,3.5371,3.5508,3.5586,3.592,3.5999,3.5999,3.5999,3.6057,3.625,3.6716,3.7068,3.7422,3.7834,0.0,0.0,0.0,0.0,0.0,0.0,0.0,0.0,0.0,0.0,0.0,0.0,0.0,0.0,0.0,0.0,0.0,0.0,0.0,4.1191,4.1191,4.1191,4.1191,4.1191,4.1191,4.1191,4.1191,4.1191,4.1191,4.1191,4.1191,4.1191,4.1191,4.1191,4.1191,4.1191,4.1191,4.166,4.2402,4.2402,4.2929,4.3711,4.3711,4.3711,4.3711,0.0,0.0,0.0,0.0,0.0,0.0,0.0,0.0,0.0,0.0,2.5706,0.0,0.0,0.0,0.0,0.0,0.0,0.0,2.7695,0.0,0.0,2.8814,2.9272,2.952,2.952,2.9916,3.0151,3.0195,3.062,3.0976,3.1333,3.1391,3.145,3.1528,3.2305,3.2656,3.275,3.3148,3.3324,3.3324,3.3383,3.3402,3.3402,3.3402,0.0,3.3402,3.3402,3.3402,3.3402,3.3402,3.3402,0.0,0.0,0.0,3.4251,3.5016,3.5254,3.5391,3.5803,3.592,3.594,3.5999,3.5999,3.5999,3.5999,3.6309,3.6716,3.7146,3.7266,3.7422,0.0,0.0,0.0,0.0,0.0,0.0,0.0,0.0,0.0,0.0,0.0,0.0,0.0,0.0,0.0,0.0,0.0,0.0,0.0,4.1191,4.1191,4.1191,4.1191,4.1191,4.1191,4.1191,4.1191,4.1191,4.1191,4.1191,4.1191,4.1191,4.1191,4.1191,4.1191,4.1191,4.1191,4.1191,4.166,4.2402,4.2402,4.2929,4.3711,4.3711,4.3711,4.3711,0.0,0.0,0.0,0.0,0.0,0.0,0.0,0.0,0.0,0.0,0.0,2.6172,0.0,0.0,0.0,2.7376,2.7786,2.8138,2.8359,2.8945,2.9277,2.9277,2.9701,2.9936,2.9936,3.0366,3.0586,3.0586,3.1016,3.1328,0.0,3.1997,3.2226,0.0,0.0,3.293,3.3148,3.3324,3.3402,3.3402,3.3402,3.3402,3.3402,0.0,0.0,0.0,0.0,0.0,0.0,3.3402,3.3558,3.3844,3.402,0.0,0.0,0.0,3.5566,3.5764,3.5959,3.5999,3.5999,3.5999,3.5999,3.5999,3.5999,3.6348,3.6814,3.7207,3.748,3.7773,0.0,0.0,0.0,0.0,0.0,0.0,0.0,0.0,0.0,0.0,0.0,0.0,0.0,0.0,0.0,0.0,0.0,0.0,4.1191,4.1191,4.1191,4.1191,4.1191,0.0,4.1191,4.1191,4.1191,4.1191,4.1191,4.1191,4.1191,4.1191,4.1191,4.1191,4.1191,4.1191,4.1191,4.1191,4.166,4.2402,4.2402,4.2929,4.3711,4.3711,4.3711,4.3711,0.0,0.0,0.0,0.0,0.0,0.0,0.0,0.0,0.0,0.0,0.0,0.0,0.0,0.0,0.0,0.0,2.8216,2.8633,2.9062,2.9506,2.9741,2.9741,3.0151,3.0385,3.0385,3.0718,3.0952,3.1055,3.1352,3.1606,3.184,3.25,3.2851,0.0,3.2949,3.3109,0.0,0.0,0.0,3.3402,3.3402,0.0,0.0,0.0,0.0,0.0,0.0,0.0,0.0,0.0,0.0,0.0,0.0,3.488,0.0,0.0,0.0,3.5999,3.5999,3.5999,3.5999,3.5999,3.5999,3.5999,3.5999,3.6445,3.6931,3.7226,3.7697,3.8184,0.0,0.0,0.0,0.0,0.0,0.0,0.0,0.0,0.0,0.0,0.0,0.0,0.0,0.0,0.0,0.0,0.0,0.0,4.1191,4.1191,4.1191,4.1191,4.1191,4.1191,4.1191,4.1191,4.1191,4.1191,4.1191,4.1191,4.1191,4.1191,4.1191,4.1191,4.1191,4.1191,4.1191,4.1191,4.166,4.2402,4.2402,4.2929,4.3711,4.3711,4.3711,4.3711,0.0,0.0,0.0,0.0,0.0,0.0,0.0,0.0,0.0,0.0,0.0,0.0,0.0,2.7676,2.7858,2.8236,2.8652,2.9082,2.954,2.9936,3.0156,3.0156,3.062,0.0,3.0859,3.0893,3.1094,3.1469,3.1489,3.1918,3.2734,3.2773,3.3008,3.3363,3.3363,3.3383,3.3402,0.0,0.0,0.0,0.0,0.0,0.0,0.0,0.0,0.0,0.0,0.0,0.0,0.0,0.0,0.0,0.0,0.0,3.5469,0.0,0.0,0.0,3.5999,3.5999,3.5999,3.5999,3.5999,3.5999,3.5999,3.666,3.7266,3.7285,3.7967,3.8573,0.0,0.0,0.0,0.0,0.0,0.0,0.0,0.0,0.0,0.0,0.0,0.0,0.0,0.0,0.0,0.0,0.0,0.0,4.1191,4.1191,4.1191,4.1191,4.1191,4.1191,4.1191,4.1191,4.1191,4.1191,4.1191,4.1191,4.1191,4.1191,4.1191,4.1191,4.1191,4.1191,4.1191,4.1191,4.166,4.2402,4.2402,4.2929,4.3711,4.3711,4.3711,4.3711,0.0,0.0,0.0,0.0,0.0,0.0,0.0,0.0,0.0,0.0,0.0,0.0,0.0,2.8158,2.8535,2.8658,2.9336,2.9805,2.9975,3.0391,3.0659,3.0659,3.0801,3.1016,3.1274,3.1289,3.1504,3.1949,3.2207,3.25,3.2808,3.3051,3.3265,3.3402,3.3402,3.3402,3.3402,3.3402,0.0,0.0,0.0,0.0,0.0,0.0,0.0,0.0,0.0,0.0,0.0,0.0,0.0,0.0,0.0,0.0,0.0,3.5959,3.5999,3.5999,3.5999,3.5999,3.5999,3.5999,3.5999,3.6077,3.6367,3.6875,3.7363,3.7619,3.8164,3.8592,3.8592,0.0,0.0,0.0,0.0,0.0,0.0,0.0,0.0,0.0,0.0,0.0,0.0,0.0,0.0,0.0,0.0,0.0,4.1191,4.1191,4.1191,4.1191,4.1191,4.1191,4.1191,4.1191,4.1191,4.1191,4.1191,4.1191,4.1191,4.1191,4.1191,4.1191,4.1191,4.1191,4.1191,4.1191,4.166,4.2402,4.2402,4.2929,4.3711,4.3711,4.3711,4.3711,0.0,0.0,0.0,0.0,0.0,0.0,0.0,0.0,0.0,0.0,0.0,0.0,0.0,0.0,2.9029,2.9302,2.9863,3.0268,3.043,3.084,3.1094,3.1094,3.125,3.146,3.1738,3.1738,3.1953,3.2398,3.2672,3.2871,3.3008,3.3265,3.3402,3.3402,3.3402,3.3402,0.0,0.0,0.0,3.3402,0.0,0.0,3.3422,0.0,0.0,0.0,0.0,0.0,0.0,0.0,0.0,0.0,0.0,0.0,0.0,0.0,3.5999,3.5999,3.5999,3.5999,3.5999,3.5999,3.6116,3.6309,3.6619,3.7127,3.7598,3.7853,3.8281,3.8592,3.8592,0.0,0.0,0.0,0.0,0.0,0.0,0.0,0.0,0.0,0.0,0.0,0.0,0.0,0.0,0.0,0.0,0.0,4.1191,4.1191,4.1191,4.1191,4.1191,4.1191,4.1191,4.1191,4.1191,4.1191,4.1191,4.1191,4.1191,4.1191,4.1191,4.1191,4.1191,4.1191,4.1191,4.1191,4.166,4.2402,4.2402,4.2929,4.3711,4.3711,4.3711,4.3711,0.0,0.0,0.0,0.0,0.0,0.0,0.0,0.0,0.0,0.0,0.0,0.0,0.0,0.0,0.0,3.0137,3.0234,3.043,3.0893,3.1309,3.1528,3.1528,3.1968,3.2198,3.2218,0.0,0.0,0.0,0.0,3.3027,3.3402,3.3402,3.3402,3.3402,3.3402,3.3402,3.3402,0.0,3.3402,3.3402,0.0,3.3422,3.348,0.0,0.0,0.0,3.4587,3.5019,0.0,0.0,0.0,0.0,0.0,0.0,0.0,0.0,0.0,0.0,0.0,0.0,0.0,3.6018,3.6348,3.6714,3.6734,3.7344,3.7894,3.7931,3.8281,3.8592,3.8592,3.8592,0.0,0.0,0.0,0.0,0.0,0.0,0.0,0.0,0.0,0.0,0.0,0.0,0.0,0.0,0.0,4.1191,4.1191,4.1191,4.1191,4.1191,4.1191,4.1191,4.1191,4.1191,4.1191,4.1191,4.1191,4.1191,4.1191,4.1191,4.1191,4.1191,4.1191,4.1191,4.1191,4.1191,4.166,4.2402,4.2402,4.2929,4.3711,4.3711,4.3711,4.3711,0.0,0.0,0.0,0.0,0.0,0.0,0.0,0.0,0.0,0.0,0.0,0.0,0.0,0.0,0.0,3.0659,3.0962,3.1196,3.1328,3.1773,3.2007,3.2007,3.214,3.2335,3.2633,0.0,0.0,0.0,0.0,0.0,0.0,0.0,0.0,0.0,3.3402,3.3402,3.3402,3.3402,0.0,3.3441,3.3769,3.3903,0.0,0.0,0.0,0.0,0.0,3.5293,0.0,0.0,3.5901,3.5999,0.0,0.0,0.0,0.0,0.0,0.0,3.5999,0.0,0.0,0.0,0.0,0.0,3.7441,3.7736,3.799,3.834,3.8514,3.8592,3.8592,3.8592,3.8592,0.0,0.0,0.0,0.0,0.0,0.0,0.0,0.0,0.0,0.0,0.0,0.0,0.0,4.1015,4.1191,4.1191,4.1191,4.1191,4.1191,4.1191,4.1191,4.1191,4.1191,4.1191,4.1191,4.1191,4.1191,4.1191,4.1191,4.1191,4.1191,4.1191,4.1191,4.1191,4.1191,4.166,4.2402,4.2402,4.2929,4.3711,4.3711,4.3711,4.3711,0.0,0.0,0.0,0.0,0.0,0.0,0.0,0.0,0.0,0.0,0.0,0.0,0.0,0.0,0.0,0.0,3.1543,3.1797,3.1797,3.2203,3.2437,3.2437,3.2613,3.2812,3.3047,0.0,0.0,0.0,0.0,0.0,0.0,0.0,0.0,0.0,0.0,3.3402,0.0,0.0,0.0,0.0,3.3981,0.0,0.0,3.4824,3.498,0.0,0.0,0.0,3.5684,3.592,3.5999,0.0,0.0,0.0,0.0,0.0,0.0,0.0,0.0,0.0,0.0,3.658,0.0,0.0,3.7756,3.8048,3.8262,0.0,3.8592,3.8592,3.8592,3.8592,3.8592,3.8592,0.0,0.0,0.0,0.0,0.0,0.0,0.0,0.0,0.0,0.0,0.0,0.0,4.0762,4.0976,4.1191,4.1191,4.1191,4.1191,4.1191,4.1191,4.1191,4.1191,4.1191,4.1191,4.1191,4.1191,4.1191,4.1191,4.1191,4.1191,4.1191,4.1191,4.1191,4.1191,4.166,4.2402,4.2402,4.2929,4.3711,4.3711,4.3711,4.3711,0.0,0.0,0.0,0.0,0.0,0.0,0.0,0.0,0.0,0.0,0.0,0.0,0.0,0.0,0.0,0.0,3.2007,3.2276,3.2276,3.2652,0.0,0.0,3.3207,3.3402,3.3402,0.0,0.0,0.0,0.0,0.0,0.0,0.0,0.0,0.0,0.0,0.0,0.0,0.0,0.0,3.4235,3.4235,3.4469,0.0,0.0,3.5469,0.0,3.5862,3.5999,3.5999,3.5999,3.5999,0.0,0.0,0.0,0.0,0.0,3.5999,0.0,0.0,0.0,0.0,0.0,0.0,0.0,3.7873,3.8301,3.8592,0.0,3.8592,3.8592,3.8592,3.8592,3.8592,3.8592,3.8592,0.0,0.0,0.0,0.0,0.0,0.0,0.0,0.0,3.918,3.9531,4.0293,4.045,4.0684,4.1172,4.1191,4.1191,4.1191,4.1191,4.1191,4.1191,4.1191,4.1191,4.1191,4.1191,4.1191,4.1191,4.1191,4.1191,4.1191,4.1191,4.1191,4.1191,4.1191,4.166,4.2402,4.2402,4.2929,4.3711,4.3711,4.3711,4.3711,2.8717,0.0,0.0,0.0,0.0,0.0,0.0,0.0,0.0,0.0,0.0,0.0,0.0,0.0,0.0,0.0,0.0,3.2676,3.2676,0.0,3.3285,3.3285,3.3363,3.3402,3.3402,3.3402,0.0,0.0,0.0,0.0,0.0,0.0,0.0,0.0,0.0,0.0,0.0,0.0,0.0,3.5153,3.5153,0.0,3.5312,3.5725,3.5881,3.5881,3.5979,3.5999,3.5999,0.0,3.5999,3.5999,0.0,0.0,0.0,0.0,0.0,0.0,0.0,0.0,0.0,0.0,0.0,0.0,3.8377,3.8534,3.8592,3.8592,3.8592,3.8592,3.8592,3.8592,3.8592,3.8592,3.8592,0.0,0.0,0.0,0.0,0.0,0.0,0.0,0.0,3.9004,3.9277,3.9453,4.0098,4.0684,4.1172,4.1191,4.1191,4.1191,4.1191,4.1191,4.1191,4.1191,4.1191,4.1191,4.1191,4.1191,4.1191,4.1191,4.1191,4.1191,4.1191,4.1191,4.1191,4.1191,4.166,4.2402,4.2402,4.2929,4.3711,4.3711,4.3711,4.3711,2.9199,0.0,0.0,0.0,0.0,0.0,0.0,0.0,0.0,0.0,0.0,0.0,0.0,0.0,0.0,0.0,0.0,0.0,0.0,0.0,0.0,3.3402,3.3402,3.3402,3.3402,3.3402,3.3402,0.0,0.0,0.0,0.0,0.0,0.0,0.0,0.0,0.0,0.0,0.0,3.4997,3.5391,3.5391,0.0,3.5706,3.592,3.5999,3.5999,3.5999,3.5999,3.5999,3.5999,3.6172,0.0,0.0,3.6484,3.6643,0.0,3.6643,3.6699,0.0,0.0,0.0,3.7756,0.0,0.0,0.0,3.8592,3.8592,3.8592,3.8592,3.8592,3.8592,3.8592,3.8592,3.8592,3.8592,3.8592,0.0,0.0,0.0,0.0,0.0,0.0,0.0,3.8788,3.8965,3.918,4.0001,4.0606,4.084,4.1074,4.1191,4.1191,4.1191,4.1191,4.1191,4.1191,4.1191,4.1191,4.1191,4.1191,4.1191,4.1191,4.1191,4.1191,4.1191,4.1191,4.1191,4.1191,4.166,4.2402,4.2402,4.2929,4.3711,4.3711,4.3711,4.3711,2.9735,0.0,0.0,0.0,0.0,0.0,0.0,0.0,0.0,0.0,0.0,0.0,0.0,0.0,0.0,0.0,0.0,0.0,0.0,0.0,0.0,0.0,3.3402,3.3402,3.3402,3.3402,3.3402,3.3402,0.0,0.0,0.0,0.0,0.0,0.0,0.0,0.0,3.4407,0.0,0.0,3.5508,0.0,3.5723,3.5999,3.5999,3.5999,3.5999,3.5999,3.5999,3.6018,3.6096,0.0,3.6714,3.6775,3.7049,0.0,0.0,0.0,0.0,0.0,0.0,0.0,0.0,0.0,3.8126,0.0,0.0,0.0,3.8592,3.8592,3.8592,3.8592,3.8592,0.0,0.0,0.0,0.0,0.0,0.0,0.0,0.0,0.0,0.0,0.0,3.8592,3.8768,3.916,3.9922,4.041,4.0508,4.0957,4.1191,4.1191,4.1191,4.1191,4.1191,4.1191,4.1191,4.1191,4.1191,4.1191,4.1191,4.1191,4.1191,4.1191,4.1191,4.1191,4.1191,4.1191,4.166,4.2402,4.2402,4.2929,4.3752,4.4165,4.4042,4.3773,3.0215,3.0137,0.0,0.0,0.0,0.0,0.0,0.0,0.0,0.0,0.0,0.0,0.0,0.0,0.0,0.0,0.0,0.0,3.3402,0.0,0.0,0.0,3.3402,0.0,3.3402,3.3402,3.3402,3.3402,0.0,0.0,0.0,0.0,0.0,0.0,3.4609,0.0,0.0,0.0,3.5605,0.0,3.594,3.5959,0.0,3.5999,3.5999,3.5999,3.5999,3.5999,3.6057,0.0,3.6675,3.6773,0.0,3.7266,3.7305,0.0,0.0,0.0,0.0,0.0,0.0,0.0,3.8514,0.0,0.0,0.0,3.8592,3.8592,0.0,0.0,3.8592,0.0,0.0,0.0,0.0,0.0,3.8029,3.834,0.0,0.0,0.0,0.0,0.0,0.0,3.8768,3.916,3.9668,4.0137,4.0489,4.0957,4.1191,4.1191,4.1191,4.1191,4.1191,4.1191,4.1191,4.1191,4.1191,4.1191,4.1191,4.1191,4.1191,4.1191,4.1191,4.1191,4.1191,4.1191,4.166,4.2402,4.2402,4.2929,4.3918,4.584,4.5332,4.3959,3.0742,3.062,0.0,0.0,0.0,0.0,0.0,0.0,0.0,0.0,0.0,0.0,0.0,0.0,0.0,0.0,0.0,3.3402,0.0,0.0,0.0,0.0,0.0,0.0,0.0,3.3402,3.3519,3.3824,3.3824,3.4039,0.0,0.0,0.0,0.0,3.498,0.0,3.541,0.0,3.5842,0.0,0.0,0.0,0.0,3.5999,3.5999,3.6038,3.6309,3.6423,3.6465,0.0,3.7187,0.0,0.0,0.0,0.0,0.0,0.0,0.0,0.0,0.0,0.0,0.0,0.0,0.0,0.0,0.0,3.8592,0.0,0.0,0.0,0.0,0.0,0.0,0.0,3.8475,0.0,0.0,0.0,3.8592,0.0,0.0,0.0,0.0,0.0,0.0,0.0,0.0,3.9687,4.0137,4.0566,4.0918,4.1191,4.1191,4.1191,4.1191,4.1191,4.1191,4.1191,4.1191,4.1191,4.1191,4.1191,4.1191,4.1191,4.1191,4.1191,4.1288,4.2427,4.3434,4.4367,4.5501,4.5752,4.5758,4.7904,4.8122,4.7486,3.1382,0.0,0.0,0.0,0.0,0.0,0.0,0.0,0.0,0.0,0.0,0.0,3.3363,3.3402,0.0,0.0,0.0,3.3402,0.0,0.0,3.3402,0.0,0.0,0.0,0.0,0.0,3.391,3.4254,3.4254,3.4489,3.4883,0.0,0.0,0.0,0.0,3.5566,3.5586,0.0,3.5999,3.5999,3.5999,3.6077,3.6191,3.6191,3.6191,3.625,3.6697,3.6853,3.6931,3.7324,3.7658,0.0,3.8048,0.0,0.0,0.0,0.0,0.0,3.8592,0.0,0.0,0.0,0.0,0.0,0.0,0.0,0.0,0.0,0.0,0.0,0.0,0.0,0.0,0.0,0.0,3.8553,0.0,0.0,0.0,0.0,0.0,0.0,0.0,0.0,0.0,0.0,3.8965,0.0,3.9863,4.0274,4.0723,4.1191,4.1191,4.1191,4.1191,4.1191,4.1191,4.1191,4.1191,4.1191,4.1191,4.1191,4.1191,4.1191,4.1191,4.1191,4.1366,4.3465,4.4823,4.587,4.8532,4.9128,4.8713,5.0278,5.0491,5.0064,3.2159,3.2159,0.0,0.0,0.0,0.0,0.0,0.0,0.0,0.0,0.0,0.0,0.0,0.0,0.0,0.0,0.0,3.3402,3.3402,0.0,3.3402,0.0,0.0,3.4075,0.0,0.0,3.4668,3.4668,3.4668,3.4922,3.5388,3.5388,3.5586,3.5959,3.5979,3.5979,3.5979,3.5999,3.5999,3.5999,3.5999,3.6269,3.6675,0.0,3.6675,3.6716,3.7146,0.0,0.0,3.7756,3.7892,0.0,0.0,0.0,0.0,0.0,0.0,0.0,0.0,0.0,0.0,3.8592,0.0,0.0,0.0,0.0,3.8592,0.0,0.0,0.0,0.0,0.0,0.0,0.0,0.0,0.0,0.0,0.0,0.0,0.0,0.0,0.0,0.0,0.0,0.0,3.8592,3.8965,0.0,3.9863,4.0274,4.0723,4.1191,4.1191,4.1191,4.1191,4.1191,4.1191,4.1191,4.1191,4.1191,4.1191,4.1191,4.1191,4.1191,4.1191,4.1191,4.1386,4.3853,4.5156,4.6027,5.0543,5.255,5.2911,5.2987,5.1727,5.03,3.2992,0.0,0.0,0.0,0.0,0.0,0.0,3.3187,0.0,0.0,0.0,0.0,0.0,0.0,3.3402,0.0,0.0,3.3402,3.3402,3.3691,0.0,0.0,0.0,3.4508,0.0,0.0,3.4844,3.5156,3.5156,3.5371,3.5784,3.5784,3.5862,3.5999,3.5999,3.5999,0.0,0.0,0.0,0.0,0.0,3.6953,3.7107,0.0,0.0,3.7166,3.7541,3.7697,0.0,3.8203,3.8359,3.8397,3.8553,3.8592,3.8592,3.8592,3.8592,0.0,0.0,0.0,3.8592,3.8592,0.0,0.0,0.0,0.0,0.0,0.0,0.0,0.0,0.0,0.0,0.0,0.0,0.0,0.0,0.0,0.0,0.0,0.0,0.0,0.0,0.0,0.0,0.0,3.8592,3.8729,3.9121,0.0,4.0039,4.043,4.1172,4.1191,4.1191,4.1191,4.1191,4.1191,4.1191,4.1191,4.1191,4.1191,4.1191,4.1191,4.1191,4.1191,4.1927,4.3305,4.5831,4.7951,4.9886,5.3101,5.4702,5.5152,5.5152,5.4702,5.4218,3.3402,0.0,0.0,0.0,0.0,0.0,0.0,0.0,0.0,0.0,3.3402,0.0,3.3402,0.0,3.3402,0.0,3.3539,3.3652,3.3652,3.4079,0.0,3.4313,3.4707,0.0,0.0,0.0,3.5312,3.5605,3.5605,3.5762,3.5999,3.5999,3.5999,3.6018,3.6155,3.625,3.6269,3.6389,3.6641,0.0,0.0,3.7502,0.0,0.0,3.7656,0.0,0.0,3.8164,3.8203,3.8495,3.8592,3.8592,3.8592,3.8592,3.8592,3.8592,3.8592,3.8592,3.8592,3.8592,0.0,0.0,3.8592,0.0,3.8592,0.0,0.0,0.0,0.0,0.0,0.0,0.0,0.0,0.0,0.0,0.0,0.0,3.8592,0.0,0.0,0.0,0.0,0.0,0.0,3.8592,3.8592,3.8592,3.8905,0.0,0.0,4.0215,4.0937,4.1113,4.1191,4.1191,4.1191,4.1191,4.1191,4.1191,4.1191,4.1191,4.1191,4.1579,4.2234,4.2234,4.3342,4.5338,4.8084,5.0154,5.1858,5.4617,5.5892,5.62,5.62,5.62,5.62,0.0,0.0,0.0,0.0,3.3402,0.0,0.0,0.0,3.3402,0.0,3.3402,3.3402,3.3402,3.3422,3.3441,3.3441,3.3848,0.0,3.4134,3.4508,0.0,0.0,3.5176,3.543,3.543,0.0,0.0,0.0,0.0,3.5999,3.5999,3.6018,3.6038,3.6057,3.6521,3.6734,3.6736,3.7146,3.7305,3.7363,3.7775,3.7931,3.799,3.8436,0.0,3.799,3.8436,3.8592,3.8592,3.8592,3.8592,3.8592,3.8592,3.8592,3.8592,3.8592,3.8592,3.8592,3.8592,3.8592,3.8592,3.8592,0.0,0.0,0.0,0.0,3.8774,0.0,0.0,0.0,0.0,0.0,0.0,0.0,0.0,0.0,0.0,0.0,0.0,0.0,0.0,0.0,3.8592,3.8592,3.8592,3.8592,3.8592,3.8768,0.0,0.0,0.0,4.0489,4.0976,4.1191,4.1191,4.1191,4.1191,4.1191,4.1191,4.1191,4.1191,4.1308,4.235,4.4115,4.4209,4.5351,4.7375,5.0368,5.1659,5.2052,5.5032,5.62,5.62,5.62,5.62,5.62,3.3402,3.3402,3.3402,0.0,3.3402,3.3402,0.0,0.0,0.0,0.0,3.3402,3.3402,3.3402,3.3711,3.3922,3.3922,3.4313,0.0,0.0,0.0,0.0,3.5215,3.5625,3.5842,3.5842,3.594,0.0,3.5999,0.0,3.5999,3.6018,3.6348,3.6521,3.6541,3.697,3.7166,3.7148,3.7246,3.748,3.7775,3.8242,3.8436,0.0,0.0,3.8514,3.8436,3.8553,3.8592,3.8592,3.8592,3.8592,3.8592,3.8592,3.8592,3.8592,3.8592,3.8592,3.8592,3.8592,3.8592,3.8592,3.8592,3.8592,3.8955,0.0,0.0,0.0,0.0,0.0,0.0,0.0,0.0,0.0,0.0,0.0,0.0,0.0,0.0,0.0,3.8592,0.0,0.0,3.8592,3.8592,3.8592,3.8592,3.8592,0.0,0.0,0.0,0.0,4.0489,4.0976,4.1191,4.1191,4.1191,4.1191,4.1191,4.1191,4.1191,4.125,4.2694,4.3644,4.417,4.563,4.7376,4.9354,5.0957,5.2466,5.3995,5.5585,5.62,5.62,5.62,5.62,5.62,3.3402,0.0,0.0,3.3402,0.0,0.0,3.3402,0.0,0.0,3.3691,3.3711,0.0,3.3949,3.4199,3.4352,3.4352,3.4762,0.0,0.0,0.0,0.0,3.5664,3.5881,3.5999,3.5999,3.5999,0.0,3.6309,0.0,0.0,3.6565,3.6836,3.697,3.697,3.7383,3.756,3.7578,3.7773,3.7988,3.8223,3.8495,0.0,0.0,3.8592,3.8592,3.8592,3.8592,3.8592,3.8592,3.8592,3.8592,3.8592,3.8592,3.8592,3.8592,3.8592,3.9172,3.9782,3.9782,4.0371,4.0992,4.0992,4.0992,4.1276,4.2294,4.2522,4.2587,0.0,0.0,0.0,0.0,0.0,0.0,0.0,0.0,0.0,0.0,0.0,0.0,0.0,3.8592,0.0,3.8592,3.8592,3.8592,3.8592,3.8592,0.0,0.0,0.0,0.0,4.0215,4.0859,4.1191,4.1191,4.1191,4.1637,4.2445,4.1618,4.1657,4.2502,4.3606,4.4565,4.5481,4.7449,4.958,5.1675,5.2565,5.3708,5.5031,5.5867,5.62,5.62,5.62,5.62,5.62,0.0,0.0,0.0,0.0,0.0,0.0,0.0,3.3519,0.0,3.4118,0.0,3.4313,3.4668,3.4746,3.4785,3.4785,0.0,3.5508,3.5583,3.5898,3.6116,3.6174,3.6174,3.6174,3.6174,3.6174,0.0,0.0,0.0,0.0,3.7305,3.7344,3.7383,3.7402,3.7795,3.799,3.8009,3.8436,3.8592,3.8592,3.8592,3.8592,3.8611,3.8651,3.8671,3.869,3.8749,3.8729,3.8671,3.8671,3.871,3.8768,3.8768,3.8768,3.8768,3.8768,4.0072,4.1497,4.1497,4.287,4.4312,4.4312,4.4312,4.4364,4.4622,4.4629,4.4188,4.2779,4.3725,0.0,0.0,0.0,0.0,0.0,0.0,0.0,0.0,0.0,0.0,0.0,0.0,0.0,0.0,3.8592,3.8592,0.0,0.0,0.0,0.0,0.0,0.0,0.0,4.0781,0.0,4.1191,0.0,4.2177,4.4077,4.2119,4.235,4.4471,4.4471,4.5555,4.7485,4.9516,5.1648,5.3758,5.4353,5.4956,5.5541,5.6018,5.62,5.62,5.62,5.62,5.62,0.0,0.0,0.0,0.0,0.0,3.4473,3.4473,3.4196,3.4118,3.4531,3.459,0.0,3.4687,3.5039,3.5273,3.5273,3.5664,0.0,0.0,0.0,0.0,3.7051,3.707,3.707,3.707,3.707,3.7109,0.0,0.0,0.0,3.7305,3.7638,3.7795,3.7814,3.8262,3.8475,3.8495,3.8573,0.0,3.8592,3.8592,3.8592,3.8631,3.8965,3.9082,3.9141,3.9531,3.9414,3.9082,3.9082,3.9355,3.9668,3.9668,3.9668,3.9668,3.9668,4.1021,4.2553,4.2553,4.3953,4.5422,4.5422,4.5422,4.5826,4.7385,4.7382,4.7404,4.8569,4.8715,4.7616,4.4231,0.0,0.0,0.0,0.0,0.0,0.0,0.0,0.0,0.0,0.0,0.0,0.0,0.0,0.0,0.0,0.0,0.0,0.0,0.0,0.0,0.0,0.0,0.0,0.0,0.0,0.0,4.4077,4.2119,4.3056,4.6478,4.6478,4.7577,4.9587,5.153,5.2894,5.3758,5.4353,5.5182,5.6068,5.615,5.62,5.62,5.62,5.62,5.62,0.0,0.0,0.0,0.0,0.0,0.0,0.0,3.5078,0.0,3.5059,3.5059,3.5251,3.57,3.5935,3.6169,3.6367,3.6562,3.6777,3.701,3.701,3.7542,3.8714,3.8749,0.0,4.0128,4.0146,3.9795,3.9077,0.0,0.0,0.0,0.0,3.8262,3.8281,3.8495,3.8592,0.0,0.0,0.0,3.8925,3.8925,3.9061,3.9296,3.9492,3.9551,3.959,3.9824,3.9902,3.9825,3.9629,3.9707,4.0071,4.1078,4.1392,4.1596,4.2622,4.4268,4.5767,4.5767,4.7156,4.8605,4.8605,4.8605,4.8844,4.9745,4.9752,4.9546,4.9438,4.9967,4.9264,4.525,4.2043,0.0,0.0,0.0,0.0,0.0,0.0,0.0,0.0,0.0,0.0,0.0,0.0,0.0,0.0,0.0,0.0,0.0,0.0,0.0,0.0,0.0,0.0,0.0,0.0,0.0,4.5593,4.3625,4.4774,4.856,4.856,4.9081,5.0127,5.2357,5.3632,5.4228,5.5082,5.5742,5.62,5.62,5.62,5.62,5.62,5.62,5.62,0.0,3.4844,0.0,0.0,3.5059,0.0,0.0,3.6016,3.6116,3.5739,3.5759,3.6072,3.6756,3.6832,3.6951,3.7266,3.7305,3.75,3.7984,3.8019,3.8897,4.0857,4.0942,4.162,4.3062,4.3079,4.254,0.0,0.0,0.0,0.0,0.0,0.0,0.0,0.0,0.0,0.0,0.0,3.9061,3.9355,3.9355,3.957,3.9902,4.0,4.0019,4.0039,4.0137,4.0371,4.0663,4.0766,4.0798,4.1136,4.3081,4.3702,4.3991,4.5542,4.7317,4.8811,4.8811,5.0189,5.1624,5.1624,5.1624,5.1624,5.1624,5.1565,5.1054,4.9567,4.9699,4.9055,4.5674,4.2835,0.0,0.0,0.0,0.0,0.0,0.0,0.0,0.0,0.0,0.0,0.0,0.0,0.0,0.0,0.0,0.0,0.0,0.0,0.0,0.0,0.0,0.0,4.1191,0.0,4.3361,0.0,4.5257,4.657,4.9997,4.9997,5.0281,5.0903,5.2854,5.4127,5.483,5.5817,5.62,5.62,5.62,5.62,5.62,5.62,5.62,5.62,0.0,0.0,0.0,0.0,0.0,0.0,0.0,3.6931,3.7031,3.6619,3.6912,3.7148,3.7226,3.7246,3.7246,3.7285,3.7305,3.8179,4.0261,4.0365,4.1368,4.3633,4.3741,4.3788,4.3959,4.3976,4.3896,0.0,0.0,0.0,0.0,0.0,0.0,0.0,0.0,0.0,0.0,3.959,3.9785,3.9824,3.9824,3.9863,3.9941,4.0293,4.045,4.0489,4.0937,4.1094,4.1404,4.3123,4.3706,4.4046,4.5977,4.6602,4.6638,4.6821,4.8295,4.9854,4.9854,5.1279,5.2762,5.2762,5.2762,5.2762,5.2762,5.236,5.1975,5.1797,4.8748,4.6015,4.5616,4.252,4.043,0.0,0.0,0.0,0.0,0.0,0.0,0.0,0.0,0.0,0.0,0.0,0.0,0.0,0.0,0.0,0.0,0.0,0.0,0.0,0.0,4.1191,4.1191,4.2941,0.0,4.4377,4.5961,4.7867,4.9997,4.9997,5.1223,5.3363,5.3613,5.431,5.5383,5.5968,5.62,5.62,5.62,5.62,5.62,5.62,5.62,5.62,0.0,0.0,0.0,0.0,0.0,0.0,0.0,3.7402,3.7599,3.7441,3.7344,3.7402,3.7619,3.7658,3.8217,3.9571,3.9698,4.057,4.26,4.2743,4.3635,4.5619,4.5727,4.6254,4.7384,4.7401,4.6863,0.0,0.0,0.0,0.0,0.0,0.0,0.0,0.0,4.2453,4.1365,4.1569,4.1108,4.0254,4.0254,4.043,4.0703,4.0859,4.0918,4.1111,4.2442,4.2941,4.3416,4.657,4.6053,4.464,4.7795,4.8794,4.9027,5.0198,5.1128,5.1747,5.1747,5.231,5.2895,5.2895,5.2895,5.2895,5.2895,5.2737,5.2586,5.2586,5.0038,4.7461,4.6289,4.365,4.1461,0.0,0.0,0.0,0.0,0.0,0.0,0.0,0.0,3.9394,0.0,0.0,0.0,0.0,0.0,0.0,0.0,0.0,0.0,4.1191,0.0,4.1191,4.1191,4.3132,4.4677,4.5849,4.7849,4.9819,5.1747,5.1747,5.2659,5.4253,5.4561,5.5164,5.5892,5.61,5.62,5.62,5.62,5.62,5.62,5.62,5.62,5.62,3.6814,0.0,3.697,0.0,3.7402,3.748,3.748,3.7814,3.8146,3.8263,3.8047,3.793,3.8105,3.8743,3.982,4.1426,4.2192,4.3385,4.5285,4.5388,4.6209,4.8058,4.8125,0.0,5.0076,5.0108,4.9454,4.8125,4.6574,0.0,0.0,0.0,0.0,0.0,4.5238,4.4283,4.2997,4.2515,4.2036,4.1563,4.1563,4.2106,4.2905,4.2905,4.2905,4.3075,4.4473,4.4958,4.5459,4.8866,4.8139,4.6422,4.9783,5.0857,5.1128,5.2508,5.2895,5.2895,5.2895,5.2895,5.2895,5.2895,5.2895,5.2895,5.2895,5.2895,5.2732,5.2171,5.0707,4.9097,4.7706,4.5121,4.2886,0.0,0.0,0.0,0.0,0.0,0.0,0.0,3.9902,3.9902,3.9902,0.0,0.0,0.0,0.0,0.0,0.0,0.0,0.0,0.0,0.0,0.0,0.0,0.0,4.5089,4.701,4.9027,5.0734,5.2067,5.2996,5.3909,5.4873,5.5408,5.5842,5.62,5.62,5.62,5.62,5.62,5.62,5.62,5.62,5.62,5.62,3.7285,3.7285,3.7285,3.7305,3.7619,3.7874,3.7874,3.8281,3.8729,3.9141,3.918,3.9023,3.8631,4.0727,4.2165,4.2183,4.432,4.6445,4.8316,4.846,4.9271,0.0,0.0,5.1272,5.1289,5.1289,5.1264,5.1256,0.0,0.0,4.7817,0.0,0.0,4.5639,4.4184,4.3515,4.339,4.1881,4.231,4.4056,4.4056,4.5198,4.6919,4.6919,4.6919,4.6919,4.6955,4.6955,4.7266,4.9296,4.9961,5.0269,5.2241,5.2861,5.2878,5.2895,5.2895,5.2895,5.2895,5.2895,5.2895,5.2895,5.2895,5.2895,5.2895,5.2895,5.2369,5.0428,5.0014,4.9979,4.9961,4.6731,4.4563,4.6094,0.0,0.0,0.0,0.0,0.0,0.0,3.9902,3.9902,3.9902,0.0,0.0,0.0,0.0,0.0,0.0,0.0,0.0,4.1191,4.1191,0.0,4.4058,4.4096,4.5089,4.701,4.9027,4.9997,5.0133,5.319,5.4881,5.5415,5.5968,5.6175,5.62,5.62,5.62,5.62,5.62,5.62,5.62,5.62,5.62,5.62,3.7658,3.7716,3.7795,3.8143,3.9652,4.0833,4.0833,4.1206,4.1988,4.3451,4.248,4.2111,4.3311,4.2939,4.3655,0.0,4.7185,4.8409,0.0,5.0419,5.0671,5.1256,5.1289,5.1289,5.1289,5.1289,5.1289,5.1289,0.0,0.0,0.0,5.009,5.0499,5.0576,5.0116,4.9174,4.7897,4.7422,4.6754,4.6072,4.6072,4.6441,4.6992,4.6992,4.6992,4.7175,4.856,4.9045,4.9355,5.1303,5.1998,5.2102,5.2698,5.2895,5.2895,5.2895,5.2895,5.2895,5.2895,5.2895,5.2895,5.2895,5.2895,5.2895,5.2895,5.2895,5.2715,5.2102,5.1998,5.159,5.0251,4.7849,4.5806,4.497,0.0,0.0,0.0,0.0,0.0,0.0,4.0781,4.0781,0.0,4.0508,0.0,0.0,0.0,0.0,0.0,0.0,0.0,0.0,4.2483,0.0,4.2119,4.6109,4.774,4.7029,5.0375,5.217,5.2576,5.4338,5.5232,5.5433,5.5968,5.62,5.62,5.62,5.62,5.62,5.62,5.62,5.62,5.62,5.62,5.62,4.0442,3.994,3.9834,4.1052,4.1904,4.2671,4.3404,4.3731,4.4383,4.5779,4.4908,4.4956,4.7087,4.6236,0.0,4.8597,4.9642,0.0,5.1832,5.19,5.19,5.19,5.19,5.19,5.19,0.0,0.0,5.19,5.099,5.0711,5.1128,5.2327,5.2895,5.2878,5.2137,5.1145,4.9943,4.9189,4.8578,4.8144,4.8144,4.856,4.923,4.923,4.923,4.9415,5.0856,5.1395,5.162,5.3049,5.3532,5.3532,5.3532,5.3532,5.3439,5.3038,5.2895,5.2895,5.2895,5.2895,5.2895,5.2895,5.2895,5.2895,5.2895,5.2895,5.2895,5.2895,5.2895,5.2525,5.1321,4.8848,4.6588,4.5406,0.0,0.0,0.0,0.0,0.0,0.0,0.0,0.0,0.0,4.0918,0.0,0.0,0.0,0.0,0.0,0.0,0.0,4.123,4.3094,0.0,4.338,4.6315,4.8271,4.9248,5.1926,5.359,5.4361,5.5082,5.5491,5.5717,5.605,5.62,5.62,5.62,5.62,5.62,5.62,5.62,5.62,5.62,5.62,5.62,4.4863,4.3508,0.0,0.0,4.4322,0.0,4.5683,4.5989,4.6211,4.6779,4.6739,4.7568,4.9931,5.0216,5.0018,4.9593,0.0,0.0,0.0,5.2895,5.2895,5.2895,5.2895,0.0,5.2895,5.2895,5.2895,5.2895,5.2895,5.2895,5.2895,5.2895,5.2895,5.2826,5.0998,5.0216,5.0091,4.824,4.8552,5.0263,5.0287,5.1383,5.3013,5.3013,5.3013,5.3088,5.3582,5.3758,5.3833,5.4403,5.4597,5.4597,5.4597,5.4597,5.4378,5.3314,5.3013,5.3013,5.3013,5.2988,5.2962,5.2962,5.2937,5.2895,5.2895,5.2895,5.2895,5.2895,5.2895,5.2895,5.2895,4.9766,4.7157,4.701,4.3853,4.1366,4.1211,0.0,0.0,0.0,0.0,0.0,0.0,4.1191,4.1191,0.0,0.0,0.0,0.0,0.0,0.0,4.1463,4.3283,4.5183,4.6974,4.5481,4.749,5.2945,5.354,5.4361,5.5408,5.5458,5.5717,5.62,5.62,5.62,5.62,5.62,5.62,5.62,5.62,5.62,5.62,5.62,5.62,5.62,0.0,0.0,4.5003,4.5594,4.6841,4.7912,4.8369,4.8756,4.954,5.116,5.006,4.9931,5.199,5.2206,5.2174,5.2067,5.2571,5.2895,5.2895,5.2895,5.2895,5.2895,5.2895,5.2895,5.2895,5.2895,5.2895,5.2895,5.2895,5.2895,5.2895,5.2895,5.2895,5.2878,5.2439,5.2206,5.2213,5.2147,5.2407,5.2861,5.3343,5.3807,5.4202,5.4202,5.4202,5.4202,5.4328,5.4396,5.4403,5.4547,5.4597,5.4597,5.4597,5.4597,5.4547,5.4278,5.4202,5.4202,5.4202,5.3858,5.349,5.349,5.3213,5.2895,5.2895,5.2895,5.2895,5.2895,5.2895,5.2895,5.2895,5.091,4.8794,4.7248,4.4977,4.2903,4.1405,0.0,0.0,0.0,4.1191,4.1191,4.1191,4.1191,4.1191,0.0,0.0,0.0,0.0,0.0,4.5425,4.3473,4.5313,4.6533,4.6992,4.9534,5.1709,5.3532,5.4511,5.5157,5.539,5.5817,5.6093,5.62,5.62,5.62,5.62,5.62,5.62,5.62,5.62,5.62,5.62,5.62,5.62,5.62,4.858,4.7907,4.762,4.8796,4.9343,4.9926,5.0829,5.116,5.1712,5.2774,5.1973,5.1729,5.2792,5.2895,5.2895,5.2895,5.2895,5.2895,5.2895,5.2895,5.2895,5.2895,5.2895,5.2895,5.2895,5.2895,5.302,5.3264,5.3557,5.3683,5.3683,5.3683,5.3683,5.3683,5.3683,5.3683,5.3708,5.4002,5.4127,5.4152,5.4471,5.4597,5.4597,5.4597,5.4597,5.4622,5.4881,5.4956,5.5006,5.5257,5.5333,5.5333,5.5333,5.5333,5.5333,5.5333,5.4981,5.4597,5.4597,5.4353,5.4127,5.4127,5.3884,5.3607,5.3314,5.3264,5.3188,5.2945,5.2895,5.2895,5.2895,5.1303,4.9641,4.8542,4.6717,4.4734,4.2809,4.2522,0.0,4.2522,4.2522,4.2885,4.3758,4.3853,4.3853,4.3853,0.0,0.0,4.3853,4.5853,4.6109,4.4172,4.6882,4.8379,4.8379,5.1635,5.3665,5.4486,5.5089,5.5516,5.5767,5.6068,5.62,5.62,5.62,5.62,5.62,5.62,5.62,5.62,5.62,5.62,5.62,5.62,5.62,5.62,5.2126,5.0845,5.0353,5.2537,5.153,5.0981,5.2646,5.2895,5.2895,5.2895,5.2895,5.2895,5.2895,5.297,5.302,5.302,5.3113,5.3113,5.3038,5.302,5.3063,5.3163,5.3163,5.3163,5.3163,5.3163,5.3364,5.3833,5.4353,5.4597,5.4597,5.4597,5.4597,5.4597,5.4597,5.4597,5.4622,5.4697,5.4723,5.4723,5.4823,5.4848,5.4848,5.4848,5.4848,5.4906,5.5358,5.5516,5.5591,5.6068,5.62,5.62,5.62,5.62,5.62,5.62,5.5559,5.4848,5.4848,5.4798,5.4697,5.4622,5.4597,5.4471,5.3934,5.3833,5.3708,5.3239,5.3088,5.302,5.302,5.1621,5.0339,5.0056,4.8578,4.6772,4.4809,0.0,4.4527,4.4527,4.4527,4.5201,4.6827,4.6992,4.6992,4.6992,4.6992,0.0,0.0,4.7285,4.6743,4.5156,4.8363,5.0306,5.0686,5.2862,5.4436,5.5408,5.5483,5.5767,5.62,5.62,5.62,5.62,5.62,5.62,5.62,5.62,5.62,5.62,5.62,5.62,5.62,5.62,5.62,5.62,5.2762,5.2521,5.2443,5.2818,5.2646,5.256,5.2861,5.2895,5.2895,5.2895,5.2895,5.2895,5.2895,5.3289,5.3582,5.3582,5.4052,5.4127,5.3607,5.3582,5.3808,5.4303,5.4328,5.4328,5.4328,5.4328,5.4396,5.4471,5.4547,5.4597,5.4597,5.4597,5.4597,5.4597,5.4597,5.4597,5.4622,5.5082,5.5282,5.5308,5.5767,5.5968,5.5968,5.5968,5.5968,5.5968,5.6068,5.6093,5.6093,5.615,5.62,5.62,5.62,5.62,5.62,5.62,5.6093,5.5968,5.5968,5.5616,5.5157,5.4723,5.4597,5.4572,5.4496,5.4471,5.4446,5.4353,5.3926,5.3582,5.3582,5.2963,5.1903,5.0269,4.9748,4.883,0.0,0.0,4.6551,4.6551,4.6551,4.6662,4.6955,4.6992,4.6992,4.6992,4.6992,4.6992,4.6992,4.8614,4.9597,4.9749,5.0375,5.1692,5.3878,5.4713,5.5232,5.5408,5.5867,5.61,5.62,5.62,5.62,5.62,5.62,5.62,5.62,5.62,5.62,5.62,5.62,5.62,5.62,5.62,5.62,5.62,5.2895,5.2895,5.2895,5.2895,5.2895,5.2895,5.2895,5.2895,5.2995,5.3289,5.3314,5.3439,5.3783,5.4052,5.4177,5.4177,5.4446,5.4604,5.4612,5.4353,5.4303,5.4597,5.4597,5.4597,5.4597,5.4881,5.5031,5.5031,5.5333,5.544,5.544,5.544,5.544,5.544,5.544,5.544,5.5483,5.5717,5.5842,5.5867,5.61,5.62,5.62,5.62,5.62,5.62,5.62,5.62,5.62,5.62,5.62,5.62,5.62,5.62,5.62,5.62,5.62,5.62,5.62,5.6018,5.5767,5.5516,5.544,5.5383,5.5107,5.5031,5.4956,5.4672,5.4396,5.4177,5.4177,5.3976,5.352,5.2625,5.2196,0.0,0.0,4.8794,4.8614,4.8614,4.8614,4.9027,5.0091,5.018,5.018,5.018,5.0437,5.0622,5.0622,5.1808,5.2581,5.2826,5.2851,5.3551,5.5031,5.5282,5.5559,5.5842,5.6093,5.62,5.62,5.62,5.62,5.62,5.62,5.62,5.62,5.62,5.62,5.62,5.62,5.62,5.62,5.62,5.62,5.62,5.2895,5.2895,5.2895,5.2895,5.2995,5.3088,5.3088,5.3213,5.3439,5.3876,5.3909,5.4102,5.4547,5.4723,5.4798,5.4798,5.4898,5.5157,5.5541,5.5207,5.4956,5.4956,5.4956,5.4956,5.4956,5.5383,5.5609,5.5609,5.6018,5.62,5.62,5.62,5.62,5.62,5.62,5.62,5.62,5.62,5.62,5.62,5.62,5.62,5.62,5.62,5.62,5.62,5.62,5.62,5.62,5.62,5.62,5.62,5.62,5.62,5.62,5.62,5.62,5.62,5.62,5.62,5.62,5.62,5.62,5.6075,5.5666,5.5609,5.5465,5.5056,5.4856,5.4798,5.4798,5.4697,5.4597,5.4597,0.0,0.0,0.0,5.132,5.1078,5.1078,5.1078,5.1669,5.3167,5.3289,5.3289,5.3289,5.3683,5.3909,5.3909,5.4353,5.4672,5.4798,5.4798,5.5031,5.5566,5.5609,5.5792,5.62,5.62,5.62,5.62,5.62,5.62,5.62,5.62,5.62,5.62,5.62,5.62,5.62,5.62,5.62,5.62,5.62,5.62,5.62,5.2895,5.2895,5.2895,5.2895,5.3314,5.3632,5.3632,5.4127,5.4496,5.4522,5.4547,5.4547,5.4597,5.5031,5.5358,5.5358,5.5792,5.6118,5.6143,5.61,5.6093,5.6093,5.6093,5.6093,5.6093,5.61,5.6125,5.6125,5.6175,5.62,5.62,5.62,5.62,5.62,5.62,5.62,5.62,5.62,5.62,5.62,5.62,5.62,5.62,5.62,5.62,5.62,5.62,5.62,5.62,5.62,5.62,5.62,5.62,5.62,5.62,5.62,5.62,5.62,5.62,5.62,5.62,5.62,5.62,5.6175,5.615,5.6125,5.6143,5.6093,5.5691,5.5358,5.5358,5.4931,5.4597,5.4597,0.0,0.0,5.4327,5.4302,5.4259,5.4259,5.4259,5.4312,5.4454,5.4471,5.4471,5.4471,5.4522,5.4547,5.4547,5.4572,5.4823,5.5333,5.5358,5.5591,5.6143,5.6125,5.615,5.62,5.62,5.62,5.62,5.62,5.62,5.62,5.62,5.62,5.62,5.62,5.62,5.62,5.62,5.62,5.62,5.62,5.62,5.62,5.2895,5.3163,5.3389,5.3389,5.3858,5.4253,5.4253,5.4454,5.4723,5.5056,5.5107,5.5232,5.5559,5.5767,5.5892,5.5892,5.6093,5.62,5.62,5.62,5.62,5.62,5.62,5.62,5.62,5.62,5.62,5.62,5.62,5.62,5.62,5.62,5.62,5.62,5.62,5.62,5.62,5.62,5.62,5.62,5.62,5.62,5.62,5.62,5.62,5.62,5.62,5.62,5.62,5.62,5.62,5.62,5.62,5.62,5.62,5.62,5.62,5.62,5.62,5.62,5.62,5.62,5.62,5.62,5.62,5.62,5.62,5.62,5.6043,5.5892,5.5892,5.5717,5.5591,5.5591,0.0,5.5107,5.5107,5.4823,5.4597,5.4597,5.4597,5.4597,5.4597,5.4597,5.4597,5.4597,5.4906,5.5107,5.5107,5.5408,5.5691,5.5892,5.5892,5.5993,5.62,5.62,5.62,5.62,5.62,5.62,5.62,5.62,5.62,5.62,5.62,5.62,5.62,5.62,5.62,5.62,5.62,5.62,5.62,5.62,5.62,5.62,5.3389,5.3733,5.3976,5.3976,5.4454,5.4848,5.4848,5.4981,5.5232,5.5591,5.5641,5.5792,5.615,5.62,5.62,5.62,5.62,5.62,5.62,5.62,5.62,5.62,5.62,5.62,5.62,5.62,5.62,5.62,5.62,5.62,5.62,5.62,5.62,5.62,5.62,5.62,5.62,5.62,5.62,5.62,5.62,5.62,5.62,5.62,5.62,5.62,5.62,5.62,5.62,5.62,5.62,5.62,5.62,5.62,5.62,5.62,5.62,5.62,5.62,5.62,5.62,5.62,5.62,5.62,5.62,5.62,5.62,5.62,5.62,5.62,5.62,5.62,5.62,5.62,5.5892,5.5641,5.5641,5.5333,5.5107,5.5107,5.5107,5.5107,5.5107,5.5107,5.5107,5.5107,5.5458,5.5641,5.5641,5.6018,5.62,5.62,5.62,5.62,5.62,5.62,5.62,5.62,5.62,5.62,5.62,5.62,5.62,5.62,5.62,5.62,5.62,5.62,5.62,5.62,5.62,5.62,5.62,5.62,5.62,5.62,5.4496,5.4597,5.4622,5.4622,5.5056,5.5408,5.5408,5.5867,5.62,5.62,5.62,5.62,5.62,5.62,5.62,5.62,5.62,5.62,5.62,5.62,5.62,5.62,5.62,5.62,5.62,5.62,5.62,5.62,5.62,5.62,5.62,5.62,5.62,5.62,5.62,5.62,5.62,5.62,5.62,5.62,5.62,5.62,5.62,5.62,5.62,5.62,5.62,5.62,5.62,5.62,5.62,5.62,5.62,5.62,5.62,5.62,5.62,5.62,5.62,5.62,5.62,5.62,5.62,5.62,5.62,5.62,5.62,5.62,5.62,5.62,5.62,5.62,5.62,5.62,5.62,5.62,5.62,5.62,5.62,5.62,5.62,5.62,5.62,5.62,5.62,5.62,5.62,5.62,5.62,5.62,5.62,5.62,5.62,5.62,5.62,5.62,5.62,5.62,5.62,5.62,5.62,5.62,5.62,5.62,5.62,5.62,5.62,5.62,5.62,5.62,5.62,5.62,5.62,5.62,5.62,5.62,5.4572,5.4906,5.5157,5.5157,5.5591,5.5968,5.5968,5.6118,5.62,5.62,5.62,5.62,5.62,5.62,5.62,5.62,5.62,5.62,5.62,5.62,5.62,5.62,5.62,5.62,5.62,5.62,5.62,5.62,5.62,5.62,5.62,5.62,5.62,5.62,5.62,5.62,5.62,5.62,5.62,5.62,5.62,5.62,5.62,5.62,5.62,5.62,5.62,5.62,5.62,5.62,5.62,5.62,5.62,5.62,5.62,5.62,5.62,5.62,5.62,5.62,5.62,5.62,5.62,5.62,5.62,5.62,5.62,5.62,5.62,5.62,5.62,5.62,5.62,5.62,5.62,5.62,5.62,5.62,5.62,5.62,5.62,5.62,5.62,5.62,5.62,5.62,5.62,5.62,5.62,5.62,5.62,5.62,5.62,5.62,5.62,5.62,5.62,5.62,5.62,5.62,5.62,5.62,5.62,5.62,5.62,5.62,5.62,5.62,5.62,5.62,5.62,5.62,5.62,5.62,5.62,5.62,5.5182,5.5491,5.5717,5.5717,5.5993,5.62,5.62,5.62,5.62,5.62,5.62,5.62,5.62,5.62,5.62,5.62,5.62,5.62,5.62,5.62,5.62,5.62,5.62,5.62,5.62,5.62,5.62,5.62,5.62,5.62,5.62,5.62,5.62,5.62,5.62,5.62,5.62,5.62,5.62,5.62,5.62,5.62,5.62,5.62,5.62,5.62,5.62,5.62,5.62,5.62,5.62,5.62,5.62,5.62,5.62,5.62,5.62,5.62,5.62,5.62,5.62,5.62,5.62,5.62,5.62,5.62,5.62,5.62,5.62,5.62,5.62,5.62,5.62,5.62,5.62,5.62,5.62,5.62,5.62,5.62,5.62,5.62,5.62,5.62,5.62,5.62,5.62,5.62,5.62,5.62,5.62,5.62,5.62,5.62,5.62,5.62,5.62,5.62,5.62,5.62,5.62,5.62,5.62,5.62,5.62,5.62,5.62,5.62,5.62,5.62,5.62,5.62,5.62,5.62,5.62,5.62,5.61,5.62,5.62,5.62,5.62,5.62,5.62,5.62,5.62,5.62,5.62,5.62,5.62,5.62,5.62,5.62,5.62,5.62,5.62,5.62,5.62,5.62,5.62,5.62,5.62,5.62,5.62,5.62,5.62,5.62,5.62,5.62,5.62,5.62,5.62,5.62,5.62,5.62,5.62,5.62,5.62,5.62,5.62,5.62,5.62,5.62,5.62,5.62,5.62,5.62,5.62,5.62,5.62,5.62,5.62,5.62,5.62,5.62,5.62,5.62,5.62,5.62,5.62,5.62,5.62,5.62,5.62,5.62,5.62,5.62,5.62,5.62,5.62,5.62,5.62,5.62,5.62,5.62,5.62,5.62,5.62,5.62,5.62,5.62,5.62,5.62,5.62,5.62,5.62,5.62,5.62,5.62,5.62,5.62,5.62,5.62,5.62,5.62,5.62,5.62,5.62,5.62,5.62,5.62,5.62,5.62,5.62,5.62,5.62,5.62,5.62,5.62,5.62,5.62,5.62,5.62,5.6194,5.62,5.62,5.62,5.62,5.62,5.62,5.62,5.62,5.62,5.62,5.62,5.62,5.62,5.62,5.62,5.62,5.62,5.62,5.62,5.62,5.62,5.62,5.62,5.62,5.62,5.62,5.62,5.62,5.62,5.62,5.62,5.62,5.62,5.62,5.62,5.62,5.62,5.62,5.62,5.62,5.62,5.62,5.62,5.62,5.62,5.62,5.62,5.62,5.62,5.62,5.62,5.62,5.62,5.62,5.62,5.62,5.62,5.62,5.62,5.62,5.62,5.62,5.62,5.62,5.62,5.62,5.62,5.62,5.62,5.62,5.62,5.62,5.62,5.62,5.62,5.62,5.62,5.62,5.62,5.62,5.62,5.62,5.62,5.62,5.62,5.62,5.62,5.62,5.62,5.62,5.62,5.62,5.62,5.62,5.62,5.62,5.62,5.62,5.62,5.62,5.62,5.62,5.62,5.62,5.62,5.62,5.62,5.62,5.62,5.62,5.62,5.62,5.62,5.62,5.62,5.62,5.62,5.62,5.62,5.62,5.62,5.62,5.62,5.62,5.62,5.62,5.62,5.62,5.62,5.62,5.62,5.62,5.62,5.62,5.62,5.62,5.62,5.62,5.62,5.62,5.62,5.62,5.62,5.62,5.62,5.62,5.62,5.62,5.62,5.62,5.62,5.62,5.62,5.62,5.62,5.62,5.62,5.62,5.62,5.62,5.62,5.62,5.62,5.62,5.62,5.62,5.62,5.62,5.62,5.62,5.62,5.62,5.62,5.62,5.62,5.62,5.62,5.62,5.62,5.62,5.62,5.62,5.62,5.62,5.62,5.62,5.62,5.62,5.62,5.62,5.62,5.62,5.62,5.62,5.62,5.62,5.62,5.62,5.62,5.62,5.62,5.62,5.62,5.62,5.62,5.62,5.62,5.62,5.62,5.62,5.62,5.62,5.62,5.62,5.62,5.62,5.62,5.62,5.62,5.62,5.62,5.62,5.62,5.62,5.62,5.62,5.62,5.62,5.62,5.62,5.62,5.62,5.62,5.62,5.62,5.62,5.62,5.62,5.62,5.62,5.62,5.62,5.62,5.62,5.62,5.62,5.62,5.62,5.62,5.62,5.62,5.62,5.62,5.62,5.62,5.62,5.62,5.62,5.62,5.62,5.62,5.62,5.62,5.62,5.62,5.62,5.62,5.62,5.62,5.62,5.62,5.62,5.62,5.62,5.62,5.62,5.62,5.62,5.62,5.62,5.62,5.62,5.62,5.62,5.62,5.62,5.62,5.62,5.62,5.62,5.62,5.62,5.62,5.62,5.62,5.62,5.62,5.62,5.62,5.62,5.62,5.62,5.62,5.62,5.62,5.62,5.62,5.62,5.62,5.62,5.62,5.62,5.62,5.62,5.62,5.62,5.62,5.62,5.62,5.62,5.62,5.62,5.62,5.62,5.62,5.62,5.62,5.62,5.62,5.62,5.62,5.62,5.62,5.62,5.62,5.62,5.62,5.62,5.62,5.62,5.62,5.62,5.62,5.62,5.62,5.62,5.62,5.62,5.62,5.62,5.62,5.62,5.62,5.62,5.62,5.62,5.62,5.62,5.62,5.62,5.62,5.62,5.62,5.62,5.62,5.62,5.62,5.62,5.62,5.62,5.62,5.62,5.62,5.62,5.62,5.62,5.62,5.62,5.62,5.62,5.62,5.62,5.62,5.62,5.62,5.62,5.62,5.62,5.62,5.62,5.62,5.62,5.62,5.62,5.62,5.62,5.62,5.62,5.62,5.62,5.62,5.62,5.62,5.62,5.62,5.62,5.62,5.62,5.62,5.62,5.62,5.62,5.62,5.62,5.62,5.62,5.62,5.62,5.62,5.62,5.62,5.62,5.62,5.62,5.62,5.62,5.62,5.62,5.62,5.62,5.62,5.62,5.62,5.62,5.62,5.62,5.62,5.62,5.62,5.62,5.62,5.62,5.62,5.62,5.62,5.62,5.62,5.62,5.62,5.62,5.62,5.62,5.62,5.62,5.62,5.62,5.62,5.62,5.62,5.62,5.62,5.62,5.62,5.62,5.62,5.62,5.62,5.62,5.62,5.62,5.62,5.62,5.62,5.62,5.62,5.62,5.62,5.62,5.62,5.62,5.62,5.62,5.62,5.62,5.62,5.62,5.62,5.62,5.62,5.62,5.62,5.62,5.62,5.62,5.62,5.62,5.62,5.62,5.62,5.62,5.62,5.62,5.62,5.62,5.62,5.62,5.62,5.62,5.62,5.62,5.62,5.62,5.62,5.62,5.62,5.62,5.62,5.62,5.62,5.62,5.62,5.62,5.62,5.62,5.62,5.62,5.62,5.62,5.62,5.62,5.62,5.62,5.62,5.62,5.62,5.62,5.62,5.62,5.62,5.62,5.62,5.62,5.62,5.62,5.62,5.62,5.62,5.62,5.62,5.62,5.62,5.62,5.62,5.62,5.62,5.62,5.62,5.62,5.62,5.62,5.62,5.62,5.62,5.62,5.62,5.62,5.62,5.62,5.62,5.62,5.62,5.62,5.62,5.62,5.62,5.62,5.62,5.62,5.62]}]]